<?xml version="1.0" encoding="UTF-8" standalone="no" ?>
<gpx xmlns="http://www.topografix.com/GPX/1/1" xmlns:xsi="http://www.w3.org/2001/XMLSchema-instance" xsi:schemaLocation="http://www.topografix.com/GPX/1/1 http://www.topografix.com/GPX/1/1/gpx.xsd" version="1.1" creator="VisuGPX - https://www.visugpx.com">
  <metadata>
    <name>Rando de Morêt/Loing à Montereau-Fault Yvonne (77)</name>
    <desc><![CDATA[Longue randonnée de gare à gare, entre Morêt-sur-Loing à Montereau Fault Yvonne. 27 km - A parcourir de préférence par temps sec - Beaucoup de passage en plaines
Plus de détails sur [url]http://trekkingzone.wordpress.com[/url]]]></desc>
  </metadata>
  <trk>
    <name><![CDATA[27 janv. 2019 à 10:28:55]]></name>
    <cmt><![CDATA[27 janv. 2019 à 10:28:55]]></cmt>
    <trkseg>
      <trkpt lat="48.3781" lon="2.79954">
        <ele>73</ele>
        <time>2019-01-27T09:28:55Z</time>
      </trkpt>
      <trkpt lat="48.37813" lon="2.7996">
        <ele>71</ele>
        <time>2019-01-27T09:29:00Z</time>
      </trkpt>
      <trkpt lat="48.37818" lon="2.7996">
        <ele>69</ele>
        <time>2019-01-27T09:29:27Z</time>
      </trkpt>
      <trkpt lat="48.37827" lon="2.79958">
        <ele>69</ele>
        <time>2019-01-27T09:29:45Z</time>
      </trkpt>
      <trkpt lat="48.37833" lon="2.79955">
        <ele>68</ele>
        <time>2019-01-27T09:29:53Z</time>
      </trkpt>
      <trkpt lat="48.37838" lon="2.79958">
        <ele>69</ele>
        <time>2019-01-27T09:29:59Z</time>
      </trkpt>
      <trkpt lat="48.37836" lon="2.79964">
        <ele>68</ele>
        <time>2019-01-27T09:30:44Z</time>
      </trkpt>
      <trkpt lat="48.37843" lon="2.79954">
        <ele>68</ele>
        <time>2019-01-27T09:31:07Z</time>
      </trkpt>
      <trkpt lat="48.37849" lon="2.79945">
        <ele>68</ele>
        <time>2019-01-27T09:31:17Z</time>
      </trkpt>
      <trkpt lat="48.37852" lon="2.79938">
        <ele>68</ele>
        <time>2019-01-27T09:31:22Z</time>
      </trkpt>
      <trkpt lat="48.37853" lon="2.79931">
        <ele>68</ele>
        <time>2019-01-27T09:31:27Z</time>
      </trkpt>
      <trkpt lat="48.37872" lon="2.79917">
        <ele>64</ele>
        <time>2019-01-27T09:31:55Z</time>
      </trkpt>
      <trkpt lat="48.37873" lon="2.79912">
        <ele>67</ele>
        <time>2019-01-27T09:32:21Z</time>
      </trkpt>
      <trkpt lat="48.37886" lon="2.79912">
        <ele>64</ele>
        <time>2019-01-27T09:34:05Z</time>
      </trkpt>
      <trkpt lat="48.37905" lon="2.79924">
        <ele>62</ele>
        <time>2019-01-27T09:34:27Z</time>
      </trkpt>
      <trkpt lat="48.37919" lon="2.79943">
        <ele>59</ele>
        <time>2019-01-27T09:34:47Z</time>
      </trkpt>
      <trkpt lat="48.37922" lon="2.79956">
        <ele>57</ele>
        <time>2019-01-27T09:34:54Z</time>
      </trkpt>
      <trkpt lat="48.37921" lon="2.79971">
        <ele>56</ele>
        <time>2019-01-27T09:35:03Z</time>
      </trkpt>
      <trkpt lat="48.37937" lon="2.79996">
        <ele>51</ele>
        <time>2019-01-27T09:35:33Z</time>
      </trkpt>
      <trkpt lat="48.37945" lon="2.80003">
        <ele>50</ele>
        <time>2019-01-27T09:35:42Z</time>
      </trkpt>
      <trkpt lat="48.3795" lon="2.80003">
        <ele>49</ele>
        <time>2019-01-27T09:35:47Z</time>
      </trkpt>
      <trkpt lat="48.37952" lon="2.79995">
        <ele>49</ele>
        <time>2019-01-27T09:35:51Z</time>
      </trkpt>
      <trkpt lat="48.37954" lon="2.79989">
        <ele>49</ele>
        <time>2019-01-27T09:35:55Z</time>
      </trkpt>
      <trkpt lat="48.37958" lon="2.79984">
        <ele>49</ele>
        <time>2019-01-27T09:35:59Z</time>
      </trkpt>
      <trkpt lat="48.37968" lon="2.79976">
        <ele>49</ele>
        <time>2019-01-27T09:36:08Z</time>
      </trkpt>
      <trkpt lat="48.37976" lon="2.79958">
        <ele>48</ele>
        <time>2019-01-27T09:36:20Z</time>
      </trkpt>
      <trkpt lat="48.37988" lon="2.79944">
        <ele>48</ele>
        <time>2019-01-27T09:36:32Z</time>
      </trkpt>
      <trkpt lat="48.38012" lon="2.79892">
        <ele>48</ele>
        <time>2019-01-27T09:37:03Z</time>
      </trkpt>
      <trkpt lat="48.38016" lon="2.79888">
        <ele>48</ele>
        <time>2019-01-27T09:37:07Z</time>
      </trkpt>
      <trkpt lat="48.3802" lon="2.79884">
        <ele>48</ele>
        <time>2019-01-27T09:37:11Z</time>
      </trkpt>
      <trkpt lat="48.38024" lon="2.7988">
        <ele>48</ele>
        <time>2019-01-27T09:37:16Z</time>
      </trkpt>
      <trkpt lat="48.38039" lon="2.79857">
        <ele>47</ele>
        <time>2019-01-27T09:37:32Z</time>
      </trkpt>
      <trkpt lat="48.38056" lon="2.79841">
        <ele>47</ele>
        <time>2019-01-27T09:37:48Z</time>
      </trkpt>
      <trkpt lat="48.38059" lon="2.79835">
        <ele>47</ele>
        <time>2019-01-27T09:37:51Z</time>
      </trkpt>
      <trkpt lat="48.38064" lon="2.79834">
        <ele>47</ele>
        <time>2019-01-27T09:37:54Z</time>
      </trkpt>
      <trkpt lat="48.38069" lon="2.79835">
        <ele>47</ele>
        <time>2019-01-27T09:37:57Z</time>
      </trkpt>
      <trkpt lat="48.38091" lon="2.79863">
        <ele>45</ele>
        <time>2019-01-27T09:38:18Z</time>
      </trkpt>
      <trkpt lat="48.38111" lon="2.79894">
        <ele>45</ele>
        <time>2019-01-27T09:38:39Z</time>
      </trkpt>
      <trkpt lat="48.38112" lon="2.79908">
        <ele>45</ele>
        <time>2019-01-27T09:38:46Z</time>
      </trkpt>
      <trkpt lat="48.38099" lon="2.79928">
        <ele>45</ele>
        <time>2019-01-27T09:39:00Z</time>
      </trkpt>
      <trkpt lat="48.38093" lon="2.79939">
        <ele>45</ele>
        <time>2019-01-27T09:39:07Z</time>
      </trkpt>
      <trkpt lat="48.38087" lon="2.79951">
        <ele>45</ele>
        <time>2019-01-27T09:39:15Z</time>
      </trkpt>
      <trkpt lat="48.38059" lon="2.80004">
        <ele>45</ele>
        <time>2019-01-27T09:39:47Z</time>
      </trkpt>
      <trkpt lat="48.38029" lon="2.80061">
        <ele>45</ele>
        <time>2019-01-27T09:40:21Z</time>
      </trkpt>
      <trkpt lat="48.38002" lon="2.8011">
        <ele>45</ele>
        <time>2019-01-27T09:40:53Z</time>
      </trkpt>
      <trkpt lat="48.37985" lon="2.80138">
        <ele>45</ele>
        <time>2019-01-27T09:41:11Z</time>
      </trkpt>
      <trkpt lat="48.37984" lon="2.80145">
        <ele>45</ele>
        <time>2019-01-27T09:41:18Z</time>
      </trkpt>
      <trkpt lat="48.37973" lon="2.8017">
        <ele>45</ele>
        <time>2019-01-27T09:41:31Z</time>
      </trkpt>
      <trkpt lat="48.37954" lon="2.8021">
        <ele>46</ele>
        <time>2019-01-27T09:41:52Z</time>
      </trkpt>
      <trkpt lat="48.37945" lon="2.8023">
        <ele>46</ele>
        <time>2019-01-27T09:42:04Z</time>
      </trkpt>
      <trkpt lat="48.37921" lon="2.80282">
        <ele>47</ele>
        <time>2019-01-27T09:42:36Z</time>
      </trkpt>
      <trkpt lat="48.37908" lon="2.80308">
        <ele>47</ele>
        <time>2019-01-27T09:42:53Z</time>
      </trkpt>
      <trkpt lat="48.37905" lon="2.80314">
        <ele>47</ele>
        <time>2019-01-27T09:42:57Z</time>
      </trkpt>
      <trkpt lat="48.37882" lon="2.80362">
        <ele>48</ele>
        <time>2019-01-27T09:43:29Z</time>
      </trkpt>
      <trkpt lat="48.37875" lon="2.80375">
        <ele>48</ele>
        <time>2019-01-27T09:43:38Z</time>
      </trkpt>
      <trkpt lat="48.37866" lon="2.80398">
        <ele>47</ele>
        <time>2019-01-27T09:43:56Z</time>
      </trkpt>
      <trkpt lat="48.37866" lon="2.80406">
        <ele>47</ele>
        <time>2019-01-27T09:44:01Z</time>
      </trkpt>
      <trkpt lat="48.37867" lon="2.80414">
        <ele>47</ele>
        <time>2019-01-27T09:44:05Z</time>
      </trkpt>
      <trkpt lat="48.37867" lon="2.8043">
        <ele>47</ele>
        <time>2019-01-27T09:44:13Z</time>
      </trkpt>
      <trkpt lat="48.37864" lon="2.80438">
        <ele>47</ele>
        <time>2019-01-27T09:44:18Z</time>
      </trkpt>
      <trkpt lat="48.37861" lon="2.80443">
        <ele>47</ele>
        <time>2019-01-27T09:44:22Z</time>
      </trkpt>
      <trkpt lat="48.37862" lon="2.80459">
        <ele>47</ele>
        <time>2019-01-27T09:44:30Z</time>
      </trkpt>
      <trkpt lat="48.37864" lon="2.80475">
        <ele>47</ele>
        <time>2019-01-27T09:44:38Z</time>
      </trkpt>
      <trkpt lat="48.37865" lon="2.80483">
        <ele>47</ele>
        <time>2019-01-27T09:44:42Z</time>
      </trkpt>
      <trkpt lat="48.37865" lon="2.80498">
        <ele>47</ele>
        <time>2019-01-27T09:44:50Z</time>
      </trkpt>
      <trkpt lat="48.37869" lon="2.8053">
        <ele>47</ele>
        <time>2019-01-27T09:45:06Z</time>
      </trkpt>
      <trkpt lat="48.37872" lon="2.80578">
        <ele>47</ele>
        <time>2019-01-27T09:45:30Z</time>
      </trkpt>
      <trkpt lat="48.37874" lon="2.80585">
        <ele>47</ele>
        <time>2019-01-27T09:45:34Z</time>
      </trkpt>
      <trkpt lat="48.37878" lon="2.80617">
        <ele>48</ele>
        <time>2019-01-27T09:45:50Z</time>
      </trkpt>
      <trkpt lat="48.37878" lon="2.80624">
        <ele>48</ele>
        <time>2019-01-27T09:45:53Z</time>
      </trkpt>
      <trkpt lat="48.37887" lon="2.80685">
        <ele>48</ele>
        <time>2019-01-27T09:46:24Z</time>
      </trkpt>
      <trkpt lat="48.37896" lon="2.80749">
        <ele>49</ele>
        <time>2019-01-27T09:46:56Z</time>
      </trkpt>
      <trkpt lat="48.37899" lon="2.80771">
        <ele>49</ele>
        <time>2019-01-27T09:47:06Z</time>
      </trkpt>
      <trkpt lat="48.37897" lon="2.80787">
        <ele>49</ele>
        <time>2019-01-27T09:47:14Z</time>
      </trkpt>
      <trkpt lat="48.37898" lon="2.80795">
        <ele>50</ele>
        <time>2019-01-27T09:47:18Z</time>
      </trkpt>
      <trkpt lat="48.379" lon="2.80802">
        <ele>50</ele>
        <time>2019-01-27T09:47:22Z</time>
      </trkpt>
      <trkpt lat="48.37905" lon="2.80864">
        <ele>50</ele>
        <time>2019-01-27T09:47:54Z</time>
      </trkpt>
      <trkpt lat="48.3791" lon="2.80868">
        <ele>51</ele>
        <time>2019-01-27T09:48:08Z</time>
      </trkpt>
      <trkpt lat="48.37911" lon="2.80878">
        <ele>50</ele>
        <time>2019-01-27T09:48:30Z</time>
      </trkpt>
      <trkpt lat="48.37913" lon="2.80892">
        <ele>50</ele>
        <time>2019-01-27T09:48:36Z</time>
      </trkpt>
      <trkpt lat="48.37915" lon="2.80898">
        <ele>50</ele>
        <time>2019-01-27T09:48:39Z</time>
      </trkpt>
      <trkpt lat="48.37921" lon="2.80912">
        <ele>50</ele>
        <time>2019-01-27T09:48:47Z</time>
      </trkpt>
      <trkpt lat="48.37928" lon="2.80935">
        <ele>50</ele>
        <time>2019-01-27T09:48:59Z</time>
      </trkpt>
      <trkpt lat="48.37931" lon="2.80943">
        <ele>50</ele>
        <time>2019-01-27T09:49:03Z</time>
      </trkpt>
      <trkpt lat="48.37949" lon="2.80998">
        <ele>49</ele>
        <time>2019-01-27T09:49:34Z</time>
      </trkpt>
      <trkpt lat="48.37954" lon="2.81011">
        <ele>49</ele>
        <time>2019-01-27T09:49:42Z</time>
      </trkpt>
      <trkpt lat="48.37955" lon="2.81018">
        <ele>48</ele>
        <time>2019-01-27T09:49:46Z</time>
      </trkpt>
      <trkpt lat="48.37955" lon="2.81026">
        <ele>49</ele>
        <time>2019-01-27T09:49:51Z</time>
      </trkpt>
      <trkpt lat="48.37958" lon="2.81034">
        <ele>49</ele>
        <time>2019-01-27T09:49:55Z</time>
      </trkpt>
      <trkpt lat="48.37962" lon="2.81043">
        <ele>49</ele>
        <time>2019-01-27T09:50:00Z</time>
      </trkpt>
      <trkpt lat="48.37966" lon="2.81049">
        <ele>48</ele>
        <time>2019-01-27T09:50:04Z</time>
      </trkpt>
      <trkpt lat="48.37971" lon="2.8106">
        <ele>48</ele>
        <time>2019-01-27T09:50:09Z</time>
      </trkpt>
      <trkpt lat="48.37978" lon="2.8107">
        <ele>48</ele>
        <time>2019-01-27T09:50:16Z</time>
      </trkpt>
      <trkpt lat="48.38002" lon="2.81134">
        <ele>48</ele>
        <time>2019-01-27T09:50:51Z</time>
      </trkpt>
      <trkpt lat="48.38009" lon="2.81145">
        <ele>48</ele>
        <time>2019-01-27T09:50:58Z</time>
      </trkpt>
      <trkpt lat="48.38014" lon="2.81156">
        <ele>48</ele>
        <time>2019-01-27T09:51:05Z</time>
      </trkpt>
      <trkpt lat="48.38023" lon="2.81164">
        <ele>48</ele>
        <time>2019-01-27T09:51:11Z</time>
      </trkpt>
      <trkpt lat="48.3803" lon="2.81172">
        <ele>49</ele>
        <time>2019-01-27T09:51:17Z</time>
      </trkpt>
      <trkpt lat="48.38036" lon="2.81183">
        <ele>49</ele>
        <time>2019-01-27T09:51:23Z</time>
      </trkpt>
      <trkpt lat="48.38039" lon="2.81196">
        <ele>49</ele>
        <time>2019-01-27T09:51:29Z</time>
      </trkpt>
      <trkpt lat="48.3803" lon="2.81215">
        <ele>48</ele>
        <time>2019-01-27T09:51:40Z</time>
      </trkpt>
      <trkpt lat="48.38027" lon="2.81223">
        <ele>48</ele>
        <time>2019-01-27T09:51:44Z</time>
      </trkpt>
      <trkpt lat="48.38024" lon="2.81238">
        <ele>47</ele>
        <time>2019-01-27T09:51:52Z</time>
      </trkpt>
      <trkpt lat="48.38018" lon="2.81267">
        <ele>48</ele>
        <time>2019-01-27T09:52:10Z</time>
      </trkpt>
      <trkpt lat="48.38005" lon="2.81294">
        <ele>49</ele>
        <time>2019-01-27T09:52:26Z</time>
      </trkpt>
      <trkpt lat="48.3798" lon="2.81355">
        <ele>48</ele>
        <time>2019-01-27T09:52:58Z</time>
      </trkpt>
      <trkpt lat="48.37978" lon="2.81361">
        <ele>48</ele>
        <time>2019-01-27T09:53:02Z</time>
      </trkpt>
      <trkpt lat="48.37974" lon="2.81374">
        <ele>47</ele>
        <time>2019-01-27T09:53:10Z</time>
      </trkpt>
      <trkpt lat="48.37964" lon="2.81409">
        <ele>48</ele>
        <time>2019-01-27T09:53:31Z</time>
      </trkpt>
      <trkpt lat="48.37941" lon="2.8146">
        <ele>48</ele>
        <time>2019-01-27T09:54:03Z</time>
      </trkpt>
      <trkpt lat="48.37938" lon="2.81465">
        <ele>47</ele>
        <time>2019-01-27T09:54:07Z</time>
      </trkpt>
      <trkpt lat="48.37927" lon="2.81483">
        <ele>48</ele>
        <time>2019-01-27T09:54:19Z</time>
      </trkpt>
      <trkpt lat="48.37918" lon="2.81509">
        <ele>49</ele>
        <time>2019-01-27T09:54:36Z</time>
      </trkpt>
      <trkpt lat="48.37913" lon="2.81523">
        <ele>48</ele>
        <time>2019-01-27T09:54:43Z</time>
      </trkpt>
      <trkpt lat="48.37903" lon="2.81546">
        <ele>48</ele>
        <time>2019-01-27T09:54:57Z</time>
      </trkpt>
      <trkpt lat="48.37902" lon="2.81555">
        <ele>48</ele>
        <time>2019-01-27T09:55:07Z</time>
      </trkpt>
      <trkpt lat="48.379" lon="2.81562">
        <ele>48</ele>
        <time>2019-01-27T09:55:24Z</time>
      </trkpt>
      <trkpt lat="48.37893" lon="2.81577">
        <ele>48</ele>
        <time>2019-01-27T09:55:34Z</time>
      </trkpt>
      <trkpt lat="48.3789" lon="2.81582">
        <ele>48</ele>
        <time>2019-01-27T09:55:38Z</time>
      </trkpt>
      <trkpt lat="48.37887" lon="2.8159">
        <ele>48</ele>
        <time>2019-01-27T09:55:42Z</time>
      </trkpt>
      <trkpt lat="48.37885" lon="2.81597">
        <ele>48</ele>
        <time>2019-01-27T09:55:45Z</time>
      </trkpt>
      <trkpt lat="48.37879" lon="2.81606">
        <ele>48</ele>
        <time>2019-01-27T09:56:17Z</time>
      </trkpt>
      <trkpt lat="48.37852" lon="2.81656">
        <ele>48</ele>
        <time>2019-01-27T09:56:45Z</time>
      </trkpt>
      <trkpt lat="48.37847" lon="2.8167">
        <ele>48</ele>
        <time>2019-01-27T09:56:52Z</time>
      </trkpt>
      <trkpt lat="48.37816" lon="2.81723">
        <ele>46</ele>
        <time>2019-01-27T09:57:25Z</time>
      </trkpt>
      <trkpt lat="48.37807" lon="2.81742">
        <ele>46</ele>
        <time>2019-01-27T09:57:36Z</time>
      </trkpt>
      <trkpt lat="48.37804" lon="2.81748">
        <ele>46</ele>
        <time>2019-01-27T09:57:40Z</time>
      </trkpt>
      <trkpt lat="48.378" lon="2.81753">
        <ele>46</ele>
        <time>2019-01-27T09:57:44Z</time>
      </trkpt>
      <trkpt lat="48.37783" lon="2.81776">
        <ele>46</ele>
        <time>2019-01-27T09:58:00Z</time>
      </trkpt>
      <trkpt lat="48.37774" lon="2.81786">
        <ele>45</ele>
        <time>2019-01-27T09:58:08Z</time>
      </trkpt>
      <trkpt lat="48.37771" lon="2.81792">
        <ele>45</ele>
        <time>2019-01-27T09:58:12Z</time>
      </trkpt>
      <trkpt lat="48.37767" lon="2.81796">
        <ele>45</ele>
        <time>2019-01-27T09:58:16Z</time>
      </trkpt>
      <trkpt lat="48.37762" lon="2.818">
        <ele>45</ele>
        <time>2019-01-27T09:58:20Z</time>
      </trkpt>
      <trkpt lat="48.37739" lon="2.81818">
        <ele>45</ele>
        <time>2019-01-27T09:58:38Z</time>
      </trkpt>
      <trkpt lat="48.37701" lon="2.81838">
        <ele>44</ele>
        <time>2019-01-27T09:59:07Z</time>
      </trkpt>
      <trkpt lat="48.37692" lon="2.81847">
        <ele>44</ele>
        <time>2019-01-27T09:59:14Z</time>
      </trkpt>
      <trkpt lat="48.37649" lon="2.81868">
        <ele>44</ele>
        <time>2019-01-27T09:59:45Z</time>
      </trkpt>
      <trkpt lat="48.37635" lon="2.81875">
        <ele>45</ele>
        <time>2019-01-27T09:59:54Z</time>
      </trkpt>
      <trkpt lat="48.37605" lon="2.8188">
        <ele>43</ele>
        <time>2019-01-27T10:00:16Z</time>
      </trkpt>
      <trkpt lat="48.37594" lon="2.81879">
        <ele>43</ele>
        <time>2019-01-27T10:00:25Z</time>
      </trkpt>
      <trkpt lat="48.3759" lon="2.81878">
        <ele>44</ele>
        <time>2019-01-27T10:00:28Z</time>
      </trkpt>
      <trkpt lat="48.37575" lon="2.81882">
        <ele>44</ele>
        <time>2019-01-27T10:00:36Z</time>
      </trkpt>
      <trkpt lat="48.37555" lon="2.81885">
        <ele>44</ele>
        <time>2019-01-27T10:00:49Z</time>
      </trkpt>
      <trkpt lat="48.3755" lon="2.81883">
        <ele>43</ele>
        <time>2019-01-27T10:00:54Z</time>
      </trkpt>
      <trkpt lat="48.37545" lon="2.81884">
        <ele>43</ele>
        <time>2019-01-27T10:00:58Z</time>
      </trkpt>
      <trkpt lat="48.3753" lon="2.81886">
        <ele>44</ele>
        <time>2019-01-27T10:01:07Z</time>
      </trkpt>
      <trkpt lat="48.37521" lon="2.81887">
        <ele>44</ele>
        <time>2019-01-27T10:01:14Z</time>
      </trkpt>
      <trkpt lat="48.37505" lon="2.81883">
        <ele>44</ele>
        <time>2019-01-27T10:01:25Z</time>
      </trkpt>
      <trkpt lat="48.37501" lon="2.8188">
        <ele>44</ele>
        <time>2019-01-27T10:01:29Z</time>
      </trkpt>
      <trkpt lat="48.37492" lon="2.81875">
        <ele>44</ele>
        <time>2019-01-27T10:01:40Z</time>
      </trkpt>
      <trkpt lat="48.37487" lon="2.81874">
        <ele>45</ele>
        <time>2019-01-27T10:01:46Z</time>
      </trkpt>
      <trkpt lat="48.37481" lon="2.81873">
        <ele>44</ele>
        <time>2019-01-27T10:01:51Z</time>
      </trkpt>
      <trkpt lat="48.37465" lon="2.81881">
        <ele>44</ele>
        <time>2019-01-27T10:02:02Z</time>
      </trkpt>
      <trkpt lat="48.3746" lon="2.81882">
        <ele>44</ele>
        <time>2019-01-27T10:02:05Z</time>
      </trkpt>
      <trkpt lat="48.37457" lon="2.81877">
        <ele>44</ele>
        <time>2019-01-27T10:02:15Z</time>
      </trkpt>
      <trkpt lat="48.37452" lon="2.81882">
        <ele>44</ele>
        <time>2019-01-27T10:02:22Z</time>
      </trkpt>
      <trkpt lat="48.37427" lon="2.81887">
        <ele>44</ele>
        <time>2019-01-27T10:02:40Z</time>
      </trkpt>
      <trkpt lat="48.37417" lon="2.81892">
        <ele>44</ele>
        <time>2019-01-27T10:02:47Z</time>
      </trkpt>
      <trkpt lat="48.37389" lon="2.81905">
        <ele>44</ele>
        <time>2019-01-27T10:03:10Z</time>
      </trkpt>
      <trkpt lat="48.37353" lon="2.81916">
        <ele>44</ele>
        <time>2019-01-27T10:03:37Z</time>
      </trkpt>
      <trkpt lat="48.37344" lon="2.81919">
        <ele>44</ele>
        <time>2019-01-27T10:03:45Z</time>
      </trkpt>
      <trkpt lat="48.37334" lon="2.81921">
        <ele>44</ele>
        <time>2019-01-27T10:03:53Z</time>
      </trkpt>
      <trkpt lat="48.37327" lon="2.81921">
        <ele>44</ele>
        <time>2019-01-27T10:04:01Z</time>
      </trkpt>
      <trkpt lat="48.37321" lon="2.8192">
        <ele>44</ele>
        <time>2019-01-27T10:04:06Z</time>
      </trkpt>
      <trkpt lat="48.37318" lon="2.81924">
        <ele>45</ele>
        <time>2019-01-27T10:04:22Z</time>
      </trkpt>
      <trkpt lat="48.37314" lon="2.81918">
        <ele>45</ele>
        <time>2019-01-27T10:04:30Z</time>
      </trkpt>
      <trkpt lat="48.3731" lon="2.81916">
        <ele>45</ele>
        <time>2019-01-27T10:04:34Z</time>
      </trkpt>
      <trkpt lat="48.37306" lon="2.8191">
        <ele>45</ele>
        <time>2019-01-27T10:04:38Z</time>
      </trkpt>
      <trkpt lat="48.37303" lon="2.81905">
        <ele>45</ele>
        <time>2019-01-27T10:04:42Z</time>
      </trkpt>
      <trkpt lat="48.37296" lon="2.81902">
        <ele>46</ele>
        <time>2019-01-27T10:04:54Z</time>
      </trkpt>
      <trkpt lat="48.37291" lon="2.81897">
        <ele>46</ele>
        <time>2019-01-27T10:05:03Z</time>
      </trkpt>
      <trkpt lat="48.37286" lon="2.81893">
        <ele>45</ele>
        <time>2019-01-27T10:05:07Z</time>
      </trkpt>
      <trkpt lat="48.37282" lon="2.81893">
        <ele>45</ele>
        <time>2019-01-27T10:05:10Z</time>
      </trkpt>
      <trkpt lat="48.37273" lon="2.81885">
        <ele>45</ele>
        <time>2019-01-27T10:05:21Z</time>
      </trkpt>
      <trkpt lat="48.37256" lon="2.81882">
        <ele>45</ele>
        <time>2019-01-27T10:05:30Z</time>
      </trkpt>
      <trkpt lat="48.37259" lon="2.81866">
        <ele>48</ele>
        <time>2019-01-27T10:06:03Z</time>
      </trkpt>
      <trkpt lat="48.37265" lon="2.81876">
        <ele>50</ele>
        <time>2019-01-27T10:06:51Z</time>
      </trkpt>
      <trkpt lat="48.3726" lon="2.81881">
        <ele>50</ele>
        <time>2019-01-27T10:07:03Z</time>
      </trkpt>
      <trkpt lat="48.37261" lon="2.81889">
        <ele>51</ele>
        <time>2019-01-27T10:07:33Z</time>
      </trkpt>
      <trkpt lat="48.37253" lon="2.81936">
        <ele>51</ele>
        <time>2019-01-27T10:08:08Z</time>
      </trkpt>
      <trkpt lat="48.37252" lon="2.81943">
        <ele>51</ele>
        <time>2019-01-27T10:08:12Z</time>
      </trkpt>
      <trkpt lat="48.37251" lon="2.8196">
        <ele>51</ele>
        <time>2019-01-27T10:08:21Z</time>
      </trkpt>
      <trkpt lat="48.3725" lon="2.81986">
        <ele>51</ele>
        <time>2019-01-27T10:08:40Z</time>
      </trkpt>
      <trkpt lat="48.37249" lon="2.81997">
        <ele>52</ele>
        <time>2019-01-27T10:08:59Z</time>
      </trkpt>
      <trkpt lat="48.37247" lon="2.82055">
        <ele>51</ele>
        <time>2019-01-27T10:09:25Z</time>
      </trkpt>
      <trkpt lat="48.37243" lon="2.82071">
        <ele>51</ele>
        <time>2019-01-27T10:09:33Z</time>
      </trkpt>
      <trkpt lat="48.37239" lon="2.82077">
        <ele>50</ele>
        <time>2019-01-27T10:09:37Z</time>
      </trkpt>
      <trkpt lat="48.37231" lon="2.82097">
        <ele>50</ele>
        <time>2019-01-27T10:09:48Z</time>
      </trkpt>
      <trkpt lat="48.37223" lon="2.82108">
        <ele>50</ele>
        <time>2019-01-27T10:09:55Z</time>
      </trkpt>
      <trkpt lat="48.37215" lon="2.82117">
        <ele>49</ele>
        <time>2019-01-27T10:10:02Z</time>
      </trkpt>
      <trkpt lat="48.37213" lon="2.82124">
        <ele>49</ele>
        <time>2019-01-27T10:10:07Z</time>
      </trkpt>
      <trkpt lat="48.37212" lon="2.82144">
        <ele>49</ele>
        <time>2019-01-27T10:10:21Z</time>
      </trkpt>
      <trkpt lat="48.37215" lon="2.82159">
        <ele>49</ele>
        <time>2019-01-27T10:10:30Z</time>
      </trkpt>
      <trkpt lat="48.3721" lon="2.82175">
        <ele>49</ele>
        <time>2019-01-27T10:10:42Z</time>
      </trkpt>
      <trkpt lat="48.37207" lon="2.82183">
        <ele>49</ele>
        <time>2019-01-27T10:10:46Z</time>
      </trkpt>
      <trkpt lat="48.37207" lon="2.82191">
        <ele>49</ele>
        <time>2019-01-27T10:10:50Z</time>
      </trkpt>
      <trkpt lat="48.37208" lon="2.82198">
        <ele>49</ele>
        <time>2019-01-27T10:10:54Z</time>
      </trkpt>
      <trkpt lat="48.37213" lon="2.82207">
        <ele>49</ele>
        <time>2019-01-27T10:10:59Z</time>
      </trkpt>
      <trkpt lat="48.37209" lon="2.82225">
        <ele>49</ele>
        <time>2019-01-27T10:11:12Z</time>
      </trkpt>
      <trkpt lat="48.37199" lon="2.82232">
        <ele>49</ele>
        <time>2019-01-27T10:11:17Z</time>
      </trkpt>
      <trkpt lat="48.37185" lon="2.82253">
        <ele>49</ele>
        <time>2019-01-27T10:11:30Z</time>
      </trkpt>
      <trkpt lat="48.3718" lon="2.82281">
        <ele>50</ele>
        <time>2019-01-27T10:11:45Z</time>
      </trkpt>
      <trkpt lat="48.37171" lon="2.82291">
        <ele>50</ele>
        <time>2019-01-27T10:11:51Z</time>
      </trkpt>
      <trkpt lat="48.37171" lon="2.82303">
        <ele>50</ele>
        <time>2019-01-27T10:11:59Z</time>
      </trkpt>
      <trkpt lat="48.37167" lon="2.82309">
        <ele>50</ele>
        <time>2019-01-27T10:12:03Z</time>
      </trkpt>
      <trkpt lat="48.37165" lon="2.82316">
        <ele>51</ele>
        <time>2019-01-27T10:12:10Z</time>
      </trkpt>
      <trkpt lat="48.37161" lon="2.82323">
        <ele>51</ele>
        <time>2019-01-27T10:12:14Z</time>
      </trkpt>
      <trkpt lat="48.37159" lon="2.8233">
        <ele>51</ele>
        <time>2019-01-27T10:12:18Z</time>
      </trkpt>
      <trkpt lat="48.37159" lon="2.82337">
        <ele>51</ele>
        <time>2019-01-27T10:12:21Z</time>
      </trkpt>
      <trkpt lat="48.3716" lon="2.82349">
        <ele>51</ele>
        <time>2019-01-27T10:12:28Z</time>
      </trkpt>
      <trkpt lat="48.37163" lon="2.82355">
        <ele>51</ele>
        <time>2019-01-27T10:12:31Z</time>
      </trkpt>
      <trkpt lat="48.37162" lon="2.82362">
        <ele>50</ele>
        <time>2019-01-27T10:12:36Z</time>
      </trkpt>
      <trkpt lat="48.37164" lon="2.82374">
        <ele>51</ele>
        <time>2019-01-27T10:12:45Z</time>
      </trkpt>
      <trkpt lat="48.3717" lon="2.82387">
        <ele>51</ele>
        <time>2019-01-27T10:12:53Z</time>
      </trkpt>
      <trkpt lat="48.37166" lon="2.82393">
        <ele>51</ele>
        <time>2019-01-27T10:12:57Z</time>
      </trkpt>
      <trkpt lat="48.37158" lon="2.82397">
        <ele>51</ele>
        <time>2019-01-27T10:13:01Z</time>
      </trkpt>
      <trkpt lat="48.37141" lon="2.82428">
        <ele>52</ele>
        <time>2019-01-27T10:13:21Z</time>
      </trkpt>
      <trkpt lat="48.37125" lon="2.82446">
        <ele>52</ele>
        <time>2019-01-27T10:13:32Z</time>
      </trkpt>
      <trkpt lat="48.37127" lon="2.82461">
        <ele>52</ele>
        <time>2019-01-27T10:13:40Z</time>
      </trkpt>
      <trkpt lat="48.37131" lon="2.82473">
        <ele>52</ele>
        <time>2019-01-27T10:13:46Z</time>
      </trkpt>
      <trkpt lat="48.37124" lon="2.82494">
        <ele>53</ele>
        <time>2019-01-27T10:13:56Z</time>
      </trkpt>
      <trkpt lat="48.37119" lon="2.82498">
        <ele>53</ele>
        <time>2019-01-27T10:13:59Z</time>
      </trkpt>
      <trkpt lat="48.37118" lon="2.82504">
        <ele>53</ele>
        <time>2019-01-27T10:14:03Z</time>
      </trkpt>
      <trkpt lat="48.37121" lon="2.82511">
        <ele>53</ele>
        <time>2019-01-27T10:14:07Z</time>
      </trkpt>
      <trkpt lat="48.37122" lon="2.8252">
        <ele>53</ele>
        <time>2019-01-27T10:14:11Z</time>
      </trkpt>
      <trkpt lat="48.37114" lon="2.82529">
        <ele>53</ele>
        <time>2019-01-27T10:14:17Z</time>
      </trkpt>
      <trkpt lat="48.37109" lon="2.82534">
        <ele>54</ele>
        <time>2019-01-27T10:14:21Z</time>
      </trkpt>
      <trkpt lat="48.37097" lon="2.82551">
        <ele>54</ele>
        <time>2019-01-27T10:14:30Z</time>
      </trkpt>
      <trkpt lat="48.37087" lon="2.82557">
        <ele>53</ele>
        <time>2019-01-27T10:14:38Z</time>
      </trkpt>
      <trkpt lat="48.37081" lon="2.82555">
        <ele>53</ele>
        <time>2019-01-27T10:14:55Z</time>
      </trkpt>
      <trkpt lat="48.37079" lon="2.82561">
        <ele>53</ele>
        <time>2019-01-27T10:15:01Z</time>
      </trkpt>
      <trkpt lat="48.37074" lon="2.82566">
        <ele>53</ele>
        <time>2019-01-27T10:15:05Z</time>
      </trkpt>
      <trkpt lat="48.37064" lon="2.82569">
        <ele>53</ele>
        <time>2019-01-27T10:15:12Z</time>
      </trkpt>
      <trkpt lat="48.37058" lon="2.8257">
        <ele>52</ele>
        <time>2019-01-27T10:15:16Z</time>
      </trkpt>
      <trkpt lat="48.37052" lon="2.82571">
        <ele>52</ele>
        <time>2019-01-27T10:15:20Z</time>
      </trkpt>
      <trkpt lat="48.37037" lon="2.82576">
        <ele>53</ele>
        <time>2019-01-27T10:15:32Z</time>
      </trkpt>
      <trkpt lat="48.37032" lon="2.8258">
        <ele>53</ele>
        <time>2019-01-27T10:15:36Z</time>
      </trkpt>
      <trkpt lat="48.37027" lon="2.82581">
        <ele>53</ele>
        <time>2019-01-27T10:15:40Z</time>
      </trkpt>
      <trkpt lat="48.37023" lon="2.82582">
        <ele>53</ele>
        <time>2019-01-27T10:15:44Z</time>
      </trkpt>
      <trkpt lat="48.37001" lon="2.82588">
        <ele>52</ele>
        <time>2019-01-27T10:16:00Z</time>
      </trkpt>
      <trkpt lat="48.36996" lon="2.82591">
        <ele>52</ele>
        <time>2019-01-27T10:16:04Z</time>
      </trkpt>
      <trkpt lat="48.36991" lon="2.82593">
        <ele>52</ele>
        <time>2019-01-27T10:16:15Z</time>
      </trkpt>
      <trkpt lat="48.3698" lon="2.82596">
        <ele>52</ele>
        <time>2019-01-27T10:16:22Z</time>
      </trkpt>
      <trkpt lat="48.36966" lon="2.82603">
        <ele>51</ele>
        <time>2019-01-27T10:16:32Z</time>
      </trkpt>
      <trkpt lat="48.36949" lon="2.8261">
        <ele>51</ele>
        <time>2019-01-27T10:16:44Z</time>
      </trkpt>
      <trkpt lat="48.36944" lon="2.8261">
        <ele>51</ele>
        <time>2019-01-27T10:16:47Z</time>
      </trkpt>
      <trkpt lat="48.36901" lon="2.82631">
        <ele>50</ele>
        <time>2019-01-27T10:17:19Z</time>
      </trkpt>
      <trkpt lat="48.36896" lon="2.82634">
        <ele>50</ele>
        <time>2019-01-27T10:17:23Z</time>
      </trkpt>
      <trkpt lat="48.3688" lon="2.82639">
        <ele>50</ele>
        <time>2019-01-27T10:17:35Z</time>
      </trkpt>
      <trkpt lat="48.36837" lon="2.82656">
        <ele>50</ele>
        <time>2019-01-27T10:18:07Z</time>
      </trkpt>
      <trkpt lat="48.36828" lon="2.82659">
        <ele>50</ele>
        <time>2019-01-27T10:18:15Z</time>
      </trkpt>
      <trkpt lat="48.36818" lon="2.8266">
        <ele>50</ele>
        <time>2019-01-27T10:18:23Z</time>
      </trkpt>
      <trkpt lat="48.36812" lon="2.82656">
        <ele>50</ele>
        <time>2019-01-27T10:18:46Z</time>
      </trkpt>
      <trkpt lat="48.36808" lon="2.82664">
        <ele>50</ele>
        <time>2019-01-27T10:19:47Z</time>
      </trkpt>
      <trkpt lat="48.36797" lon="2.82663">
        <ele>50</ele>
        <time>2019-01-27T10:19:53Z</time>
      </trkpt>
      <trkpt lat="48.36768" lon="2.82676">
        <ele>50</ele>
        <time>2019-01-27T10:20:13Z</time>
      </trkpt>
      <trkpt lat="48.36763" lon="2.82676">
        <ele>50</ele>
        <time>2019-01-27T10:20:17Z</time>
      </trkpt>
      <trkpt lat="48.36737" lon="2.82685">
        <ele>49</ele>
        <time>2019-01-27T10:20:36Z</time>
      </trkpt>
      <trkpt lat="48.36728" lon="2.82692">
        <ele>49</ele>
        <time>2019-01-27T10:20:43Z</time>
      </trkpt>
      <trkpt lat="48.36687" lon="2.82714">
        <ele>50</ele>
        <time>2019-01-27T10:21:14Z</time>
      </trkpt>
      <trkpt lat="48.36667" lon="2.82718">
        <ele>49</ele>
        <time>2019-01-27T10:21:28Z</time>
      </trkpt>
      <trkpt lat="48.36652" lon="2.8272">
        <ele>49</ele>
        <time>2019-01-27T10:21:38Z</time>
      </trkpt>
      <trkpt lat="48.36614" lon="2.82743">
        <ele>49</ele>
        <time>2019-01-27T10:22:05Z</time>
      </trkpt>
      <trkpt lat="48.36603" lon="2.82744">
        <ele>49</ele>
        <time>2019-01-27T10:22:13Z</time>
      </trkpt>
      <trkpt lat="48.36583" lon="2.82747">
        <ele>48</ele>
        <time>2019-01-27T10:22:27Z</time>
      </trkpt>
      <trkpt lat="48.36577" lon="2.82747">
        <ele>48</ele>
        <time>2019-01-27T10:22:31Z</time>
      </trkpt>
      <trkpt lat="48.36553" lon="2.82741">
        <ele>48</ele>
        <time>2019-01-27T10:22:48Z</time>
      </trkpt>
      <trkpt lat="48.36543" lon="2.8274">
        <ele>48</ele>
        <time>2019-01-27T10:22:55Z</time>
      </trkpt>
      <trkpt lat="48.36499" lon="2.82721">
        <ele>47</ele>
        <time>2019-01-27T10:23:26Z</time>
      </trkpt>
      <trkpt lat="48.36489" lon="2.82715">
        <ele>47</ele>
        <time>2019-01-27T10:23:33Z</time>
      </trkpt>
      <trkpt lat="48.36484" lon="2.82712">
        <ele>47</ele>
        <time>2019-01-27T10:23:37Z</time>
      </trkpt>
      <trkpt lat="48.36478" lon="2.8271">
        <ele>47</ele>
        <time>2019-01-27T10:23:41Z</time>
      </trkpt>
      <trkpt lat="48.36474" lon="2.82707">
        <ele>48</ele>
        <time>2019-01-27T10:23:45Z</time>
      </trkpt>
      <trkpt lat="48.36469" lon="2.82704">
        <ele>48</ele>
        <time>2019-01-27T10:23:49Z</time>
      </trkpt>
      <trkpt lat="48.36458" lon="2.82697">
        <ele>47</ele>
        <time>2019-01-27T10:23:57Z</time>
      </trkpt>
      <trkpt lat="48.36448" lon="2.82693">
        <ele>47</ele>
        <time>2019-01-27T10:24:05Z</time>
      </trkpt>
      <trkpt lat="48.3641" lon="2.82667">
        <ele>47</ele>
        <time>2019-01-27T10:24:36Z</time>
      </trkpt>
      <trkpt lat="48.36397" lon="2.82659">
        <ele>47</ele>
        <time>2019-01-27T10:24:47Z</time>
      </trkpt>
      <trkpt lat="48.36392" lon="2.82662">
        <ele>49</ele>
        <time>2019-01-27T10:32:21Z</time>
      </trkpt>
      <trkpt lat="48.36387" lon="2.82659">
        <ele>48</ele>
        <time>2019-01-27T10:32:45Z</time>
      </trkpt>
      <trkpt lat="48.36363" lon="2.82642">
        <ele>47</ele>
        <time>2019-01-27T10:33:09Z</time>
      </trkpt>
      <trkpt lat="48.36326" lon="2.82617">
        <ele>48</ele>
        <time>2019-01-27T10:33:42Z</time>
      </trkpt>
      <trkpt lat="48.36312" lon="2.82609">
        <ele>48</ele>
        <time>2019-01-27T10:33:54Z</time>
      </trkpt>
      <trkpt lat="48.36307" lon="2.82605">
        <ele>48</ele>
        <time>2019-01-27T10:33:59Z</time>
      </trkpt>
      <trkpt lat="48.36293" lon="2.82598">
        <ele>48</ele>
        <time>2019-01-27T10:34:10Z</time>
      </trkpt>
      <trkpt lat="48.3628" lon="2.82587">
        <ele>48</ele>
        <time>2019-01-27T10:34:21Z</time>
      </trkpt>
      <trkpt lat="48.36265" lon="2.8258">
        <ele>48</ele>
        <time>2019-01-27T10:34:33Z</time>
      </trkpt>
      <trkpt lat="48.3625" lon="2.82571">
        <ele>48</ele>
        <time>2019-01-27T10:34:45Z</time>
      </trkpt>
      <trkpt lat="48.36241" lon="2.82565">
        <ele>48</ele>
        <time>2019-01-27T10:34:53Z</time>
      </trkpt>
      <trkpt lat="48.36231" lon="2.8256">
        <ele>48</ele>
        <time>2019-01-27T10:35:01Z</time>
      </trkpt>
      <trkpt lat="48.36222" lon="2.82552">
        <ele>48</ele>
        <time>2019-01-27T10:35:09Z</time>
      </trkpt>
      <trkpt lat="48.36184" lon="2.8253">
        <ele>49</ele>
        <time>2019-01-27T10:35:41Z</time>
      </trkpt>
      <trkpt lat="48.36169" lon="2.82523">
        <ele>49</ele>
        <time>2019-01-27T10:35:53Z</time>
      </trkpt>
      <trkpt lat="48.36132" lon="2.82494">
        <ele>49</ele>
        <time>2019-01-27T10:36:24Z</time>
      </trkpt>
      <trkpt lat="48.36113" lon="2.82483">
        <ele>49</ele>
        <time>2019-01-27T10:36:40Z</time>
      </trkpt>
      <trkpt lat="48.36069" lon="2.82452">
        <ele>49</ele>
        <time>2019-01-27T10:37:14Z</time>
      </trkpt>
      <trkpt lat="48.36031" lon="2.82423">
        <ele>49</ele>
        <time>2019-01-27T10:37:43Z</time>
      </trkpt>
      <trkpt lat="48.36019" lon="2.82409">
        <ele>49</ele>
        <time>2019-01-27T10:37:55Z</time>
      </trkpt>
      <trkpt lat="48.36013" lon="2.82406">
        <ele>49</ele>
        <time>2019-01-27T10:37:59Z</time>
      </trkpt>
      <trkpt lat="48.36003" lon="2.82401">
        <ele>49</ele>
        <time>2019-01-27T10:38:07Z</time>
      </trkpt>
      <trkpt lat="48.35994" lon="2.8239">
        <ele>50</ele>
        <time>2019-01-27T10:38:15Z</time>
      </trkpt>
      <trkpt lat="48.35986" lon="2.82379">
        <ele>49</ele>
        <time>2019-01-27T10:38:23Z</time>
      </trkpt>
      <trkpt lat="48.35968" lon="2.82359">
        <ele>50</ele>
        <time>2019-01-27T10:38:39Z</time>
      </trkpt>
      <trkpt lat="48.35959" lon="2.8235">
        <ele>50</ele>
        <time>2019-01-27T10:38:46Z</time>
      </trkpt>
      <trkpt lat="48.35955" lon="2.82344">
        <ele>50</ele>
        <time>2019-01-27T10:38:50Z</time>
      </trkpt>
      <trkpt lat="48.35949" lon="2.82342">
        <ele>50</ele>
        <time>2019-01-27T10:38:54Z</time>
      </trkpt>
      <trkpt lat="48.35945" lon="2.82339">
        <ele>50</ele>
        <time>2019-01-27T10:38:57Z</time>
      </trkpt>
      <trkpt lat="48.35918" lon="2.82308">
        <ele>50</ele>
        <time>2019-01-27T10:39:20Z</time>
      </trkpt>
      <trkpt lat="48.35882" lon="2.82276">
        <ele>50</ele>
        <time>2019-01-27T10:39:53Z</time>
      </trkpt>
      <trkpt lat="48.35869" lon="2.82261">
        <ele>51</ele>
        <time>2019-01-27T10:40:05Z</time>
      </trkpt>
      <trkpt lat="48.35847" lon="2.82244">
        <ele>51</ele>
        <time>2019-01-27T10:40:23Z</time>
      </trkpt>
      <trkpt lat="48.35843" lon="2.82239">
        <ele>51</ele>
        <time>2019-01-27T10:40:27Z</time>
      </trkpt>
      <trkpt lat="48.3582" lon="2.82217">
        <ele>51</ele>
        <time>2019-01-27T10:40:47Z</time>
      </trkpt>
      <trkpt lat="48.35812" lon="2.82207">
        <ele>51</ele>
        <time>2019-01-27T10:40:54Z</time>
      </trkpt>
      <trkpt lat="48.35795" lon="2.82191">
        <ele>51</ele>
        <time>2019-01-27T10:41:11Z</time>
      </trkpt>
      <trkpt lat="48.35791" lon="2.82184">
        <ele>51</ele>
        <time>2019-01-27T10:41:15Z</time>
      </trkpt>
      <trkpt lat="48.35783" lon="2.82164">
        <ele>51</ele>
        <time>2019-01-27T10:41:25Z</time>
      </trkpt>
      <trkpt lat="48.35771" lon="2.82149">
        <ele>51</ele>
        <time>2019-01-27T10:41:36Z</time>
      </trkpt>
      <trkpt lat="48.35733" lon="2.82111">
        <ele>51</ele>
        <time>2019-01-27T10:42:07Z</time>
      </trkpt>
      <trkpt lat="48.35721" lon="2.82097">
        <ele>50</ele>
        <time>2019-01-27T10:42:19Z</time>
      </trkpt>
      <trkpt lat="48.35713" lon="2.8209">
        <ele>51</ele>
        <time>2019-01-27T10:42:25Z</time>
      </trkpt>
      <trkpt lat="48.35702" lon="2.8208">
        <ele>51</ele>
        <time>2019-01-27T10:42:36Z</time>
      </trkpt>
      <trkpt lat="48.35681" lon="2.82056">
        <ele>51</ele>
        <time>2019-01-27T10:42:54Z</time>
      </trkpt>
      <trkpt lat="48.35663" lon="2.82041">
        <ele>50</ele>
        <time>2019-01-27T10:43:09Z</time>
      </trkpt>
      <trkpt lat="48.35659" lon="2.82036">
        <ele>50</ele>
        <time>2019-01-27T10:43:13Z</time>
      </trkpt>
      <trkpt lat="48.3565" lon="2.82028">
        <ele>51</ele>
        <time>2019-01-27T10:43:21Z</time>
      </trkpt>
      <trkpt lat="48.35643" lon="2.82017">
        <ele>51</ele>
        <time>2019-01-27T10:43:28Z</time>
      </trkpt>
      <trkpt lat="48.35639" lon="2.82011">
        <ele>51</ele>
        <time>2019-01-27T10:43:32Z</time>
      </trkpt>
      <trkpt lat="48.35634" lon="2.82007">
        <ele>51</ele>
        <time>2019-01-27T10:43:36Z</time>
      </trkpt>
      <trkpt lat="48.35627" lon="2.82002">
        <ele>50</ele>
        <time>2019-01-27T10:43:42Z</time>
      </trkpt>
      <trkpt lat="48.35618" lon="2.81994">
        <ele>51</ele>
        <time>2019-01-27T10:43:51Z</time>
      </trkpt>
      <trkpt lat="48.35614" lon="2.81989">
        <ele>51</ele>
        <time>2019-01-27T10:43:55Z</time>
      </trkpt>
      <trkpt lat="48.35603" lon="2.81971">
        <ele>51</ele>
        <time>2019-01-27T10:44:05Z</time>
      </trkpt>
      <trkpt lat="48.35583" lon="2.81948">
        <ele>51</ele>
        <time>2019-01-27T10:44:22Z</time>
      </trkpt>
      <trkpt lat="48.35549" lon="2.81892">
        <ele>50</ele>
        <time>2019-01-27T10:44:55Z</time>
      </trkpt>
      <trkpt lat="48.35538" lon="2.81874">
        <ele>50</ele>
        <time>2019-01-27T10:45:07Z</time>
      </trkpt>
      <trkpt lat="48.35534" lon="2.81868">
        <ele>51</ele>
        <time>2019-01-27T10:45:11Z</time>
      </trkpt>
      <trkpt lat="48.35525" lon="2.81859">
        <ele>50</ele>
        <time>2019-01-27T10:45:19Z</time>
      </trkpt>
      <trkpt lat="48.35506" lon="2.81822">
        <ele>50</ele>
        <time>2019-01-27T10:45:43Z</time>
      </trkpt>
      <trkpt lat="48.35502" lon="2.81817">
        <ele>50</ele>
        <time>2019-01-27T10:45:46Z</time>
      </trkpt>
      <trkpt lat="48.35477" lon="2.81776">
        <ele>50</ele>
        <time>2019-01-27T10:46:12Z</time>
      </trkpt>
      <trkpt lat="48.35472" lon="2.81771">
        <ele>50</ele>
        <time>2019-01-27T10:46:15Z</time>
      </trkpt>
      <trkpt lat="48.35444" lon="2.81719">
        <ele>51</ele>
        <time>2019-01-27T10:46:46Z</time>
      </trkpt>
      <trkpt lat="48.35432" lon="2.81702">
        <ele>50</ele>
        <time>2019-01-27T10:46:58Z</time>
      </trkpt>
      <trkpt lat="48.35422" lon="2.81684">
        <ele>51</ele>
        <time>2019-01-27T10:47:10Z</time>
      </trkpt>
      <trkpt lat="48.35411" lon="2.81666">
        <ele>50</ele>
        <time>2019-01-27T10:47:22Z</time>
      </trkpt>
      <trkpt lat="48.35402" lon="2.81648">
        <ele>49</ele>
        <time>2019-01-27T10:47:34Z</time>
      </trkpt>
      <trkpt lat="48.35389" lon="2.81633">
        <ele>49</ele>
        <time>2019-01-27T10:47:45Z</time>
      </trkpt>
      <trkpt lat="48.35386" lon="2.81626">
        <ele>50</ele>
        <time>2019-01-27T10:47:49Z</time>
      </trkpt>
      <trkpt lat="48.35377" lon="2.81616">
        <ele>49</ele>
        <time>2019-01-27T10:47:57Z</time>
      </trkpt>
      <trkpt lat="48.35372" lon="2.81612">
        <ele>50</ele>
        <time>2019-01-27T10:48:01Z</time>
      </trkpt>
      <trkpt lat="48.35365" lon="2.81599">
        <ele>50</ele>
        <time>2019-01-27T10:48:09Z</time>
      </trkpt>
      <trkpt lat="48.35363" lon="2.81592">
        <ele>50</ele>
        <time>2019-01-27T10:48:13Z</time>
      </trkpt>
      <trkpt lat="48.35361" lon="2.81584">
        <ele>50</ele>
        <time>2019-01-27T10:48:17Z</time>
      </trkpt>
      <trkpt lat="48.35358" lon="2.81579">
        <ele>50</ele>
        <time>2019-01-27T10:48:20Z</time>
      </trkpt>
      <trkpt lat="48.35354" lon="2.81574">
        <ele>51</ele>
        <time>2019-01-27T10:48:24Z</time>
      </trkpt>
      <trkpt lat="48.35341" lon="2.8155">
        <ele>50</ele>
        <time>2019-01-27T10:48:40Z</time>
      </trkpt>
      <trkpt lat="48.35338" lon="2.81543">
        <ele>50</ele>
        <time>2019-01-27T10:48:44Z</time>
      </trkpt>
      <trkpt lat="48.35332" lon="2.81533">
        <ele>51</ele>
        <time>2019-01-27T10:48:51Z</time>
      </trkpt>
      <trkpt lat="48.35325" lon="2.81522">
        <ele>51</ele>
        <time>2019-01-27T10:48:59Z</time>
      </trkpt>
      <trkpt lat="48.35296" lon="2.81473">
        <ele>51</ele>
        <time>2019-01-27T10:49:31Z</time>
      </trkpt>
      <trkpt lat="48.35275" lon="2.81438">
        <ele>51</ele>
        <time>2019-01-27T10:49:54Z</time>
      </trkpt>
      <trkpt lat="48.35271" lon="2.81433">
        <ele>52</ele>
        <time>2019-01-27T10:49:58Z</time>
      </trkpt>
      <trkpt lat="48.35251" lon="2.81401">
        <ele>49</ele>
        <time>2019-01-27T10:50:18Z</time>
      </trkpt>
      <trkpt lat="48.3524" lon="2.81384">
        <ele>51</ele>
        <time>2019-01-27T10:50:30Z</time>
      </trkpt>
      <trkpt lat="48.35237" lon="2.81378">
        <ele>50</ele>
        <time>2019-01-27T10:50:34Z</time>
      </trkpt>
      <trkpt lat="48.35234" lon="2.81371">
        <ele>51</ele>
        <time>2019-01-27T10:50:38Z</time>
      </trkpt>
      <trkpt lat="48.35232" lon="2.81364">
        <ele>50</ele>
        <time>2019-01-27T10:50:42Z</time>
      </trkpt>
      <trkpt lat="48.35229" lon="2.81359">
        <ele>50</ele>
        <time>2019-01-27T10:50:45Z</time>
      </trkpt>
      <trkpt lat="48.35226" lon="2.81352">
        <ele>50</ele>
        <time>2019-01-27T10:50:49Z</time>
      </trkpt>
      <trkpt lat="48.3522" lon="2.8134">
        <ele>50</ele>
        <time>2019-01-27T10:50:56Z</time>
      </trkpt>
      <trkpt lat="48.35217" lon="2.81333">
        <ele>50</ele>
        <time>2019-01-27T10:51:00Z</time>
      </trkpt>
      <trkpt lat="48.35211" lon="2.81319">
        <ele>51</ele>
        <time>2019-01-27T10:51:08Z</time>
      </trkpt>
      <trkpt lat="48.35206" lon="2.81306">
        <ele>51</ele>
        <time>2019-01-27T10:51:16Z</time>
      </trkpt>
      <trkpt lat="48.35201" lon="2.81292">
        <ele>51</ele>
        <time>2019-01-27T10:51:24Z</time>
      </trkpt>
      <trkpt lat="48.35177" lon="2.81235">
        <ele>50</ele>
        <time>2019-01-27T10:51:56Z</time>
      </trkpt>
      <trkpt lat="48.35174" lon="2.81229">
        <ele>50</ele>
        <time>2019-01-27T10:52:00Z</time>
      </trkpt>
      <trkpt lat="48.35161" lon="2.81201">
        <ele>51</ele>
        <time>2019-01-27T10:52:16Z</time>
      </trkpt>
      <trkpt lat="48.35152" lon="2.81181">
        <ele>50</ele>
        <time>2019-01-27T10:52:27Z</time>
      </trkpt>
      <trkpt lat="48.35146" lon="2.81166">
        <ele>50</ele>
        <time>2019-01-27T10:52:35Z</time>
      </trkpt>
      <trkpt lat="48.35143" lon="2.81159">
        <ele>50</ele>
        <time>2019-01-27T10:52:39Z</time>
      </trkpt>
      <trkpt lat="48.35137" lon="2.81146">
        <ele>50</ele>
        <time>2019-01-27T10:52:47Z</time>
      </trkpt>
      <trkpt lat="48.35134" lon="2.8114">
        <ele>50</ele>
        <time>2019-01-27T10:52:51Z</time>
      </trkpt>
      <trkpt lat="48.35127" lon="2.81119">
        <ele>50</ele>
        <time>2019-01-27T10:53:03Z</time>
      </trkpt>
      <trkpt lat="48.35124" lon="2.81112">
        <ele>50</ele>
        <time>2019-01-27T10:53:07Z</time>
      </trkpt>
      <trkpt lat="48.35114" lon="2.81084">
        <ele>51</ele>
        <time>2019-01-27T10:53:23Z</time>
      </trkpt>
      <trkpt lat="48.35105" lon="2.81072">
        <ele>52</ele>
        <time>2019-01-27T10:53:35Z</time>
      </trkpt>
      <trkpt lat="48.35102" lon="2.81066">
        <ele>52</ele>
        <time>2019-01-27T10:53:39Z</time>
      </trkpt>
      <trkpt lat="48.35101" lon="2.81058">
        <ele>53</ele>
        <time>2019-01-27T10:53:44Z</time>
      </trkpt>
      <trkpt lat="48.35102" lon="2.81051">
        <ele>54</ele>
        <time>2019-01-27T10:54:01Z</time>
      </trkpt>
      <trkpt lat="48.35098" lon="2.81048">
        <ele>54</ele>
        <time>2019-01-27T10:56:22Z</time>
      </trkpt>
      <trkpt lat="48.35092" lon="2.81051">
        <ele>53</ele>
        <time>2019-01-27T10:56:35Z</time>
      </trkpt>
      <trkpt lat="48.35076" lon="2.81064">
        <ele>53</ele>
        <time>2019-01-27T10:56:52Z</time>
      </trkpt>
      <trkpt lat="48.35071" lon="2.81065">
        <ele>53</ele>
        <time>2019-01-27T10:56:56Z</time>
      </trkpt>
      <trkpt lat="48.35065" lon="2.81067">
        <ele>53</ele>
        <time>2019-01-27T10:57:01Z</time>
      </trkpt>
      <trkpt lat="48.35057" lon="2.81073">
        <ele>53</ele>
        <time>2019-01-27T10:57:09Z</time>
      </trkpt>
      <trkpt lat="48.35053" lon="2.81077">
        <ele>53</ele>
        <time>2019-01-27T10:57:13Z</time>
      </trkpt>
      <trkpt lat="48.35046" lon="2.81087">
        <ele>53</ele>
        <time>2019-01-27T10:57:22Z</time>
      </trkpt>
      <trkpt lat="48.35044" lon="2.811">
        <ele>54</ele>
        <time>2019-01-27T10:57:33Z</time>
      </trkpt>
      <trkpt lat="48.35045" lon="2.81107">
        <ele>55</ele>
        <time>2019-01-27T10:57:37Z</time>
      </trkpt>
      <trkpt lat="48.35042" lon="2.81105">
        <ele>54</ele>
        <time>2019-01-27T10:58:01Z</time>
      </trkpt>
      <trkpt lat="48.35042" lon="2.81096">
        <ele>54</ele>
        <time>2019-01-27T10:58:13Z</time>
      </trkpt>
      <trkpt lat="48.35041" lon="2.81089">
        <ele>54</ele>
        <time>2019-01-27T10:58:17Z</time>
      </trkpt>
      <trkpt lat="48.35045" lon="2.8108">
        <ele>53</ele>
        <time>2019-01-27T10:58:30Z</time>
      </trkpt>
      <trkpt lat="48.35055" lon="2.81073">
        <ele>52</ele>
        <time>2019-01-27T10:58:40Z</time>
      </trkpt>
      <trkpt lat="48.35063" lon="2.81066">
        <ele>52</ele>
        <time>2019-01-27T10:58:49Z</time>
      </trkpt>
      <trkpt lat="48.35069" lon="2.81064">
        <ele>52</ele>
        <time>2019-01-27T10:58:54Z</time>
      </trkpt>
      <trkpt lat="48.35073" lon="2.81065">
        <ele>53</ele>
        <time>2019-01-27T10:58:57Z</time>
      </trkpt>
      <trkpt lat="48.35077" lon="2.8107">
        <ele>53</ele>
        <time>2019-01-27T10:59:01Z</time>
      </trkpt>
      <trkpt lat="48.35082" lon="2.81075">
        <ele>52</ele>
        <time>2019-01-27T10:59:05Z</time>
      </trkpt>
      <trkpt lat="48.35088" lon="2.81085">
        <ele>50</ele>
        <time>2019-01-27T10:59:14Z</time>
      </trkpt>
      <trkpt lat="48.35097" lon="2.81104">
        <ele>50</ele>
        <time>2019-01-27T10:59:27Z</time>
      </trkpt>
      <trkpt lat="48.35114" lon="2.81152">
        <ele>49</ele>
        <time>2019-01-27T10:59:56Z</time>
      </trkpt>
      <trkpt lat="48.35117" lon="2.81158">
        <ele>49</ele>
        <time>2019-01-27T11:00:00Z</time>
      </trkpt>
      <trkpt lat="48.35129" lon="2.81192">
        <ele>49</ele>
        <time>2019-01-27T11:00:23Z</time>
      </trkpt>
      <trkpt lat="48.35143" lon="2.81226">
        <ele>49</ele>
        <time>2019-01-27T11:00:46Z</time>
      </trkpt>
      <trkpt lat="48.35161" lon="2.81282">
        <ele>50</ele>
        <time>2019-01-27T11:01:18Z</time>
      </trkpt>
      <trkpt lat="48.35166" lon="2.81297">
        <ele>49</ele>
        <time>2019-01-27T11:01:26Z</time>
      </trkpt>
      <trkpt lat="48.35196" lon="2.81344">
        <ele>49</ele>
        <time>2019-01-27T11:01:59Z</time>
      </trkpt>
      <trkpt lat="48.35201" lon="2.81357">
        <ele>49</ele>
        <time>2019-01-27T11:02:07Z</time>
      </trkpt>
      <trkpt lat="48.35205" lon="2.81361">
        <ele>50</ele>
        <time>2019-01-27T11:02:10Z</time>
      </trkpt>
      <trkpt lat="48.35216" lon="2.81389">
        <ele>50</ele>
        <time>2019-01-27T11:02:26Z</time>
      </trkpt>
      <trkpt lat="48.35241" lon="2.81436">
        <ele>50</ele>
        <time>2019-01-27T11:02:58Z</time>
      </trkpt>
      <trkpt lat="48.35245" lon="2.8144">
        <ele>50</ele>
        <time>2019-01-27T11:03:02Z</time>
      </trkpt>
      <trkpt lat="48.35272" lon="2.81489">
        <ele>49</ele>
        <time>2019-01-27T11:03:35Z</time>
      </trkpt>
      <trkpt lat="48.35287" lon="2.8152">
        <ele>49</ele>
        <time>2019-01-27T11:03:56Z</time>
      </trkpt>
      <trkpt lat="48.35299" lon="2.81533">
        <ele>49</ele>
        <time>2019-01-27T11:04:07Z</time>
      </trkpt>
      <trkpt lat="48.35313" lon="2.81554">
        <ele>50</ele>
        <time>2019-01-27T11:04:22Z</time>
      </trkpt>
      <trkpt lat="48.35321" lon="2.81572">
        <ele>50</ele>
        <time>2019-01-27T11:04:34Z</time>
      </trkpt>
      <trkpt lat="48.35325" lon="2.81578">
        <ele>49</ele>
        <time>2019-01-27T11:04:38Z</time>
      </trkpt>
      <trkpt lat="48.35331" lon="2.8159">
        <ele>49</ele>
        <time>2019-01-27T11:04:46Z</time>
      </trkpt>
      <trkpt lat="48.35338" lon="2.81601">
        <ele>49</ele>
        <time>2019-01-27T11:04:55Z</time>
      </trkpt>
      <trkpt lat="48.3534" lon="2.81608">
        <ele>49</ele>
        <time>2019-01-27T11:05:00Z</time>
      </trkpt>
      <trkpt lat="48.35351" lon="2.81624">
        <ele>49</ele>
        <time>2019-01-27T11:05:12Z</time>
      </trkpt>
      <trkpt lat="48.35359" lon="2.81633">
        <ele>49</ele>
        <time>2019-01-27T11:05:20Z</time>
      </trkpt>
      <trkpt lat="48.35382" lon="2.81681">
        <ele>49</ele>
        <time>2019-01-27T11:05:54Z</time>
      </trkpt>
      <trkpt lat="48.35391" lon="2.8169">
        <ele>50</ele>
        <time>2019-01-27T11:06:02Z</time>
      </trkpt>
      <trkpt lat="48.35394" lon="2.81696">
        <ele>50</ele>
        <time>2019-01-27T11:06:06Z</time>
      </trkpt>
      <trkpt lat="48.35398" lon="2.81701">
        <ele>49</ele>
        <time>2019-01-27T11:06:10Z</time>
      </trkpt>
      <trkpt lat="48.35407" lon="2.81712">
        <ele>49</ele>
        <time>2019-01-27T11:06:19Z</time>
      </trkpt>
      <trkpt lat="48.35417" lon="2.81731">
        <ele>49</ele>
        <time>2019-01-27T11:06:37Z</time>
      </trkpt>
      <trkpt lat="48.35416" lon="2.8174">
        <ele>49</ele>
        <time>2019-01-27T11:06:43Z</time>
      </trkpt>
      <trkpt lat="48.35413" lon="2.81746">
        <ele>50</ele>
        <time>2019-01-27T11:06:47Z</time>
      </trkpt>
      <trkpt lat="48.35409" lon="2.81751">
        <ele>49</ele>
        <time>2019-01-27T11:06:51Z</time>
      </trkpt>
      <trkpt lat="48.35407" lon="2.81756">
        <ele>49</ele>
        <time>2019-01-27T11:06:55Z</time>
      </trkpt>
      <trkpt lat="48.35404" lon="2.81763">
        <ele>49</ele>
        <time>2019-01-27T11:07:00Z</time>
      </trkpt>
      <trkpt lat="48.35401" lon="2.81769">
        <ele>49</ele>
        <time>2019-01-27T11:07:04Z</time>
      </trkpt>
      <trkpt lat="48.35394" lon="2.81779">
        <ele>49</ele>
        <time>2019-01-27T11:07:14Z</time>
      </trkpt>
      <trkpt lat="48.3539" lon="2.81784">
        <ele>50</ele>
        <time>2019-01-27T11:07:19Z</time>
      </trkpt>
      <trkpt lat="48.35388" lon="2.81791">
        <ele>50</ele>
        <time>2019-01-27T11:07:24Z</time>
      </trkpt>
      <trkpt lat="48.35385" lon="2.81798">
        <ele>51</ele>
        <time>2019-01-27T11:07:29Z</time>
      </trkpt>
      <trkpt lat="48.35376" lon="2.81817">
        <ele>52</ele>
        <time>2019-01-27T11:07:43Z</time>
      </trkpt>
      <trkpt lat="48.35361" lon="2.81864">
        <ele>54</ele>
        <time>2019-01-27T11:08:15Z</time>
      </trkpt>
      <trkpt lat="48.35358" lon="2.8187">
        <ele>55</ele>
        <time>2019-01-27T11:08:20Z</time>
      </trkpt>
      <trkpt lat="48.35351" lon="2.81882">
        <ele>55</ele>
        <time>2019-01-27T11:08:30Z</time>
      </trkpt>
      <trkpt lat="48.35348" lon="2.81888">
        <ele>56</ele>
        <time>2019-01-27T11:08:34Z</time>
      </trkpt>
      <trkpt lat="48.3534" lon="2.81897">
        <ele>57</ele>
        <time>2019-01-27T11:08:44Z</time>
      </trkpt>
      <trkpt lat="48.35337" lon="2.81904">
        <ele>57</ele>
        <time>2019-01-27T11:08:48Z</time>
      </trkpt>
      <trkpt lat="48.35337" lon="2.81914">
        <ele>58</ele>
        <time>2019-01-27T11:08:59Z</time>
      </trkpt>
      <trkpt lat="48.35339" lon="2.81921">
        <ele>59</ele>
        <time>2019-01-27T11:09:03Z</time>
      </trkpt>
      <trkpt lat="48.35338" lon="2.81929">
        <ele>59</ele>
        <time>2019-01-27T11:09:08Z</time>
      </trkpt>
      <trkpt lat="48.35335" lon="2.81935">
        <ele>60</ele>
        <time>2019-01-27T11:09:12Z</time>
      </trkpt>
      <trkpt lat="48.35328" lon="2.81963">
        <ele>61</ele>
        <time>2019-01-27T11:09:30Z</time>
      </trkpt>
      <trkpt lat="48.35328" lon="2.82007">
        <ele>63</ele>
        <time>2019-01-27T11:09:55Z</time>
      </trkpt>
      <trkpt lat="48.35325" lon="2.82013">
        <ele>63</ele>
        <time>2019-01-27T11:10:00Z</time>
      </trkpt>
      <trkpt lat="48.35317" lon="2.82018">
        <ele>64</ele>
        <time>2019-01-27T11:10:08Z</time>
      </trkpt>
      <trkpt lat="48.35313" lon="2.82022">
        <ele>64</ele>
        <time>2019-01-27T11:10:12Z</time>
      </trkpt>
      <trkpt lat="48.35303" lon="2.82023">
        <ele>66</ele>
        <time>2019-01-27T11:10:26Z</time>
      </trkpt>
      <trkpt lat="48.3528" lon="2.82008">
        <ele>67</ele>
        <time>2019-01-27T11:10:46Z</time>
      </trkpt>
      <trkpt lat="48.35251" lon="2.81976">
        <ele>69</ele>
        <time>2019-01-27T11:11:18Z</time>
      </trkpt>
      <trkpt lat="48.35243" lon="2.81972">
        <ele>70</ele>
        <time>2019-01-27T11:11:32Z</time>
      </trkpt>
      <trkpt lat="48.35238" lon="2.81977">
        <ele>70</ele>
        <time>2019-01-27T11:11:43Z</time>
      </trkpt>
      <trkpt lat="48.3523" lon="2.82004">
        <ele>71</ele>
        <time>2019-01-27T11:12:02Z</time>
      </trkpt>
      <trkpt lat="48.35227" lon="2.82011">
        <ele>71</ele>
        <time>2019-01-27T11:12:07Z</time>
      </trkpt>
      <trkpt lat="48.35223" lon="2.82025">
        <ele>71</ele>
        <time>2019-01-27T11:12:17Z</time>
      </trkpt>
      <trkpt lat="48.3522" lon="2.82032">
        <ele>71</ele>
        <time>2019-01-27T11:12:22Z</time>
      </trkpt>
      <trkpt lat="48.35215" lon="2.82045">
        <ele>71</ele>
        <time>2019-01-27T11:12:31Z</time>
      </trkpt>
      <trkpt lat="48.35211" lon="2.8206">
        <ele>72</ele>
        <time>2019-01-27T11:12:41Z</time>
      </trkpt>
      <trkpt lat="48.35203" lon="2.8208">
        <ele>71</ele>
        <time>2019-01-27T11:12:53Z</time>
      </trkpt>
      <trkpt lat="48.35201" lon="2.8209">
        <ele>71</ele>
        <time>2019-01-27T11:13:25Z</time>
      </trkpt>
      <trkpt lat="48.35194" lon="2.82103">
        <ele>71</ele>
        <time>2019-01-27T11:13:33Z</time>
      </trkpt>
      <trkpt lat="48.35188" lon="2.82114">
        <ele>71</ele>
        <time>2019-01-27T11:13:40Z</time>
      </trkpt>
      <trkpt lat="48.3517" lon="2.82128">
        <ele>71</ele>
        <time>2019-01-27T11:13:56Z</time>
      </trkpt>
      <trkpt lat="48.35167" lon="2.82137">
        <ele>72</ele>
        <time>2019-01-27T11:14:06Z</time>
      </trkpt>
      <trkpt lat="48.35145" lon="2.82147">
        <ele>71</ele>
        <time>2019-01-27T11:14:26Z</time>
      </trkpt>
      <trkpt lat="48.3513" lon="2.82154">
        <ele>70</ele>
        <time>2019-01-27T11:14:38Z</time>
      </trkpt>
      <trkpt lat="48.35124" lon="2.82155">
        <ele>70</ele>
        <time>2019-01-27T11:14:42Z</time>
      </trkpt>
      <trkpt lat="48.3511" lon="2.82163">
        <ele>69</ele>
        <time>2019-01-27T11:14:53Z</time>
      </trkpt>
      <trkpt lat="48.35075" lon="2.82182">
        <ele>69</ele>
        <time>2019-01-27T11:15:22Z</time>
      </trkpt>
      <trkpt lat="48.3507" lon="2.82182">
        <ele>69</ele>
        <time>2019-01-27T11:15:26Z</time>
      </trkpt>
      <trkpt lat="48.35065" lon="2.82173">
        <ele>69</ele>
        <time>2019-01-27T11:15:35Z</time>
      </trkpt>
      <trkpt lat="48.35065" lon="2.82157">
        <ele>69</ele>
        <time>2019-01-27T11:15:44Z</time>
      </trkpt>
      <trkpt lat="48.35066" lon="2.8216">
        <ele>70</ele>
        <time>2019-01-27T11:16:23Z</time>
      </trkpt>
      <trkpt lat="48.35066" lon="2.82168">
        <ele>70</ele>
        <time>2019-01-27T11:16:27Z</time>
      </trkpt>
      <trkpt lat="48.35062" lon="2.82187">
        <ele>70</ele>
        <time>2019-01-27T11:16:41Z</time>
      </trkpt>
      <trkpt lat="48.35036" lon="2.82211">
        <ele>70</ele>
        <time>2019-01-27T11:17:12Z</time>
      </trkpt>
      <trkpt lat="48.35" lon="2.82237">
        <ele>72</ele>
        <time>2019-01-27T11:17:45Z</time>
      </trkpt>
      <trkpt lat="48.34996" lon="2.8224">
        <ele>72</ele>
        <time>2019-01-27T11:17:50Z</time>
      </trkpt>
      <trkpt lat="48.34991" lon="2.82241">
        <ele>72</ele>
        <time>2019-01-27T11:17:54Z</time>
      </trkpt>
      <trkpt lat="48.34987" lon="2.82244">
        <ele>72</ele>
        <time>2019-01-27T11:17:58Z</time>
      </trkpt>
      <trkpt lat="48.34951" lon="2.82269">
        <ele>75</ele>
        <time>2019-01-27T11:18:30Z</time>
      </trkpt>
      <trkpt lat="48.34924" lon="2.82289">
        <ele>77</ele>
        <time>2019-01-27T11:18:54Z</time>
      </trkpt>
      <trkpt lat="48.34905" lon="2.82295">
        <ele>78</ele>
        <time>2019-01-27T11:19:10Z</time>
      </trkpt>
      <trkpt lat="48.349" lon="2.82293">
        <ele>78</ele>
        <time>2019-01-27T11:19:14Z</time>
      </trkpt>
      <trkpt lat="48.34898" lon="2.82286">
        <ele>78</ele>
        <time>2019-01-27T11:19:19Z</time>
      </trkpt>
      <trkpt lat="48.34898" lon="2.82279">
        <ele>78</ele>
        <time>2019-01-27T11:19:24Z</time>
      </trkpt>
      <trkpt lat="48.34896" lon="2.82272">
        <ele>78</ele>
        <time>2019-01-27T11:19:32Z</time>
      </trkpt>
      <trkpt lat="48.34897" lon="2.82256">
        <ele>77</ele>
        <time>2019-01-27T11:19:41Z</time>
      </trkpt>
      <trkpt lat="48.34901" lon="2.82226">
        <ele>79</ele>
        <time>2019-01-27T11:20:00Z</time>
      </trkpt>
      <trkpt lat="48.34901" lon="2.82189">
        <ele>79</ele>
        <time>2019-01-27T11:20:23Z</time>
      </trkpt>
      <trkpt lat="48.34901" lon="2.82174">
        <ele>79</ele>
        <time>2019-01-27T11:20:31Z</time>
      </trkpt>
      <trkpt lat="48.34902" lon="2.82167">
        <ele>79</ele>
        <time>2019-01-27T11:20:35Z</time>
      </trkpt>
      <trkpt lat="48.34903" lon="2.82145">
        <ele>79</ele>
        <time>2019-01-27T11:20:47Z</time>
      </trkpt>
      <trkpt lat="48.34903" lon="2.82138">
        <ele>79</ele>
        <time>2019-01-27T11:20:51Z</time>
      </trkpt>
      <trkpt lat="48.34903" lon="2.82124">
        <ele>79</ele>
        <time>2019-01-27T11:20:59Z</time>
      </trkpt>
      <trkpt lat="48.34904" lon="2.82116">
        <ele>79</ele>
        <time>2019-01-27T11:21:04Z</time>
      </trkpt>
      <trkpt lat="48.34904" lon="2.82102">
        <ele>79</ele>
        <time>2019-01-27T11:21:12Z</time>
      </trkpt>
      <trkpt lat="48.34904" lon="2.82079">
        <ele>80</ele>
        <time>2019-01-27T11:21:24Z</time>
      </trkpt>
      <trkpt lat="48.34901" lon="2.82073">
        <ele>80</ele>
        <time>2019-01-27T11:21:29Z</time>
      </trkpt>
      <trkpt lat="48.34897" lon="2.8207">
        <ele>81</ele>
        <time>2019-01-27T11:21:33Z</time>
      </trkpt>
      <trkpt lat="48.34886" lon="2.82068">
        <ele>82</ele>
        <time>2019-01-27T11:21:41Z</time>
      </trkpt>
      <trkpt lat="48.34876" lon="2.82067">
        <ele>82</ele>
        <time>2019-01-27T11:21:48Z</time>
      </trkpt>
      <trkpt lat="48.34871" lon="2.82067">
        <ele>83</ele>
        <time>2019-01-27T11:21:52Z</time>
      </trkpt>
      <trkpt lat="48.34861" lon="2.82066">
        <ele>83</ele>
        <time>2019-01-27T11:22:00Z</time>
      </trkpt>
      <trkpt lat="48.34856" lon="2.82066">
        <ele>84</ele>
        <time>2019-01-27T11:22:04Z</time>
      </trkpt>
      <trkpt lat="48.34842" lon="2.82064">
        <ele>84</ele>
        <time>2019-01-27T11:22:16Z</time>
      </trkpt>
      <trkpt lat="48.34837" lon="2.82064">
        <ele>85</ele>
        <time>2019-01-27T11:22:21Z</time>
      </trkpt>
      <trkpt lat="48.34801" lon="2.82063">
        <ele>87</ele>
        <time>2019-01-27T11:22:53Z</time>
      </trkpt>
      <trkpt lat="48.34792" lon="2.82061">
        <ele>86</ele>
        <time>2019-01-27T11:23:01Z</time>
      </trkpt>
      <trkpt lat="48.34751" lon="2.82058">
        <ele>88</ele>
        <time>2019-01-27T11:23:34Z</time>
      </trkpt>
      <trkpt lat="48.34741" lon="2.82058">
        <ele>89</ele>
        <time>2019-01-27T11:23:42Z</time>
      </trkpt>
      <trkpt lat="48.34726" lon="2.82061">
        <ele>88</ele>
        <time>2019-01-27T11:23:54Z</time>
      </trkpt>
      <trkpt lat="48.34717" lon="2.82065">
        <ele>89</ele>
        <time>2019-01-27T11:24:03Z</time>
      </trkpt>
      <trkpt lat="48.34711" lon="2.82068">
        <ele>89</ele>
        <time>2019-01-27T11:24:08Z</time>
      </trkpt>
      <trkpt lat="48.34702" lon="2.82073">
        <ele>88</ele>
        <time>2019-01-27T11:24:18Z</time>
      </trkpt>
      <trkpt lat="48.34697" lon="2.82074">
        <ele>88</ele>
        <time>2019-01-27T11:24:22Z</time>
      </trkpt>
      <trkpt lat="48.34691" lon="2.8208">
        <ele>89</ele>
        <time>2019-01-27T11:24:31Z</time>
      </trkpt>
      <trkpt lat="48.3465" lon="2.82089">
        <ele>89</ele>
        <time>2019-01-27T11:25:06Z</time>
      </trkpt>
      <trkpt lat="48.34645" lon="2.8209">
        <ele>90</ele>
        <time>2019-01-27T11:25:11Z</time>
      </trkpt>
      <trkpt lat="48.34614" lon="2.82098">
        <ele>91</ele>
        <time>2019-01-27T11:25:35Z</time>
      </trkpt>
      <trkpt lat="48.34609" lon="2.82099">
        <ele>90</ele>
        <time>2019-01-27T11:25:39Z</time>
      </trkpt>
      <trkpt lat="48.34604" lon="2.821">
        <ele>91</ele>
        <time>2019-01-27T11:25:43Z</time>
      </trkpt>
      <trkpt lat="48.34594" lon="2.82104">
        <ele>90</ele>
        <time>2019-01-27T11:25:53Z</time>
      </trkpt>
      <trkpt lat="48.34586" lon="2.82107">
        <ele>91</ele>
        <time>2019-01-27T11:26:01Z</time>
      </trkpt>
      <trkpt lat="48.34572" lon="2.82111">
        <ele>91</ele>
        <time>2019-01-27T11:26:13Z</time>
      </trkpt>
      <trkpt lat="48.34566" lon="2.82111">
        <ele>92</ele>
        <time>2019-01-27T11:26:18Z</time>
      </trkpt>
      <trkpt lat="48.34542" lon="2.82119">
        <ele>93</ele>
        <time>2019-01-27T11:26:40Z</time>
      </trkpt>
      <trkpt lat="48.34537" lon="2.82121">
        <ele>93</ele>
        <time>2019-01-27T11:26:45Z</time>
      </trkpt>
      <trkpt lat="48.34532" lon="2.82124">
        <ele>94</ele>
        <time>2019-01-27T11:26:49Z</time>
      </trkpt>
      <trkpt lat="48.34527" lon="2.82126">
        <ele>94</ele>
        <time>2019-01-27T11:26:53Z</time>
      </trkpt>
      <trkpt lat="48.34523" lon="2.82128">
        <ele>94</ele>
        <time>2019-01-27T11:26:57Z</time>
      </trkpt>
      <trkpt lat="48.34518" lon="2.8213">
        <ele>94</ele>
        <time>2019-01-27T11:27:01Z</time>
      </trkpt>
      <trkpt lat="48.3451" lon="2.82137">
        <ele>93</ele>
        <time>2019-01-27T11:27:10Z</time>
      </trkpt>
      <trkpt lat="48.34505" lon="2.82141">
        <ele>94</ele>
        <time>2019-01-27T11:27:14Z</time>
      </trkpt>
      <trkpt lat="48.34497" lon="2.82148">
        <ele>94</ele>
        <time>2019-01-27T11:27:22Z</time>
      </trkpt>
      <trkpt lat="48.34492" lon="2.82151">
        <ele>94</ele>
        <time>2019-01-27T11:27:27Z</time>
      </trkpt>
      <trkpt lat="48.34488" lon="2.82155">
        <ele>93</ele>
        <time>2019-01-27T11:27:32Z</time>
      </trkpt>
      <trkpt lat="48.34485" lon="2.82161">
        <ele>94</ele>
        <time>2019-01-27T11:27:37Z</time>
      </trkpt>
      <trkpt lat="48.34462" lon="2.82176">
        <ele>93</ele>
        <time>2019-01-27T11:27:57Z</time>
      </trkpt>
      <trkpt lat="48.34459" lon="2.8218">
        <ele>94</ele>
        <time>2019-01-27T11:28:01Z</time>
      </trkpt>
      <trkpt lat="48.34446" lon="2.82191">
        <ele>94</ele>
        <time>2019-01-27T11:28:13Z</time>
      </trkpt>
      <trkpt lat="48.34437" lon="2.82196">
        <ele>94</ele>
        <time>2019-01-27T11:28:21Z</time>
      </trkpt>
      <trkpt lat="48.34433" lon="2.822">
        <ele>94</ele>
        <time>2019-01-27T11:28:25Z</time>
      </trkpt>
      <trkpt lat="48.34399" lon="2.82229">
        <ele>94</ele>
        <time>2019-01-27T11:28:57Z</time>
      </trkpt>
      <trkpt lat="48.34395" lon="2.82233">
        <ele>94</ele>
        <time>2019-01-27T11:29:01Z</time>
      </trkpt>
      <trkpt lat="48.34369" lon="2.82257">
        <ele>95</ele>
        <time>2019-01-27T11:29:25Z</time>
      </trkpt>
      <trkpt lat="48.34365" lon="2.82262">
        <ele>94</ele>
        <time>2019-01-27T11:29:29Z</time>
      </trkpt>
      <trkpt lat="48.34361" lon="2.82265">
        <ele>94</ele>
        <time>2019-01-27T11:29:33Z</time>
      </trkpt>
      <trkpt lat="48.34356" lon="2.82269">
        <ele>95</ele>
        <time>2019-01-27T11:29:37Z</time>
      </trkpt>
      <trkpt lat="48.34347" lon="2.82276">
        <ele>95</ele>
        <time>2019-01-27T11:29:45Z</time>
      </trkpt>
      <trkpt lat="48.34328" lon="2.8229">
        <ele>95</ele>
        <time>2019-01-27T11:30:02Z</time>
      </trkpt>
      <trkpt lat="48.34319" lon="2.82295">
        <ele>95</ele>
        <time>2019-01-27T11:30:10Z</time>
      </trkpt>
      <trkpt lat="48.3431" lon="2.82303">
        <ele>95</ele>
        <time>2019-01-27T11:30:18Z</time>
      </trkpt>
      <trkpt lat="48.34306" lon="2.82307">
        <ele>95</ele>
        <time>2019-01-27T11:30:22Z</time>
      </trkpt>
      <trkpt lat="48.34302" lon="2.82311">
        <ele>95</ele>
        <time>2019-01-27T11:30:26Z</time>
      </trkpt>
      <trkpt lat="48.34293" lon="2.82318">
        <ele>95</ele>
        <time>2019-01-27T11:30:34Z</time>
      </trkpt>
      <trkpt lat="48.34271" lon="2.82337">
        <ele>95</ele>
        <time>2019-01-27T11:30:54Z</time>
      </trkpt>
      <trkpt lat="48.34266" lon="2.82341">
        <ele>95</ele>
        <time>2019-01-27T11:30:59Z</time>
      </trkpt>
      <trkpt lat="48.34248" lon="2.82354">
        <ele>95</ele>
        <time>2019-01-27T11:31:15Z</time>
      </trkpt>
      <trkpt lat="48.34229" lon="2.82365">
        <ele>95</ele>
        <time>2019-01-27T11:31:30Z</time>
      </trkpt>
      <trkpt lat="48.34225" lon="2.82369">
        <ele>95</ele>
        <time>2019-01-27T11:31:34Z</time>
      </trkpt>
      <trkpt lat="48.3419" lon="2.82403">
        <ele>95</ele>
        <time>2019-01-27T11:32:06Z</time>
      </trkpt>
      <trkpt lat="48.34154" lon="2.82431">
        <ele>95</ele>
        <time>2019-01-27T11:32:40Z</time>
      </trkpt>
      <trkpt lat="48.3414" lon="2.82445">
        <ele>94</ele>
        <time>2019-01-27T11:32:56Z</time>
      </trkpt>
      <trkpt lat="48.34136" lon="2.82449">
        <ele>94</ele>
        <time>2019-01-27T11:33:00Z</time>
      </trkpt>
      <trkpt lat="48.34132" lon="2.82453">
        <ele>94</ele>
        <time>2019-01-27T11:33:04Z</time>
      </trkpt>
      <trkpt lat="48.34127" lon="2.82456">
        <ele>95</ele>
        <time>2019-01-27T11:33:09Z</time>
      </trkpt>
      <trkpt lat="48.34095" lon="2.82483">
        <ele>94</ele>
        <time>2019-01-27T11:33:40Z</time>
      </trkpt>
      <trkpt lat="48.34087" lon="2.82492">
        <ele>94</ele>
        <time>2019-01-27T11:33:49Z</time>
      </trkpt>
      <trkpt lat="48.34076" lon="2.82499">
        <ele>93</ele>
        <time>2019-01-27T11:34:01Z</time>
      </trkpt>
      <trkpt lat="48.34067" lon="2.82507">
        <ele>93</ele>
        <time>2019-01-27T11:34:11Z</time>
      </trkpt>
      <trkpt lat="48.34059" lon="2.82512">
        <ele>93</ele>
        <time>2019-01-27T11:34:21Z</time>
      </trkpt>
      <trkpt lat="48.34032" lon="2.82537">
        <ele>92</ele>
        <time>2019-01-27T11:34:49Z</time>
      </trkpt>
      <trkpt lat="48.34028" lon="2.82541">
        <ele>92</ele>
        <time>2019-01-27T11:34:53Z</time>
      </trkpt>
      <trkpt lat="48.34023" lon="2.82543">
        <ele>92</ele>
        <time>2019-01-27T11:34:58Z</time>
      </trkpt>
      <trkpt lat="48.34" lon="2.82559">
        <ele>91</ele>
        <time>2019-01-27T11:35:18Z</time>
      </trkpt>
      <trkpt lat="48.33995" lon="2.82559">
        <ele>91</ele>
        <time>2019-01-27T11:35:22Z</time>
      </trkpt>
      <trkpt lat="48.33981" lon="2.82556">
        <ele>89</ele>
        <time>2019-01-27T11:35:34Z</time>
      </trkpt>
      <trkpt lat="48.33975" lon="2.82554">
        <ele>89</ele>
        <time>2019-01-27T11:35:39Z</time>
      </trkpt>
      <trkpt lat="48.33971" lon="2.82552">
        <ele>89</ele>
        <time>2019-01-27T11:35:43Z</time>
      </trkpt>
      <trkpt lat="48.33966" lon="2.8255">
        <ele>89</ele>
        <time>2019-01-27T11:35:47Z</time>
      </trkpt>
      <trkpt lat="48.33961" lon="2.82548">
        <ele>89</ele>
        <time>2019-01-27T11:35:52Z</time>
      </trkpt>
      <trkpt lat="48.33952" lon="2.82542">
        <ele>89</ele>
        <time>2019-01-27T11:36:00Z</time>
      </trkpt>
      <trkpt lat="48.33948" lon="2.82538">
        <ele>88</ele>
        <time>2019-01-27T11:36:04Z</time>
      </trkpt>
      <trkpt lat="48.33938" lon="2.82531">
        <ele>88</ele>
        <time>2019-01-27T11:36:12Z</time>
      </trkpt>
      <trkpt lat="48.33933" lon="2.82529">
        <ele>88</ele>
        <time>2019-01-27T11:36:16Z</time>
      </trkpt>
      <trkpt lat="48.33927" lon="2.82527">
        <ele>88</ele>
        <time>2019-01-27T11:36:20Z</time>
      </trkpt>
      <trkpt lat="48.33922" lon="2.82524">
        <ele>88</ele>
        <time>2019-01-27T11:36:24Z</time>
      </trkpt>
      <trkpt lat="48.33913" lon="2.82519">
        <ele>87</ele>
        <time>2019-01-27T11:36:32Z</time>
      </trkpt>
      <trkpt lat="48.33908" lon="2.82516">
        <ele>88</ele>
        <time>2019-01-27T11:36:37Z</time>
      </trkpt>
      <trkpt lat="48.33894" lon="2.8251">
        <ele>88</ele>
        <time>2019-01-27T11:36:49Z</time>
      </trkpt>
      <trkpt lat="48.3389" lon="2.82508">
        <ele>87</ele>
        <time>2019-01-27T11:36:53Z</time>
      </trkpt>
      <trkpt lat="48.33885" lon="2.82505">
        <ele>87</ele>
        <time>2019-01-27T11:36:57Z</time>
      </trkpt>
      <trkpt lat="48.33875" lon="2.82501">
        <ele>87</ele>
        <time>2019-01-27T11:37:05Z</time>
      </trkpt>
      <trkpt lat="48.33867" lon="2.82498">
        <ele>88</ele>
        <time>2019-01-27T11:37:25Z</time>
      </trkpt>
      <trkpt lat="48.33862" lon="2.82493">
        <ele>88</ele>
        <time>2019-01-27T11:37:37Z</time>
      </trkpt>
      <trkpt lat="48.33857" lon="2.82492">
        <ele>88</ele>
        <time>2019-01-27T11:37:43Z</time>
      </trkpt>
      <trkpt lat="48.33848" lon="2.82489">
        <ele>88</ele>
        <time>2019-01-27T11:37:51Z</time>
      </trkpt>
      <trkpt lat="48.33843" lon="2.8249">
        <ele>88</ele>
        <time>2019-01-27T11:37:55Z</time>
      </trkpt>
      <trkpt lat="48.33808" lon="2.82498">
        <ele>86</ele>
        <time>2019-01-27T11:38:25Z</time>
      </trkpt>
      <trkpt lat="48.33803" lon="2.82499">
        <ele>86</ele>
        <time>2019-01-27T11:38:29Z</time>
      </trkpt>
      <trkpt lat="48.33793" lon="2.82502">
        <ele>85</ele>
        <time>2019-01-27T11:38:38Z</time>
      </trkpt>
      <trkpt lat="48.33788" lon="2.82503">
        <ele>85</ele>
        <time>2019-01-27T11:38:42Z</time>
      </trkpt>
      <trkpt lat="48.33778" lon="2.82505">
        <ele>86</ele>
        <time>2019-01-27T11:38:50Z</time>
      </trkpt>
      <trkpt lat="48.33768" lon="2.82508">
        <ele>86</ele>
        <time>2019-01-27T11:38:58Z</time>
      </trkpt>
      <trkpt lat="48.3376" lon="2.82512">
        <ele>85</ele>
        <time>2019-01-27T11:39:06Z</time>
      </trkpt>
      <trkpt lat="48.33754" lon="2.82514">
        <ele>85</ele>
        <time>2019-01-27T11:39:10Z</time>
      </trkpt>
      <trkpt lat="48.3375" lon="2.82515">
        <ele>84</ele>
        <time>2019-01-27T11:39:14Z</time>
      </trkpt>
      <trkpt lat="48.33736" lon="2.8252">
        <ele>85</ele>
        <time>2019-01-27T11:39:26Z</time>
      </trkpt>
      <trkpt lat="48.33717" lon="2.82527">
        <ele>83</ele>
        <time>2019-01-27T11:39:42Z</time>
      </trkpt>
      <trkpt lat="48.33712" lon="2.82528">
        <ele>83</ele>
        <time>2019-01-27T11:39:46Z</time>
      </trkpt>
      <trkpt lat="48.33697" lon="2.82535">
        <ele>81</ele>
        <time>2019-01-27T11:39:58Z</time>
      </trkpt>
      <trkpt lat="48.33692" lon="2.82536">
        <ele>81</ele>
        <time>2019-01-27T11:40:02Z</time>
      </trkpt>
      <trkpt lat="48.33678" lon="2.82541">
        <ele>81</ele>
        <time>2019-01-27T11:40:14Z</time>
      </trkpt>
      <trkpt lat="48.33675" lon="2.82552">
        <ele>80</ele>
        <time>2019-01-27T11:40:57Z</time>
      </trkpt>
      <trkpt lat="48.3367" lon="2.82541">
        <ele>79</ele>
        <time>2019-01-27T11:41:21Z</time>
      </trkpt>
      <trkpt lat="48.3366" lon="2.82544">
        <ele>80</ele>
        <time>2019-01-27T11:41:30Z</time>
      </trkpt>
      <trkpt lat="48.33649" lon="2.82551">
        <ele>80</ele>
        <time>2019-01-27T11:41:39Z</time>
      </trkpt>
      <trkpt lat="48.33641" lon="2.82554">
        <ele>81</ele>
        <time>2019-01-27T11:41:46Z</time>
      </trkpt>
      <trkpt lat="48.33636" lon="2.82557">
        <ele>80</ele>
        <time>2019-01-27T11:41:50Z</time>
      </trkpt>
      <trkpt lat="48.33628" lon="2.82561">
        <ele>81</ele>
        <time>2019-01-27T11:42:00Z</time>
      </trkpt>
      <trkpt lat="48.33622" lon="2.82561">
        <ele>81</ele>
        <time>2019-01-27T11:42:04Z</time>
      </trkpt>
      <trkpt lat="48.33617" lon="2.82562">
        <ele>80</ele>
        <time>2019-01-27T11:42:08Z</time>
      </trkpt>
      <trkpt lat="48.33606" lon="2.82566">
        <ele>80</ele>
        <time>2019-01-27T11:42:16Z</time>
      </trkpt>
      <trkpt lat="48.33601" lon="2.82568">
        <ele>80</ele>
        <time>2019-01-27T11:42:20Z</time>
      </trkpt>
      <trkpt lat="48.33597" lon="2.82568">
        <ele>80</ele>
        <time>2019-01-27T11:42:24Z</time>
      </trkpt>
      <trkpt lat="48.33592" lon="2.8257">
        <ele>80</ele>
        <time>2019-01-27T11:42:28Z</time>
      </trkpt>
      <trkpt lat="48.33588" lon="2.82574">
        <ele>80</ele>
        <time>2019-01-27T11:42:31Z</time>
      </trkpt>
      <trkpt lat="48.33583" lon="2.82577">
        <ele>80</ele>
        <time>2019-01-27T11:42:35Z</time>
      </trkpt>
      <trkpt lat="48.33573" lon="2.82579">
        <ele>80</ele>
        <time>2019-01-27T11:42:44Z</time>
      </trkpt>
      <trkpt lat="48.33558" lon="2.82585">
        <ele>80</ele>
        <time>2019-01-27T11:42:56Z</time>
      </trkpt>
      <trkpt lat="48.33553" lon="2.82587">
        <ele>81</ele>
        <time>2019-01-27T11:43:00Z</time>
      </trkpt>
      <trkpt lat="48.33543" lon="2.8259">
        <ele>81</ele>
        <time>2019-01-27T11:43:08Z</time>
      </trkpt>
      <trkpt lat="48.33539" lon="2.82592">
        <ele>81</ele>
        <time>2019-01-27T11:43:12Z</time>
      </trkpt>
      <trkpt lat="48.33514" lon="2.82603">
        <ele>81</ele>
        <time>2019-01-27T11:43:36Z</time>
      </trkpt>
      <trkpt lat="48.33508" lon="2.82606">
        <ele>82</ele>
        <time>2019-01-27T11:43:41Z</time>
      </trkpt>
      <trkpt lat="48.33504" lon="2.82608">
        <ele>81</ele>
        <time>2019-01-27T11:43:45Z</time>
      </trkpt>
      <trkpt lat="48.33485" lon="2.82616">
        <ele>82</ele>
        <time>2019-01-27T11:44:00Z</time>
      </trkpt>
      <trkpt lat="48.3348" lon="2.82615">
        <ele>80</ele>
        <time>2019-01-27T11:44:05Z</time>
      </trkpt>
      <trkpt lat="48.3347" lon="2.8262">
        <ele>81</ele>
        <time>2019-01-27T11:44:13Z</time>
      </trkpt>
      <trkpt lat="48.33465" lon="2.8262">
        <ele>81</ele>
        <time>2019-01-27T11:44:17Z</time>
      </trkpt>
      <trkpt lat="48.3346" lon="2.82622">
        <ele>81</ele>
        <time>2019-01-27T11:44:22Z</time>
      </trkpt>
      <trkpt lat="48.33426" lon="2.82634">
        <ele>82</ele>
        <time>2019-01-27T11:44:49Z</time>
      </trkpt>
      <trkpt lat="48.33413" lon="2.82644">
        <ele>82</ele>
        <time>2019-01-27T11:45:00Z</time>
      </trkpt>
      <trkpt lat="48.33408" lon="2.82646">
        <ele>81</ele>
        <time>2019-01-27T11:45:05Z</time>
      </trkpt>
      <trkpt lat="48.33389" lon="2.82651">
        <ele>81</ele>
        <time>2019-01-27T11:45:21Z</time>
      </trkpt>
      <trkpt lat="48.33384" lon="2.82652">
        <ele>82</ele>
        <time>2019-01-27T11:45:26Z</time>
      </trkpt>
      <trkpt lat="48.33379" lon="2.82654">
        <ele>82</ele>
        <time>2019-01-27T11:45:30Z</time>
      </trkpt>
      <trkpt lat="48.3337" lon="2.82656">
        <ele>82</ele>
        <time>2019-01-27T11:45:39Z</time>
      </trkpt>
      <trkpt lat="48.33366" lon="2.82663">
        <ele>82</ele>
        <time>2019-01-27T11:45:44Z</time>
      </trkpt>
      <trkpt lat="48.33364" lon="2.82669">
        <ele>81</ele>
        <time>2019-01-27T11:45:48Z</time>
      </trkpt>
      <trkpt lat="48.33361" lon="2.8267">
        <ele>82</ele>
        <time>2019-01-27T11:47:31Z</time>
      </trkpt>
      <trkpt lat="48.33367" lon="2.82676">
        <ele>83</ele>
        <time>2019-01-27T11:50:09Z</time>
      </trkpt>
      <trkpt lat="48.33369" lon="2.82691">
        <ele>82</ele>
        <time>2019-01-27T11:50:17Z</time>
      </trkpt>
      <trkpt lat="48.33385" lon="2.82721">
        <ele>80</ele>
        <time>2019-01-27T11:50:39Z</time>
      </trkpt>
      <trkpt lat="48.33412" lon="2.82765">
        <ele>78</ele>
        <time>2019-01-27T11:51:14Z</time>
      </trkpt>
      <trkpt lat="48.33432" lon="2.82801">
        <ele>76</ele>
        <time>2019-01-27T11:51:39Z</time>
      </trkpt>
      <trkpt lat="48.33448" lon="2.82832">
        <ele>76</ele>
        <time>2019-01-27T11:52:00Z</time>
      </trkpt>
      <trkpt lat="48.3345" lon="2.82838">
        <ele>76</ele>
        <time>2019-01-27T11:52:04Z</time>
      </trkpt>
      <trkpt lat="48.33478" lon="2.82888">
        <ele>75</ele>
        <time>2019-01-27T11:52:36Z</time>
      </trkpt>
      <trkpt lat="48.33485" lon="2.82898">
        <ele>74</ele>
        <time>2019-01-27T11:52:43Z</time>
      </trkpt>
      <trkpt lat="48.33499" lon="2.82923">
        <ele>74</ele>
        <time>2019-01-27T11:52:59Z</time>
      </trkpt>
      <trkpt lat="48.33501" lon="2.82929">
        <ele>74</ele>
        <time>2019-01-27T11:53:03Z</time>
      </trkpt>
      <trkpt lat="48.33505" lon="2.82936">
        <ele>73</ele>
        <time>2019-01-27T11:53:07Z</time>
      </trkpt>
      <trkpt lat="48.3351" lon="2.82948">
        <ele>73</ele>
        <time>2019-01-27T11:53:16Z</time>
      </trkpt>
      <trkpt lat="48.33518" lon="2.82959">
        <ele>73</ele>
        <time>2019-01-27T11:53:23Z</time>
      </trkpt>
      <trkpt lat="48.33539" lon="2.83004">
        <ele>72</ele>
        <time>2019-01-27T11:53:51Z</time>
      </trkpt>
      <trkpt lat="48.33542" lon="2.83011">
        <ele>72</ele>
        <time>2019-01-27T11:53:55Z</time>
      </trkpt>
      <trkpt lat="48.33544" lon="2.83017">
        <ele>71</ele>
        <time>2019-01-27T11:53:59Z</time>
      </trkpt>
      <trkpt lat="48.33567" lon="2.83058">
        <ele>71</ele>
        <time>2019-01-27T11:54:29Z</time>
      </trkpt>
      <trkpt lat="48.33569" lon="2.83065">
        <ele>71</ele>
        <time>2019-01-27T11:54:33Z</time>
      </trkpt>
      <trkpt lat="48.33581" lon="2.83092">
        <ele>71</ele>
        <time>2019-01-27T11:54:49Z</time>
      </trkpt>
      <trkpt lat="48.33605" lon="2.83144">
        <ele>71</ele>
        <time>2019-01-27T11:55:20Z</time>
      </trkpt>
      <trkpt lat="48.33624" lon="2.83184">
        <ele>70</ele>
        <time>2019-01-27T11:55:44Z</time>
      </trkpt>
      <trkpt lat="48.3363" lon="2.83196">
        <ele>70</ele>
        <time>2019-01-27T11:55:52Z</time>
      </trkpt>
      <trkpt lat="48.33634" lon="2.8321">
        <ele>70</ele>
        <time>2019-01-27T11:56:00Z</time>
      </trkpt>
      <trkpt lat="48.33639" lon="2.83222">
        <ele>70</ele>
        <time>2019-01-27T11:56:08Z</time>
      </trkpt>
      <trkpt lat="48.33638" lon="2.83253">
        <ele>70</ele>
        <time>2019-01-27T11:56:29Z</time>
      </trkpt>
      <trkpt lat="48.33629" lon="2.83315">
        <ele>71</ele>
        <time>2019-01-27T11:57:02Z</time>
      </trkpt>
      <trkpt lat="48.33628" lon="2.8333">
        <ele>72</ele>
        <time>2019-01-27T11:57:11Z</time>
      </trkpt>
      <trkpt lat="48.33624" lon="2.83363">
        <ele>72</ele>
        <time>2019-01-27T11:57:29Z</time>
      </trkpt>
      <trkpt lat="48.33625" lon="2.83369">
        <ele>73</ele>
        <time>2019-01-27T11:57:32Z</time>
      </trkpt>
      <trkpt lat="48.33643" lon="2.83407">
        <ele>72</ele>
        <time>2019-01-27T11:57:54Z</time>
      </trkpt>
      <trkpt lat="48.33653" lon="2.8345">
        <ele>70</ele>
        <time>2019-01-27T11:58:17Z</time>
      </trkpt>
      <trkpt lat="48.33658" lon="2.83463">
        <ele>71</ele>
        <time>2019-01-27T11:58:24Z</time>
      </trkpt>
      <trkpt lat="48.33661" lon="2.83475">
        <ele>71</ele>
        <time>2019-01-27T11:58:31Z</time>
      </trkpt>
      <trkpt lat="48.33667" lon="2.83487">
        <ele>70</ele>
        <time>2019-01-27T11:58:37Z</time>
      </trkpt>
      <trkpt lat="48.33673" lon="2.83506">
        <ele>70</ele>
        <time>2019-01-27T11:58:48Z</time>
      </trkpt>
      <trkpt lat="48.33678" lon="2.83522">
        <ele>70</ele>
        <time>2019-01-27T11:58:56Z</time>
      </trkpt>
      <trkpt lat="48.33684" lon="2.83535">
        <ele>69</ele>
        <time>2019-01-27T11:59:05Z</time>
      </trkpt>
      <trkpt lat="48.33688" lon="2.8355">
        <ele>70</ele>
        <time>2019-01-27T11:59:13Z</time>
      </trkpt>
      <trkpt lat="48.33689" lon="2.83558">
        <ele>69</ele>
        <time>2019-01-27T11:59:17Z</time>
      </trkpt>
      <trkpt lat="48.33698" lon="2.83585">
        <ele>70</ele>
        <time>2019-01-27T11:59:34Z</time>
      </trkpt>
      <trkpt lat="48.33704" lon="2.83598">
        <ele>69</ele>
        <time>2019-01-27T11:59:42Z</time>
      </trkpt>
      <trkpt lat="48.3371" lon="2.83622">
        <ele>69</ele>
        <time>2019-01-27T11:59:54Z</time>
      </trkpt>
      <trkpt lat="48.33715" lon="2.83634">
        <ele>70</ele>
        <time>2019-01-27T12:00:01Z</time>
      </trkpt>
      <trkpt lat="48.33721" lon="2.83666">
        <ele>70</ele>
        <time>2019-01-27T12:00:18Z</time>
      </trkpt>
      <trkpt lat="48.33726" lon="2.83679">
        <ele>70</ele>
        <time>2019-01-27T12:00:26Z</time>
      </trkpt>
      <trkpt lat="48.33734" lon="2.83689">
        <ele>70</ele>
        <time>2019-01-27T12:00:34Z</time>
      </trkpt>
      <trkpt lat="48.33742" lon="2.837">
        <ele>69</ele>
        <time>2019-01-27T12:00:42Z</time>
      </trkpt>
      <trkpt lat="48.33748" lon="2.83712">
        <ele>69</ele>
        <time>2019-01-27T12:00:49Z</time>
      </trkpt>
      <trkpt lat="48.33751" lon="2.83718">
        <ele>70</ele>
        <time>2019-01-27T12:00:53Z</time>
      </trkpt>
      <trkpt lat="48.33753" lon="2.83725">
        <ele>71</ele>
        <time>2019-01-27T12:00:58Z</time>
      </trkpt>
      <trkpt lat="48.33758" lon="2.83781">
        <ele>74</ele>
        <time>2019-01-27T12:01:30Z</time>
      </trkpt>
      <trkpt lat="48.33758" lon="2.83788">
        <ele>74</ele>
        <time>2019-01-27T12:01:34Z</time>
      </trkpt>
      <trkpt lat="48.33749" lon="2.83818">
        <ele>75</ele>
        <time>2019-01-27T12:01:51Z</time>
      </trkpt>
      <trkpt lat="48.33725" lon="2.83868">
        <ele>79</ele>
        <time>2019-01-27T12:02:24Z</time>
      </trkpt>
      <trkpt lat="48.33722" lon="2.83873">
        <ele>79</ele>
        <time>2019-01-27T12:02:28Z</time>
      </trkpt>
      <trkpt lat="48.337" lon="2.83917">
        <ele>83</ele>
        <time>2019-01-27T12:02:59Z</time>
      </trkpt>
      <trkpt lat="48.33694" lon="2.8393">
        <ele>84</ele>
        <time>2019-01-27T12:03:07Z</time>
      </trkpt>
      <trkpt lat="48.33674" lon="2.83965">
        <ele>87</ele>
        <time>2019-01-27T12:03:33Z</time>
      </trkpt>
      <trkpt lat="48.33669" lon="2.83969">
        <ele>87</ele>
        <time>2019-01-27T12:03:38Z</time>
      </trkpt>
      <trkpt lat="48.3366" lon="2.83988">
        <ele>88</ele>
        <time>2019-01-27T12:03:52Z</time>
      </trkpt>
      <trkpt lat="48.33633" lon="2.8402">
        <ele>91</ele>
        <time>2019-01-27T12:04:24Z</time>
      </trkpt>
      <trkpt lat="48.33604" lon="2.84059">
        <ele>94</ele>
        <time>2019-01-27T12:04:57Z</time>
      </trkpt>
      <trkpt lat="48.33576" lon="2.84094">
        <ele>97</ele>
        <time>2019-01-27T12:05:28Z</time>
      </trkpt>
      <trkpt lat="48.33559" lon="2.84124">
        <ele>99</ele>
        <time>2019-01-27T12:05:49Z</time>
      </trkpt>
      <trkpt lat="48.33551" lon="2.84142">
        <ele>100</ele>
        <time>2019-01-27T12:06:05Z</time>
      </trkpt>
      <trkpt lat="48.33542" lon="2.84156">
        <ele>101</ele>
        <time>2019-01-27T12:06:15Z</time>
      </trkpt>
      <trkpt lat="48.33521" lon="2.84209">
        <ele>102</ele>
        <time>2019-01-27T12:06:46Z</time>
      </trkpt>
      <trkpt lat="48.33516" lon="2.84216">
        <ele>101</ele>
        <time>2019-01-27T12:06:52Z</time>
      </trkpt>
      <trkpt lat="48.33501" lon="2.84236">
        <ele>101</ele>
        <time>2019-01-27T12:07:10Z</time>
      </trkpt>
      <trkpt lat="48.33489" lon="2.84264">
        <ele>101</ele>
        <time>2019-01-27T12:07:28Z</time>
      </trkpt>
      <trkpt lat="48.33482" lon="2.84275">
        <ele>101</ele>
        <time>2019-01-27T12:07:36Z</time>
      </trkpt>
      <trkpt lat="48.33474" lon="2.84287">
        <ele>100</ele>
        <time>2019-01-27T12:07:44Z</time>
      </trkpt>
      <trkpt lat="48.33465" lon="2.84304">
        <ele>99</ele>
        <time>2019-01-27T12:07:55Z</time>
      </trkpt>
      <trkpt lat="48.33458" lon="2.84315">
        <ele>98</ele>
        <time>2019-01-27T12:08:03Z</time>
      </trkpt>
      <trkpt lat="48.33424" lon="2.84353">
        <ele>96</ele>
        <time>2019-01-27T12:08:35Z</time>
      </trkpt>
      <trkpt lat="48.33416" lon="2.84362">
        <ele>95</ele>
        <time>2019-01-27T12:08:43Z</time>
      </trkpt>
      <trkpt lat="48.33409" lon="2.84372">
        <ele>95</ele>
        <time>2019-01-27T12:08:51Z</time>
      </trkpt>
      <trkpt lat="48.33403" lon="2.84372">
        <ele>95</ele>
        <time>2019-01-27T12:08:56Z</time>
      </trkpt>
      <trkpt lat="48.33399" lon="2.84377">
        <ele>95</ele>
        <time>2019-01-27T12:09:00Z</time>
      </trkpt>
      <trkpt lat="48.33394" lon="2.84378">
        <ele>94</ele>
        <time>2019-01-27T12:09:04Z</time>
      </trkpt>
      <trkpt lat="48.33385" lon="2.84384">
        <ele>93</ele>
        <time>2019-01-27T12:09:12Z</time>
      </trkpt>
      <trkpt lat="48.33377" lon="2.84393">
        <ele>92</ele>
        <time>2019-01-27T12:09:18Z</time>
      </trkpt>
      <trkpt lat="48.33372" lon="2.84396">
        <ele>92</ele>
        <time>2019-01-27T12:09:21Z</time>
      </trkpt>
      <trkpt lat="48.33363" lon="2.84398">
        <ele>93</ele>
        <time>2019-01-27T12:09:28Z</time>
      </trkpt>
      <trkpt lat="48.33354" lon="2.84402">
        <ele>92</ele>
        <time>2019-01-27T12:09:37Z</time>
      </trkpt>
      <trkpt lat="48.33316" lon="2.84434">
        <ele>89</ele>
        <time>2019-01-27T12:10:11Z</time>
      </trkpt>
      <trkpt lat="48.3331" lon="2.84438">
        <ele>89</ele>
        <time>2019-01-27T12:10:18Z</time>
      </trkpt>
      <trkpt lat="48.33306" lon="2.84442">
        <ele>89</ele>
        <time>2019-01-27T12:10:22Z</time>
      </trkpt>
      <trkpt lat="48.33291" lon="2.8445">
        <ele>87</ele>
        <time>2019-01-27T12:10:34Z</time>
      </trkpt>
      <trkpt lat="48.33249" lon="2.84459">
        <ele>85</ele>
        <time>2019-01-27T12:11:06Z</time>
      </trkpt>
      <trkpt lat="48.33234" lon="2.84463">
        <ele>85</ele>
        <time>2019-01-27T12:11:16Z</time>
      </trkpt>
      <trkpt lat="48.33198" lon="2.84468">
        <ele>83</ele>
        <time>2019-01-27T12:11:46Z</time>
      </trkpt>
      <trkpt lat="48.33177" lon="2.84475">
        <ele>82</ele>
        <time>2019-01-27T12:12:00Z</time>
      </trkpt>
      <trkpt lat="48.33172" lon="2.84479">
        <ele>81</ele>
        <time>2019-01-27T12:12:03Z</time>
      </trkpt>
      <trkpt lat="48.33147" lon="2.84493">
        <ele>79</ele>
        <time>2019-01-27T12:12:23Z</time>
      </trkpt>
      <trkpt lat="48.33129" lon="2.8451">
        <ele>77</ele>
        <time>2019-01-27T12:12:38Z</time>
      </trkpt>
      <trkpt lat="48.33116" lon="2.84523">
        <ele>77</ele>
        <time>2019-01-27T12:12:49Z</time>
      </trkpt>
      <trkpt lat="48.33106" lon="2.8453">
        <ele>76</ele>
        <time>2019-01-27T12:12:57Z</time>
      </trkpt>
      <trkpt lat="48.33101" lon="2.84531">
        <ele>75</ele>
        <time>2019-01-27T12:13:01Z</time>
      </trkpt>
      <trkpt lat="48.33082" lon="2.84542">
        <ele>74</ele>
        <time>2019-01-27T12:13:15Z</time>
      </trkpt>
      <trkpt lat="48.33044" lon="2.84553">
        <ele>72</ele>
        <time>2019-01-27T12:13:44Z</time>
      </trkpt>
      <trkpt lat="48.33034" lon="2.84551">
        <ele>71</ele>
        <time>2019-01-27T12:13:54Z</time>
      </trkpt>
      <trkpt lat="48.33018" lon="2.84554">
        <ele>71</ele>
        <time>2019-01-27T12:14:07Z</time>
      </trkpt>
      <trkpt lat="48.32977" lon="2.84579">
        <ele>68</ele>
        <time>2019-01-27T12:14:41Z</time>
      </trkpt>
      <trkpt lat="48.32962" lon="2.84591">
        <ele>68</ele>
        <time>2019-01-27T12:14:53Z</time>
      </trkpt>
      <trkpt lat="48.32956" lon="2.84594">
        <ele>67</ele>
        <time>2019-01-27T12:14:57Z</time>
      </trkpt>
      <trkpt lat="48.32951" lon="2.84607">
        <ele>67</ele>
        <time>2019-01-27T12:15:06Z</time>
      </trkpt>
      <trkpt lat="48.32952" lon="2.84627">
        <ele>64</ele>
        <time>2019-01-27T12:15:19Z</time>
      </trkpt>
      <trkpt lat="48.32956" lon="2.84639">
        <ele>63</ele>
        <time>2019-01-27T12:15:26Z</time>
      </trkpt>
      <trkpt lat="48.3296" lon="2.84657">
        <ele>63</ele>
        <time>2019-01-27T12:15:37Z</time>
      </trkpt>
      <trkpt lat="48.32962" lon="2.84665">
        <ele>63</ele>
        <time>2019-01-27T12:15:41Z</time>
      </trkpt>
      <trkpt lat="48.32964" lon="2.84671">
        <ele>63</ele>
        <time>2019-01-27T12:15:46Z</time>
      </trkpt>
      <trkpt lat="48.32967" lon="2.84676">
        <ele>63</ele>
        <time>2019-01-27T12:15:50Z</time>
      </trkpt>
      <trkpt lat="48.32969" lon="2.84684">
        <ele>62</ele>
        <time>2019-01-27T12:15:55Z</time>
      </trkpt>
      <trkpt lat="48.3297" lon="2.84692">
        <ele>62</ele>
        <time>2019-01-27T12:15:59Z</time>
      </trkpt>
      <trkpt lat="48.32971" lon="2.84715">
        <ele>62</ele>
        <time>2019-01-27T12:16:09Z</time>
      </trkpt>
      <trkpt lat="48.32974" lon="2.8473">
        <ele>62</ele>
        <time>2019-01-27T12:16:16Z</time>
      </trkpt>
      <trkpt lat="48.32992" lon="2.84785">
        <ele>60</ele>
        <time>2019-01-27T12:16:50Z</time>
      </trkpt>
      <trkpt lat="48.32998" lon="2.84797">
        <ele>60</ele>
        <time>2019-01-27T12:16:57Z</time>
      </trkpt>
      <trkpt lat="48.33003" lon="2.84812">
        <ele>60</ele>
        <time>2019-01-27T12:17:04Z</time>
      </trkpt>
      <trkpt lat="48.33009" lon="2.8484">
        <ele>60</ele>
        <time>2019-01-27T12:17:23Z</time>
      </trkpt>
      <trkpt lat="48.33012" lon="2.84848">
        <ele>60</ele>
        <time>2019-01-27T12:17:30Z</time>
      </trkpt>
      <trkpt lat="48.33013" lon="2.84855">
        <ele>60</ele>
        <time>2019-01-27T12:17:35Z</time>
      </trkpt>
      <trkpt lat="48.33015" lon="2.84862">
        <ele>60</ele>
        <time>2019-01-27T12:17:40Z</time>
      </trkpt>
      <trkpt lat="48.33015" lon="2.84869">
        <ele>60</ele>
        <time>2019-01-27T12:17:45Z</time>
      </trkpt>
      <trkpt lat="48.33023" lon="2.84915">
        <ele>61</ele>
        <time>2019-01-27T12:18:22Z</time>
      </trkpt>
      <trkpt lat="48.33027" lon="2.84944">
        <ele>60</ele>
        <time>2019-01-27T12:18:41Z</time>
      </trkpt>
      <trkpt lat="48.33029" lon="2.84951">
        <ele>60</ele>
        <time>2019-01-27T12:18:46Z</time>
      </trkpt>
      <trkpt lat="48.33034" lon="2.84984">
        <ele>60</ele>
        <time>2019-01-27T12:19:11Z</time>
      </trkpt>
      <trkpt lat="48.33036" lon="2.84996">
        <ele>60</ele>
        <time>2019-01-27T12:19:20Z</time>
      </trkpt>
      <trkpt lat="48.33038" lon="2.8501">
        <ele>60</ele>
        <time>2019-01-27T12:19:28Z</time>
      </trkpt>
      <trkpt lat="48.33037" lon="2.85018">
        <ele>60</ele>
        <time>2019-01-27T12:19:32Z</time>
      </trkpt>
      <trkpt lat="48.33038" lon="2.85035">
        <ele>60</ele>
        <time>2019-01-27T12:19:40Z</time>
      </trkpt>
      <trkpt lat="48.3304" lon="2.85044">
        <ele>60</ele>
        <time>2019-01-27T12:19:44Z</time>
      </trkpt>
      <trkpt lat="48.33042" lon="2.85061">
        <ele>61</ele>
        <time>2019-01-27T12:19:52Z</time>
      </trkpt>
      <trkpt lat="48.33043" lon="2.85087">
        <ele>61</ele>
        <time>2019-01-27T12:20:08Z</time>
      </trkpt>
      <trkpt lat="48.33042" lon="2.8511">
        <ele>60</ele>
        <time>2019-01-27T12:20:19Z</time>
      </trkpt>
      <trkpt lat="48.33047" lon="2.85158">
        <ele>60</ele>
        <time>2019-01-27T12:20:50Z</time>
      </trkpt>
      <trkpt lat="48.33048" lon="2.8521">
        <ele>61</ele>
        <time>2019-01-27T12:21:20Z</time>
      </trkpt>
      <trkpt lat="48.3305" lon="2.85241">
        <ele>63</ele>
        <time>2019-01-27T12:21:36Z</time>
      </trkpt>
      <trkpt lat="48.33053" lon="2.85248">
        <ele>63</ele>
        <time>2019-01-27T12:21:40Z</time>
      </trkpt>
      <trkpt lat="48.33057" lon="2.85285">
        <ele>64</ele>
        <time>2019-01-27T12:22:01Z</time>
      </trkpt>
      <trkpt lat="48.33059" lon="2.85291">
        <ele>65</ele>
        <time>2019-01-27T12:22:05Z</time>
      </trkpt>
      <trkpt lat="48.33064" lon="2.85321">
        <ele>65</ele>
        <time>2019-01-27T12:22:22Z</time>
      </trkpt>
      <trkpt lat="48.33072" lon="2.85342">
        <ele>66</ele>
        <time>2019-01-27T12:22:34Z</time>
      </trkpt>
      <trkpt lat="48.33073" lon="2.85357">
        <ele>66</ele>
        <time>2019-01-27T12:22:43Z</time>
      </trkpt>
      <trkpt lat="48.33071" lon="2.85364">
        <ele>67</ele>
        <time>2019-01-27T12:22:48Z</time>
      </trkpt>
      <trkpt lat="48.33034" lon="2.85375">
        <ele>66</ele>
        <time>2019-01-27T12:23:21Z</time>
      </trkpt>
      <trkpt lat="48.33025" lon="2.8538">
        <ele>66</ele>
        <time>2019-01-27T12:23:28Z</time>
      </trkpt>
      <trkpt lat="48.33015" lon="2.85382">
        <ele>66</ele>
        <time>2019-01-27T12:23:37Z</time>
      </trkpt>
      <trkpt lat="48.32975" lon="2.85398">
        <ele>65</ele>
        <time>2019-01-27T12:24:09Z</time>
      </trkpt>
      <trkpt lat="48.32971" lon="2.85401">
        <ele>65</ele>
        <time>2019-01-27T12:24:13Z</time>
      </trkpt>
      <trkpt lat="48.32927" lon="2.85423">
        <ele>64</ele>
        <time>2019-01-27T12:24:47Z</time>
      </trkpt>
      <trkpt lat="48.32912" lon="2.8543">
        <ele>64</ele>
        <time>2019-01-27T12:24:59Z</time>
      </trkpt>
      <trkpt lat="48.32908" lon="2.85435">
        <ele>63</ele>
        <time>2019-01-27T12:25:03Z</time>
      </trkpt>
      <trkpt lat="48.32889" lon="2.85443">
        <ele>64</ele>
        <time>2019-01-27T12:25:21Z</time>
      </trkpt>
      <trkpt lat="48.32877" lon="2.85455">
        <ele>64</ele>
        <time>2019-01-27T12:25:30Z</time>
      </trkpt>
      <trkpt lat="48.32863" lon="2.85463">
        <ele>64</ele>
        <time>2019-01-27T12:25:40Z</time>
      </trkpt>
      <trkpt lat="48.32858" lon="2.85473">
        <ele>66</ele>
        <time>2019-01-27T12:25:48Z</time>
      </trkpt>
      <trkpt lat="48.32858" lon="2.85481">
        <ele>66</ele>
        <time>2019-01-27T12:25:52Z</time>
      </trkpt>
      <trkpt lat="48.32859" lon="2.85488">
        <ele>67</ele>
        <time>2019-01-27T12:25:56Z</time>
      </trkpt>
      <trkpt lat="48.32863" lon="2.85501">
        <ele>67</ele>
        <time>2019-01-27T12:26:06Z</time>
      </trkpt>
      <trkpt lat="48.32865" lon="2.85508">
        <ele>68</ele>
        <time>2019-01-27T12:26:11Z</time>
      </trkpt>
      <trkpt lat="48.32868" lon="2.85514">
        <ele>69</ele>
        <time>2019-01-27T12:26:16Z</time>
      </trkpt>
      <trkpt lat="48.32869" lon="2.85522">
        <ele>70</ele>
        <time>2019-01-27T12:26:21Z</time>
      </trkpt>
      <trkpt lat="48.32869" lon="2.8553">
        <ele>71</ele>
        <time>2019-01-27T12:26:26Z</time>
      </trkpt>
      <trkpt lat="48.32868" lon="2.85538">
        <ele>71</ele>
        <time>2019-01-27T12:26:30Z</time>
      </trkpt>
      <trkpt lat="48.32868" lon="2.85554">
        <ele>73</ele>
        <time>2019-01-27T12:26:40Z</time>
      </trkpt>
      <trkpt lat="48.32864" lon="2.8558">
        <ele>74</ele>
        <time>2019-01-27T12:26:56Z</time>
      </trkpt>
      <trkpt lat="48.3286" lon="2.85585">
        <ele>74</ele>
        <time>2019-01-27T12:27:00Z</time>
      </trkpt>
      <trkpt lat="48.32855" lon="2.85599">
        <ele>75</ele>
        <time>2019-01-27T12:27:08Z</time>
      </trkpt>
      <trkpt lat="48.32848" lon="2.85642">
        <ele>78</ele>
        <time>2019-01-27T12:27:32Z</time>
      </trkpt>
      <trkpt lat="48.32836" lon="2.8567">
        <ele>80</ele>
        <time>2019-01-27T12:27:48Z</time>
      </trkpt>
      <trkpt lat="48.32833" lon="2.85675">
        <ele>80</ele>
        <time>2019-01-27T12:27:52Z</time>
      </trkpt>
      <trkpt lat="48.32831" lon="2.85682">
        <ele>80</ele>
        <time>2019-01-27T12:27:56Z</time>
      </trkpt>
      <trkpt lat="48.32812" lon="2.8571">
        <ele>82</ele>
        <time>2019-01-27T12:28:16Z</time>
      </trkpt>
      <trkpt lat="48.32809" lon="2.85716">
        <ele>82</ele>
        <time>2019-01-27T12:28:20Z</time>
      </trkpt>
      <trkpt lat="48.32791" lon="2.85753">
        <ele>84</ele>
        <time>2019-01-27T12:28:49Z</time>
      </trkpt>
      <trkpt lat="48.32787" lon="2.85767">
        <ele>84</ele>
        <time>2019-01-27T12:28:58Z</time>
      </trkpt>
      <trkpt lat="48.32784" lon="2.85781">
        <ele>85</ele>
        <time>2019-01-27T12:29:07Z</time>
      </trkpt>
      <trkpt lat="48.32783" lon="2.85787">
        <ele>85</ele>
        <time>2019-01-27T12:29:29Z</time>
      </trkpt>
      <trkpt lat="48.3278" lon="2.85798">
        <ele>83</ele>
        <time>2019-01-27T12:33:30Z</time>
      </trkpt>
      <trkpt lat="48.32777" lon="2.85804">
        <ele>83</ele>
        <time>2019-01-27T12:33:35Z</time>
      </trkpt>
      <trkpt lat="48.32775" lon="2.85811">
        <ele>84</ele>
        <time>2019-01-27T12:33:43Z</time>
      </trkpt>
      <trkpt lat="48.32774" lon="2.85819">
        <ele>84</ele>
        <time>2019-01-27T12:33:48Z</time>
      </trkpt>
      <trkpt lat="48.3277" lon="2.85833">
        <ele>84</ele>
        <time>2019-01-27T12:33:56Z</time>
      </trkpt>
      <trkpt lat="48.32769" lon="2.85841">
        <ele>85</ele>
        <time>2019-01-27T12:34:01Z</time>
      </trkpt>
      <trkpt lat="48.32763" lon="2.85865">
        <ele>85</ele>
        <time>2019-01-27T12:34:15Z</time>
      </trkpt>
      <trkpt lat="48.32751" lon="2.85924">
        <ele>86</ele>
        <time>2019-01-27T12:34:49Z</time>
      </trkpt>
      <trkpt lat="48.32748" lon="2.85938">
        <ele>87</ele>
        <time>2019-01-27T12:34:57Z</time>
      </trkpt>
      <trkpt lat="48.32746" lon="2.85954">
        <ele>87</ele>
        <time>2019-01-27T12:35:06Z</time>
      </trkpt>
      <trkpt lat="48.32732" lon="2.86012">
        <ele>89</ele>
        <time>2019-01-27T12:35:39Z</time>
      </trkpt>
      <trkpt lat="48.3273" lon="2.86019">
        <ele>90</ele>
        <time>2019-01-27T12:35:43Z</time>
      </trkpt>
      <trkpt lat="48.32725" lon="2.86047">
        <ele>89</ele>
        <time>2019-01-27T12:35:59Z</time>
      </trkpt>
      <trkpt lat="48.32721" lon="2.86076">
        <ele>91</ele>
        <time>2019-01-27T12:36:15Z</time>
      </trkpt>
      <trkpt lat="48.3271" lon="2.86116">
        <ele>92</ele>
        <time>2019-01-27T12:36:39Z</time>
      </trkpt>
      <trkpt lat="48.32708" lon="2.8613">
        <ele>93</ele>
        <time>2019-01-27T12:36:47Z</time>
      </trkpt>
      <trkpt lat="48.32708" lon="2.86138">
        <ele>94</ele>
        <time>2019-01-27T12:36:51Z</time>
      </trkpt>
      <trkpt lat="48.32707" lon="2.86145">
        <ele>94</ele>
        <time>2019-01-27T12:36:55Z</time>
      </trkpt>
      <trkpt lat="48.32705" lon="2.86152">
        <ele>94</ele>
        <time>2019-01-27T12:36:59Z</time>
      </trkpt>
      <trkpt lat="48.32703" lon="2.86165">
        <ele>94</ele>
        <time>2019-01-27T12:37:07Z</time>
      </trkpt>
      <trkpt lat="48.327" lon="2.86188">
        <ele>94</ele>
        <time>2019-01-27T12:37:21Z</time>
      </trkpt>
      <trkpt lat="48.327" lon="2.86198">
        <ele>94</ele>
        <time>2019-01-27T12:38:23Z</time>
      </trkpt>
      <trkpt lat="48.327" lon="2.86206">
        <ele>94</ele>
        <time>2019-01-27T12:38:28Z</time>
      </trkpt>
      <trkpt lat="48.327" lon="2.86214">
        <ele>94</ele>
        <time>2019-01-27T12:38:33Z</time>
      </trkpt>
      <trkpt lat="48.32699" lon="2.86229">
        <ele>94</ele>
        <time>2019-01-27T12:38:41Z</time>
      </trkpt>
      <trkpt lat="48.32697" lon="2.86236">
        <ele>94</ele>
        <time>2019-01-27T12:38:45Z</time>
      </trkpt>
      <trkpt lat="48.32697" lon="2.8626">
        <ele>93</ele>
        <time>2019-01-27T12:38:57Z</time>
      </trkpt>
      <trkpt lat="48.32694" lon="2.86276">
        <ele>93</ele>
        <time>2019-01-27T12:39:05Z</time>
      </trkpt>
      <trkpt lat="48.32687" lon="2.86314">
        <ele>92</ele>
        <time>2019-01-27T12:39:26Z</time>
      </trkpt>
      <trkpt lat="48.32679" lon="2.86374">
        <ele>90</ele>
        <time>2019-01-27T12:40:00Z</time>
      </trkpt>
      <trkpt lat="48.32677" lon="2.86396">
        <ele>89</ele>
        <time>2019-01-27T12:40:12Z</time>
      </trkpt>
      <trkpt lat="48.32675" lon="2.86402">
        <ele>89</ele>
        <time>2019-01-27T12:40:16Z</time>
      </trkpt>
      <trkpt lat="48.32674" lon="2.86409">
        <ele>88</ele>
        <time>2019-01-27T12:40:19Z</time>
      </trkpt>
      <trkpt lat="48.32675" lon="2.86418">
        <ele>88</ele>
        <time>2019-01-27T12:40:23Z</time>
      </trkpt>
      <trkpt lat="48.32674" lon="2.86433">
        <ele>88</ele>
        <time>2019-01-27T12:40:31Z</time>
      </trkpt>
      <trkpt lat="48.32674" lon="2.86441">
        <ele>86</ele>
        <time>2019-01-27T12:40:36Z</time>
      </trkpt>
      <trkpt lat="48.32666" lon="2.86486">
        <ele>83</ele>
        <time>2019-01-27T12:40:58Z</time>
      </trkpt>
      <trkpt lat="48.3266" lon="2.86548">
        <ele>77</ele>
        <time>2019-01-27T12:41:32Z</time>
      </trkpt>
      <trkpt lat="48.32654" lon="2.86593">
        <ele>74</ele>
        <time>2019-01-27T12:41:53Z</time>
      </trkpt>
      <trkpt lat="48.32658" lon="2.86621">
        <ele>72</ele>
        <time>2019-01-27T12:42:08Z</time>
      </trkpt>
      <trkpt lat="48.32657" lon="2.86636">
        <ele>72</ele>
        <time>2019-01-27T12:42:16Z</time>
      </trkpt>
      <trkpt lat="48.32662" lon="2.8665">
        <ele>72</ele>
        <time>2019-01-27T12:42:24Z</time>
      </trkpt>
      <trkpt lat="48.32664" lon="2.86663">
        <ele>71</ele>
        <time>2019-01-27T12:42:31Z</time>
      </trkpt>
      <trkpt lat="48.32663" lon="2.86679">
        <ele>71</ele>
        <time>2019-01-27T12:42:38Z</time>
      </trkpt>
      <trkpt lat="48.32665" lon="2.86693">
        <ele>70</ele>
        <time>2019-01-27T12:42:45Z</time>
      </trkpt>
      <trkpt lat="48.32667" lon="2.86709">
        <ele>70</ele>
        <time>2019-01-27T12:42:52Z</time>
      </trkpt>
      <trkpt lat="48.32669" lon="2.86722">
        <ele>70</ele>
        <time>2019-01-27T12:42:58Z</time>
      </trkpt>
      <trkpt lat="48.32673" lon="2.86753">
        <ele>69</ele>
        <time>2019-01-27T12:43:15Z</time>
      </trkpt>
      <trkpt lat="48.32672" lon="2.86766">
        <ele>69</ele>
        <time>2019-01-27T12:43:22Z</time>
      </trkpt>
      <trkpt lat="48.32673" lon="2.8678">
        <ele>69</ele>
        <time>2019-01-27T12:43:29Z</time>
      </trkpt>
      <trkpt lat="48.32677" lon="2.86791">
        <ele>69</ele>
        <time>2019-01-27T12:43:35Z</time>
      </trkpt>
      <trkpt lat="48.32677" lon="2.86798">
        <ele>69</ele>
        <time>2019-01-27T12:43:39Z</time>
      </trkpt>
      <trkpt lat="48.32677" lon="2.86812">
        <ele>69</ele>
        <time>2019-01-27T12:43:46Z</time>
      </trkpt>
      <trkpt lat="48.32677" lon="2.86829">
        <ele>69</ele>
        <time>2019-01-27T12:43:54Z</time>
      </trkpt>
      <trkpt lat="48.3268" lon="2.86844">
        <ele>69</ele>
        <time>2019-01-27T12:44:02Z</time>
      </trkpt>
      <trkpt lat="48.32681" lon="2.86851">
        <ele>68</ele>
        <time>2019-01-27T12:44:06Z</time>
      </trkpt>
      <trkpt lat="48.32679" lon="2.86868">
        <ele>69</ele>
        <time>2019-01-27T12:44:14Z</time>
      </trkpt>
      <trkpt lat="48.32682" lon="2.86873">
        <ele>69</ele>
        <time>2019-01-27T12:44:18Z</time>
      </trkpt>
      <trkpt lat="48.32683" lon="2.86882">
        <ele>68</ele>
        <time>2019-01-27T12:44:22Z</time>
      </trkpt>
      <trkpt lat="48.32683" lon="2.86897">
        <ele>68</ele>
        <time>2019-01-27T12:44:31Z</time>
      </trkpt>
      <trkpt lat="48.32692" lon="2.86931">
        <ele>68</ele>
        <time>2019-01-27T12:44:47Z</time>
      </trkpt>
      <trkpt lat="48.32694" lon="2.86946">
        <ele>69</ele>
        <time>2019-01-27T12:44:53Z</time>
      </trkpt>
      <trkpt lat="48.32697" lon="2.86959">
        <ele>68</ele>
        <time>2019-01-27T12:45:00Z</time>
      </trkpt>
      <trkpt lat="48.32709" lon="2.87027">
        <ele>71</ele>
        <time>2019-01-27T12:45:36Z</time>
      </trkpt>
      <trkpt lat="48.32714" lon="2.87071">
        <ele>71</ele>
        <time>2019-01-27T12:45:58Z</time>
      </trkpt>
      <trkpt lat="48.32718" lon="2.87084">
        <ele>72</ele>
        <time>2019-01-27T12:46:06Z</time>
      </trkpt>
      <trkpt lat="48.32725" lon="2.87143">
        <ele>72</ele>
        <time>2019-01-27T12:46:37Z</time>
      </trkpt>
      <trkpt lat="48.32727" lon="2.87191">
        <ele>72</ele>
        <time>2019-01-27T12:47:00Z</time>
      </trkpt>
      <trkpt lat="48.32731" lon="2.87218">
        <ele>73</ele>
        <time>2019-01-27T12:47:15Z</time>
      </trkpt>
      <trkpt lat="48.32732" lon="2.87246">
        <ele>73</ele>
        <time>2019-01-27T12:47:30Z</time>
      </trkpt>
      <trkpt lat="48.32738" lon="2.87299">
        <ele>74</ele>
        <time>2019-01-27T12:48:08Z</time>
      </trkpt>
      <trkpt lat="48.32738" lon="2.87331">
        <ele>74</ele>
        <time>2019-01-27T12:48:22Z</time>
      </trkpt>
      <trkpt lat="48.32737" lon="2.87338">
        <ele>74</ele>
        <time>2019-01-27T12:48:25Z</time>
      </trkpt>
      <trkpt lat="48.32738" lon="2.87363">
        <ele>74</ele>
        <time>2019-01-27T12:48:40Z</time>
      </trkpt>
      <trkpt lat="48.32729" lon="2.87407">
        <ele>75</ele>
        <time>2019-01-27T12:49:00Z</time>
      </trkpt>
      <trkpt lat="48.32722" lon="2.87449">
        <ele>77</ele>
        <time>2019-01-27T12:49:26Z</time>
      </trkpt>
      <trkpt lat="48.32721" lon="2.87463">
        <ele>76</ele>
        <time>2019-01-27T12:49:34Z</time>
      </trkpt>
      <trkpt lat="48.32719" lon="2.87477">
        <ele>77</ele>
        <time>2019-01-27T12:49:43Z</time>
      </trkpt>
      <trkpt lat="48.32714" lon="2.87491">
        <ele>78</ele>
        <time>2019-01-27T12:49:52Z</time>
      </trkpt>
      <trkpt lat="48.32713" lon="2.87497">
        <ele>78</ele>
        <time>2019-01-27T12:49:56Z</time>
      </trkpt>
      <trkpt lat="48.32711" lon="2.87505">
        <ele>78</ele>
        <time>2019-01-27T12:50:01Z</time>
      </trkpt>
      <trkpt lat="48.32708" lon="2.87504">
        <ele>77</ele>
        <time>2019-01-27T12:50:42Z</time>
      </trkpt>
      <trkpt lat="48.32712" lon="2.87495">
        <ele>77</ele>
        <time>2019-01-27T12:50:59Z</time>
      </trkpt>
      <trkpt lat="48.32713" lon="2.87489">
        <ele>77</ele>
        <time>2019-01-27T12:51:03Z</time>
      </trkpt>
      <trkpt lat="48.32714" lon="2.8748">
        <ele>77</ele>
        <time>2019-01-27T12:51:10Z</time>
      </trkpt>
      <trkpt lat="48.32709" lon="2.87475">
        <ele>77</ele>
        <time>2019-01-27T12:51:24Z</time>
      </trkpt>
      <trkpt lat="48.32706" lon="2.87482">
        <ele>76</ele>
        <time>2019-01-27T12:51:54Z</time>
      </trkpt>
      <trkpt lat="48.32705" lon="2.87481">
        <ele>76</ele>
        <time>2019-01-27T12:55:52Z</time>
      </trkpt>
      <trkpt lat="48.32701" lon="2.87476">
        <ele>76</ele>
        <time>2019-01-27T12:56:04Z</time>
      </trkpt>
      <trkpt lat="48.32694" lon="2.87469">
        <ele>75</ele>
        <time>2019-01-27T12:56:16Z</time>
      </trkpt>
      <trkpt lat="48.32691" lon="2.87471">
        <ele>67</ele>
        <time>2019-01-27T13:20:58Z</time>
      </trkpt>
      <trkpt lat="48.32691" lon="2.87471">
        <ele>67</ele>
        <time>2019-01-27T13:20:58Z</time>
      </trkpt>
      <trkpt lat="48.32696" lon="2.87467">
        <ele>67</ele>
        <time>2019-01-27T13:21:27Z</time>
      </trkpt>
      <trkpt lat="48.32702" lon="2.87469">
        <ele>68</ele>
        <time>2019-01-27T13:30:42Z</time>
      </trkpt>
      <trkpt lat="48.32706" lon="2.87471">
        <ele>70</ele>
        <time>2019-01-27T13:30:48Z</time>
      </trkpt>
      <trkpt lat="48.32711" lon="2.87473">
        <ele>69</ele>
        <time>2019-01-27T13:30:54Z</time>
      </trkpt>
      <trkpt lat="48.32717" lon="2.87475">
        <ele>69</ele>
        <time>2019-01-27T13:31:06Z</time>
      </trkpt>
      <trkpt lat="48.32715" lon="2.87485">
        <ele>69</ele>
        <time>2019-01-27T13:32:35Z</time>
      </trkpt>
      <trkpt lat="48.32713" lon="2.87492">
        <ele>70</ele>
        <time>2019-01-27T13:32:40Z</time>
      </trkpt>
      <trkpt lat="48.32711" lon="2.875">
        <ele>70</ele>
        <time>2019-01-27T13:32:45Z</time>
      </trkpt>
      <trkpt lat="48.32709" lon="2.87506">
        <ele>70</ele>
        <time>2019-01-27T13:32:49Z</time>
      </trkpt>
      <trkpt lat="48.32698" lon="2.87539">
        <ele>70</ele>
        <time>2019-01-27T13:33:11Z</time>
      </trkpt>
      <trkpt lat="48.32698" lon="2.87546">
        <ele>70</ele>
        <time>2019-01-27T13:33:50Z</time>
      </trkpt>
      <trkpt lat="48.32711" lon="2.87556">
        <ele>71</ele>
        <time>2019-01-27T13:35:23Z</time>
      </trkpt>
      <trkpt lat="48.32719" lon="2.87561">
        <ele>72</ele>
        <time>2019-01-27T13:35:31Z</time>
      </trkpt>
      <trkpt lat="48.32738" lon="2.87569">
        <ele>72</ele>
        <time>2019-01-27T13:35:47Z</time>
      </trkpt>
      <trkpt lat="48.32747" lon="2.87574">
        <ele>74</ele>
        <time>2019-01-27T13:35:55Z</time>
      </trkpt>
      <trkpt lat="48.32757" lon="2.87577">
        <ele>74</ele>
        <time>2019-01-27T13:36:03Z</time>
      </trkpt>
      <trkpt lat="48.32766" lon="2.87583">
        <ele>74</ele>
        <time>2019-01-27T13:36:11Z</time>
      </trkpt>
      <trkpt lat="48.32774" lon="2.8759">
        <ele>75</ele>
        <time>2019-01-27T13:36:20Z</time>
      </trkpt>
      <trkpt lat="48.32783" lon="2.87595">
        <ele>75</ele>
        <time>2019-01-27T13:36:29Z</time>
      </trkpt>
      <trkpt lat="48.32801" lon="2.87605">
        <ele>77</ele>
        <time>2019-01-27T13:36:46Z</time>
      </trkpt>
      <trkpt lat="48.32812" lon="2.87607">
        <ele>77</ele>
        <time>2019-01-27T13:36:57Z</time>
      </trkpt>
      <trkpt lat="48.3284" lon="2.87626">
        <ele>79</ele>
        <time>2019-01-27T13:37:23Z</time>
      </trkpt>
      <trkpt lat="48.32876" lon="2.87644">
        <ele>82</ele>
        <time>2019-01-27T13:37:59Z</time>
      </trkpt>
      <trkpt lat="48.32908" lon="2.8766">
        <ele>85</ele>
        <time>2019-01-27T13:38:33Z</time>
      </trkpt>
      <trkpt lat="48.32926" lon="2.87671">
        <ele>89</ele>
        <time>2019-01-27T13:38:55Z</time>
      </trkpt>
      <trkpt lat="48.32932" lon="2.87673">
        <ele>90</ele>
        <time>2019-01-27T13:39:01Z</time>
      </trkpt>
      <trkpt lat="48.32961" lon="2.87686">
        <ele>95</ele>
        <time>2019-01-27T13:39:38Z</time>
      </trkpt>
      <trkpt lat="48.32975" lon="2.87691">
        <ele>97</ele>
        <time>2019-01-27T13:39:54Z</time>
      </trkpt>
      <trkpt lat="48.32981" lon="2.87694">
        <ele>99</ele>
        <time>2019-01-27T13:40:04Z</time>
      </trkpt>
      <trkpt lat="48.32986" lon="2.87697">
        <ele>99</ele>
        <time>2019-01-27T13:40:10Z</time>
      </trkpt>
      <trkpt lat="48.32991" lon="2.87699">
        <ele>101</ele>
        <time>2019-01-27T13:40:25Z</time>
      </trkpt>
      <trkpt lat="48.32996" lon="2.877">
        <ele>101</ele>
        <time>2019-01-27T13:40:29Z</time>
      </trkpt>
      <trkpt lat="48.33002" lon="2.87703">
        <ele>102</ele>
        <time>2019-01-27T13:40:36Z</time>
      </trkpt>
      <trkpt lat="48.33006" lon="2.87704">
        <ele>102</ele>
        <time>2019-01-27T13:40:43Z</time>
      </trkpt>
      <trkpt lat="48.33013" lon="2.87706">
        <ele>102</ele>
        <time>2019-01-27T13:40:55Z</time>
      </trkpt>
      <trkpt lat="48.33014" lon="2.87718">
        <ele>104</ele>
        <time>2019-01-27T13:41:08Z</time>
      </trkpt>
      <trkpt lat="48.32999" lon="2.87771">
        <ele>102</ele>
        <time>2019-01-27T13:41:42Z</time>
      </trkpt>
      <trkpt lat="48.32998" lon="2.87777">
        <ele>101</ele>
        <time>2019-01-27T13:41:46Z</time>
      </trkpt>
      <trkpt lat="48.32992" lon="2.87806">
        <ele>100</ele>
        <time>2019-01-27T13:42:06Z</time>
      </trkpt>
      <trkpt lat="48.3299" lon="2.87814">
        <ele>100</ele>
        <time>2019-01-27T13:42:11Z</time>
      </trkpt>
      <trkpt lat="48.32988" lon="2.87821">
        <ele>100</ele>
        <time>2019-01-27T13:42:15Z</time>
      </trkpt>
      <trkpt lat="48.32985" lon="2.87835">
        <ele>99</ele>
        <time>2019-01-27T13:42:24Z</time>
      </trkpt>
      <trkpt lat="48.32971" lon="2.87888">
        <ele>97</ele>
        <time>2019-01-27T13:42:52Z</time>
      </trkpt>
      <trkpt lat="48.32971" lon="2.87895">
        <ele>97</ele>
        <time>2019-01-27T13:42:57Z</time>
      </trkpt>
      <trkpt lat="48.3297" lon="2.87902">
        <ele>97</ele>
        <time>2019-01-27T13:43:01Z</time>
      </trkpt>
      <trkpt lat="48.32967" lon="2.87915">
        <ele>98</ele>
        <time>2019-01-27T13:43:09Z</time>
      </trkpt>
      <trkpt lat="48.32959" lon="2.87943">
        <ele>96</ele>
        <time>2019-01-27T13:43:25Z</time>
      </trkpt>
      <trkpt lat="48.32956" lon="2.87957">
        <ele>95</ele>
        <time>2019-01-27T13:43:33Z</time>
      </trkpt>
      <trkpt lat="48.32955" lon="2.87967">
        <ele>96</ele>
        <time>2019-01-27T13:43:41Z</time>
      </trkpt>
      <trkpt lat="48.32951" lon="2.87971">
        <ele>95</ele>
        <time>2019-01-27T13:43:46Z</time>
      </trkpt>
      <trkpt lat="48.32948" lon="2.87978">
        <ele>95</ele>
        <time>2019-01-27T13:43:51Z</time>
      </trkpt>
      <trkpt lat="48.32946" lon="2.87985">
        <ele>95</ele>
        <time>2019-01-27T13:43:56Z</time>
      </trkpt>
      <trkpt lat="48.32943" lon="2.87993">
        <ele>94</ele>
        <time>2019-01-27T13:44:00Z</time>
      </trkpt>
      <trkpt lat="48.32938" lon="2.88013">
        <ele>93</ele>
        <time>2019-01-27T13:44:13Z</time>
      </trkpt>
      <trkpt lat="48.32936" lon="2.8802">
        <ele>93</ele>
        <time>2019-01-27T13:44:17Z</time>
      </trkpt>
      <trkpt lat="48.32922" lon="2.88079">
        <ele>92</ele>
        <time>2019-01-27T13:44:49Z</time>
      </trkpt>
      <trkpt lat="48.32907" lon="2.88136">
        <ele>89</ele>
        <time>2019-01-27T13:45:24Z</time>
      </trkpt>
      <trkpt lat="48.32904" lon="2.88142">
        <ele>89</ele>
        <time>2019-01-27T13:45:29Z</time>
      </trkpt>
      <trkpt lat="48.32899" lon="2.88156">
        <ele>88</ele>
        <time>2019-01-27T13:45:37Z</time>
      </trkpt>
      <trkpt lat="48.32898" lon="2.88164">
        <ele>87</ele>
        <time>2019-01-27T13:45:41Z</time>
      </trkpt>
      <trkpt lat="48.32898" lon="2.88171">
        <ele>87</ele>
        <time>2019-01-27T13:45:45Z</time>
      </trkpt>
      <trkpt lat="48.32896" lon="2.88178">
        <ele>87</ele>
        <time>2019-01-27T13:45:49Z</time>
      </trkpt>
      <trkpt lat="48.32892" lon="2.88191">
        <ele>87</ele>
        <time>2019-01-27T13:45:57Z</time>
      </trkpt>
      <trkpt lat="48.3289" lon="2.88198">
        <ele>87</ele>
        <time>2019-01-27T13:46:02Z</time>
      </trkpt>
      <trkpt lat="48.3289" lon="2.88205">
        <ele>87</ele>
        <time>2019-01-27T13:46:06Z</time>
      </trkpt>
      <trkpt lat="48.32886" lon="2.88219">
        <ele>86</ele>
        <time>2019-01-27T13:46:15Z</time>
      </trkpt>
      <trkpt lat="48.32882" lon="2.88226">
        <ele>86</ele>
        <time>2019-01-27T13:46:19Z</time>
      </trkpt>
      <trkpt lat="48.32874" lon="2.88264">
        <ele>83</ele>
        <time>2019-01-27T13:46:39Z</time>
      </trkpt>
      <trkpt lat="48.32869" lon="2.88285">
        <ele>83</ele>
        <time>2019-01-27T13:46:51Z</time>
      </trkpt>
      <trkpt lat="48.32865" lon="2.883">
        <ele>81</ele>
        <time>2019-01-27T13:47:00Z</time>
      </trkpt>
      <trkpt lat="48.32863" lon="2.88308">
        <ele>81</ele>
        <time>2019-01-27T13:47:05Z</time>
      </trkpt>
      <trkpt lat="48.32856" lon="2.88327">
        <ele>81</ele>
        <time>2019-01-27T13:47:18Z</time>
      </trkpt>
      <trkpt lat="48.32854" lon="2.88335">
        <ele>81</ele>
        <time>2019-01-27T13:47:22Z</time>
      </trkpt>
      <trkpt lat="48.32851" lon="2.88342">
        <ele>81</ele>
        <time>2019-01-27T13:47:25Z</time>
      </trkpt>
      <trkpt lat="48.32838" lon="2.884">
        <ele>80</ele>
        <time>2019-01-27T13:47:58Z</time>
      </trkpt>
      <trkpt lat="48.3283" lon="2.88427">
        <ele>79</ele>
        <time>2019-01-27T13:48:14Z</time>
      </trkpt>
      <trkpt lat="48.32821" lon="2.88454">
        <ele>79</ele>
        <time>2019-01-27T13:48:33Z</time>
      </trkpt>
      <trkpt lat="48.32822" lon="2.88463">
        <ele>80</ele>
        <time>2019-01-27T13:48:42Z</time>
      </trkpt>
      <trkpt lat="48.3282" lon="2.8847">
        <ele>80</ele>
        <time>2019-01-27T13:48:46Z</time>
      </trkpt>
      <trkpt lat="48.32815" lon="2.88485">
        <ele>81</ele>
        <time>2019-01-27T13:48:55Z</time>
      </trkpt>
      <trkpt lat="48.32813" lon="2.885">
        <ele>79</ele>
        <time>2019-01-27T13:49:05Z</time>
      </trkpt>
      <trkpt lat="48.32811" lon="2.88507">
        <ele>79</ele>
        <time>2019-01-27T13:49:10Z</time>
      </trkpt>
      <trkpt lat="48.32806" lon="2.88521">
        <ele>80</ele>
        <time>2019-01-27T13:49:18Z</time>
      </trkpt>
      <trkpt lat="48.32797" lon="2.8854">
        <ele>79</ele>
        <time>2019-01-27T13:49:30Z</time>
      </trkpt>
      <trkpt lat="48.3277" lon="2.8858">
        <ele>78</ele>
        <time>2019-01-27T13:50:04Z</time>
      </trkpt>
      <trkpt lat="48.32766" lon="2.88584">
        <ele>79</ele>
        <time>2019-01-27T13:50:09Z</time>
      </trkpt>
      <trkpt lat="48.32755" lon="2.88609">
        <ele>78</ele>
        <time>2019-01-27T13:50:26Z</time>
      </trkpt>
      <trkpt lat="48.32753" lon="2.88615">
        <ele>78</ele>
        <time>2019-01-27T13:50:30Z</time>
      </trkpt>
      <trkpt lat="48.32734" lon="2.88668">
        <ele>78</ele>
        <time>2019-01-27T13:51:04Z</time>
      </trkpt>
      <trkpt lat="48.32731" lon="2.88675">
        <ele>78</ele>
        <time>2019-01-27T13:51:09Z</time>
      </trkpt>
      <trkpt lat="48.32725" lon="2.88696">
        <ele>79</ele>
        <time>2019-01-27T13:51:23Z</time>
      </trkpt>
      <trkpt lat="48.32722" lon="2.88703">
        <ele>79</ele>
        <time>2019-01-27T13:51:28Z</time>
      </trkpt>
      <trkpt lat="48.32719" lon="2.88709">
        <ele>79</ele>
        <time>2019-01-27T13:51:33Z</time>
      </trkpt>
      <trkpt lat="48.32718" lon="2.88719">
        <ele>79</ele>
        <time>2019-01-27T13:51:40Z</time>
      </trkpt>
      <trkpt lat="48.32715" lon="2.88734">
        <ele>80</ele>
        <time>2019-01-27T13:51:50Z</time>
      </trkpt>
      <trkpt lat="48.32713" lon="2.88742">
        <ele>79</ele>
        <time>2019-01-27T13:51:55Z</time>
      </trkpt>
      <trkpt lat="48.32706" lon="2.88754">
        <ele>79</ele>
        <time>2019-01-27T13:52:04Z</time>
      </trkpt>
      <trkpt lat="48.32695" lon="2.88779">
        <ele>79</ele>
        <time>2019-01-27T13:52:20Z</time>
      </trkpt>
      <trkpt lat="48.32693" lon="2.88785">
        <ele>79</ele>
        <time>2019-01-27T13:52:24Z</time>
      </trkpt>
      <trkpt lat="48.32689" lon="2.888">
        <ele>81</ele>
        <time>2019-01-27T13:52:34Z</time>
      </trkpt>
      <trkpt lat="48.32684" lon="2.88812">
        <ele>82</ele>
        <time>2019-01-27T13:52:42Z</time>
      </trkpt>
      <trkpt lat="48.32681" lon="2.88829">
        <ele>80</ele>
        <time>2019-01-27T13:52:54Z</time>
      </trkpt>
      <trkpt lat="48.32677" lon="2.88843">
        <ele>83</ele>
        <time>2019-01-27T13:53:02Z</time>
      </trkpt>
      <trkpt lat="48.32675" lon="2.88849">
        <ele>83</ele>
        <time>2019-01-27T13:53:07Z</time>
      </trkpt>
      <trkpt lat="48.3267" lon="2.88864">
        <ele>84</ele>
        <time>2019-01-27T13:53:16Z</time>
      </trkpt>
      <trkpt lat="48.32664" lon="2.88876">
        <ele>83</ele>
        <time>2019-01-27T13:53:25Z</time>
      </trkpt>
      <trkpt lat="48.32662" lon="2.88884">
        <ele>84</ele>
        <time>2019-01-27T13:53:31Z</time>
      </trkpt>
      <trkpt lat="48.3266" lon="2.88891">
        <ele>84</ele>
        <time>2019-01-27T13:53:36Z</time>
      </trkpt>
      <trkpt lat="48.32656" lon="2.88912">
        <ele>87</ele>
        <time>2019-01-27T13:53:51Z</time>
      </trkpt>
      <trkpt lat="48.32651" lon="2.88926">
        <ele>88</ele>
        <time>2019-01-27T13:54:01Z</time>
      </trkpt>
      <trkpt lat="48.32647" lon="2.8893">
        <ele>87</ele>
        <time>2019-01-27T13:54:06Z</time>
      </trkpt>
      <trkpt lat="48.32643" lon="2.88938">
        <ele>87</ele>
        <time>2019-01-27T13:54:13Z</time>
      </trkpt>
      <trkpt lat="48.32641" lon="2.88946">
        <ele>89</ele>
        <time>2019-01-27T13:54:21Z</time>
      </trkpt>
      <trkpt lat="48.32637" lon="2.88948">
        <ele>89</ele>
        <time>2019-01-27T13:54:24Z</time>
      </trkpt>
      <trkpt lat="48.32635" lon="2.88956">
        <ele>88</ele>
        <time>2019-01-27T13:54:29Z</time>
      </trkpt>
      <trkpt lat="48.32633" lon="2.88972">
        <ele>88</ele>
        <time>2019-01-27T13:54:39Z</time>
      </trkpt>
      <trkpt lat="48.32623" lon="2.89009">
        <ele>90</ele>
        <time>2019-01-27T13:55:09Z</time>
      </trkpt>
      <trkpt lat="48.3262" lon="2.89015">
        <ele>89</ele>
        <time>2019-01-27T13:55:14Z</time>
      </trkpt>
      <trkpt lat="48.32618" lon="2.89022">
        <ele>90</ele>
        <time>2019-01-27T13:55:19Z</time>
      </trkpt>
      <trkpt lat="48.32616" lon="2.89029">
        <ele>90</ele>
        <time>2019-01-27T13:55:24Z</time>
      </trkpt>
      <trkpt lat="48.32613" lon="2.89035">
        <ele>90</ele>
        <time>2019-01-27T13:55:29Z</time>
      </trkpt>
      <trkpt lat="48.32612" lon="2.89042">
        <ele>91</ele>
        <time>2019-01-27T13:55:34Z</time>
      </trkpt>
      <trkpt lat="48.3261" lon="2.89051">
        <ele>90</ele>
        <time>2019-01-27T13:55:41Z</time>
      </trkpt>
      <trkpt lat="48.32606" lon="2.89065">
        <ele>90</ele>
        <time>2019-01-27T13:55:51Z</time>
      </trkpt>
      <trkpt lat="48.32604" lon="2.89072">
        <ele>90</ele>
        <time>2019-01-27T13:55:55Z</time>
      </trkpt>
      <trkpt lat="48.32602" lon="2.89078">
        <ele>90</ele>
        <time>2019-01-27T13:55:59Z</time>
      </trkpt>
      <trkpt lat="48.32601" lon="2.89086">
        <ele>90</ele>
        <time>2019-01-27T13:56:03Z</time>
      </trkpt>
      <trkpt lat="48.32598" lon="2.891">
        <ele>90</ele>
        <time>2019-01-27T13:56:11Z</time>
      </trkpt>
      <trkpt lat="48.32594" lon="2.89113">
        <ele>89</ele>
        <time>2019-01-27T13:56:19Z</time>
      </trkpt>
      <trkpt lat="48.32586" lon="2.89141">
        <ele>89</ele>
        <time>2019-01-27T13:56:35Z</time>
      </trkpt>
      <trkpt lat="48.32583" lon="2.89148">
        <ele>90</ele>
        <time>2019-01-27T13:56:39Z</time>
      </trkpt>
      <trkpt lat="48.32578" lon="2.89169">
        <ele>90</ele>
        <time>2019-01-27T13:56:52Z</time>
      </trkpt>
      <trkpt lat="48.32576" lon="2.89176">
        <ele>90</ele>
        <time>2019-01-27T13:56:57Z</time>
      </trkpt>
      <trkpt lat="48.32574" lon="2.89183">
        <ele>90</ele>
        <time>2019-01-27T13:57:02Z</time>
      </trkpt>
      <trkpt lat="48.32571" lon="2.8919">
        <ele>89</ele>
        <time>2019-01-27T13:57:07Z</time>
      </trkpt>
      <trkpt lat="48.32562" lon="2.89218">
        <ele>90</ele>
        <time>2019-01-27T13:57:25Z</time>
      </trkpt>
      <trkpt lat="48.32557" lon="2.89232">
        <ele>89</ele>
        <time>2019-01-27T13:57:35Z</time>
      </trkpt>
      <trkpt lat="48.32553" lon="2.89246">
        <ele>89</ele>
        <time>2019-01-27T13:57:44Z</time>
      </trkpt>
      <trkpt lat="48.32551" lon="2.89253">
        <ele>89</ele>
        <time>2019-01-27T13:57:49Z</time>
      </trkpt>
      <trkpt lat="48.32546" lon="2.8926">
        <ele>89</ele>
        <time>2019-01-27T13:57:56Z</time>
      </trkpt>
      <trkpt lat="48.32543" lon="2.89267">
        <ele>88</ele>
        <time>2019-01-27T13:58:00Z</time>
      </trkpt>
      <trkpt lat="48.32538" lon="2.89279">
        <ele>89</ele>
        <time>2019-01-27T13:58:08Z</time>
      </trkpt>
      <trkpt lat="48.32532" lon="2.89292">
        <ele>88</ele>
        <time>2019-01-27T13:58:16Z</time>
      </trkpt>
      <trkpt lat="48.3253" lon="2.89298">
        <ele>88</ele>
        <time>2019-01-27T13:58:20Z</time>
      </trkpt>
      <trkpt lat="48.32517" lon="2.89321">
        <ele>87</ele>
        <time>2019-01-27T13:58:36Z</time>
      </trkpt>
      <trkpt lat="48.32514" lon="2.89328">
        <ele>88</ele>
        <time>2019-01-27T13:58:40Z</time>
      </trkpt>
      <trkpt lat="48.32512" lon="2.89334">
        <ele>88</ele>
        <time>2019-01-27T13:58:44Z</time>
      </trkpt>
      <trkpt lat="48.32509" lon="2.89339">
        <ele>87</ele>
        <time>2019-01-27T13:58:48Z</time>
      </trkpt>
      <trkpt lat="48.32506" lon="2.89344">
        <ele>87</ele>
        <time>2019-01-27T13:58:52Z</time>
      </trkpt>
      <trkpt lat="48.32503" lon="2.8935">
        <ele>88</ele>
        <time>2019-01-27T13:58:56Z</time>
      </trkpt>
      <trkpt lat="48.32494" lon="2.8936">
        <ele>88</ele>
        <time>2019-01-27T13:59:04Z</time>
      </trkpt>
      <trkpt lat="48.32486" lon="2.89369">
        <ele>87</ele>
        <time>2019-01-27T13:59:12Z</time>
      </trkpt>
      <trkpt lat="48.32481" lon="2.8938">
        <ele>89</ele>
        <time>2019-01-27T13:59:22Z</time>
      </trkpt>
      <trkpt lat="48.3248" lon="2.89389">
        <ele>90</ele>
        <time>2019-01-27T13:59:29Z</time>
      </trkpt>
      <trkpt lat="48.3248" lon="2.89397">
        <ele>88</ele>
        <time>2019-01-27T13:59:33Z</time>
      </trkpt>
      <trkpt lat="48.32477" lon="2.89403">
        <ele>87</ele>
        <time>2019-01-27T13:59:37Z</time>
      </trkpt>
      <trkpt lat="48.32469" lon="2.89414">
        <ele>87</ele>
        <time>2019-01-27T13:59:45Z</time>
      </trkpt>
      <trkpt lat="48.3246" lon="2.8944">
        <ele>85</ele>
        <time>2019-01-27T14:00:01Z</time>
      </trkpt>
      <trkpt lat="48.32457" lon="2.89447">
        <ele>85</ele>
        <time>2019-01-27T14:00:05Z</time>
      </trkpt>
      <trkpt lat="48.32439" lon="2.89496">
        <ele>81</ele>
        <time>2019-01-27T14:00:38Z</time>
      </trkpt>
      <trkpt lat="48.32424" lon="2.89537">
        <ele>79</ele>
        <time>2019-01-27T14:01:02Z</time>
      </trkpt>
      <trkpt lat="48.32419" lon="2.89551">
        <ele>79</ele>
        <time>2019-01-27T14:01:10Z</time>
      </trkpt>
      <trkpt lat="48.32416" lon="2.89557">
        <ele>78</ele>
        <time>2019-01-27T14:01:13Z</time>
      </trkpt>
      <trkpt lat="48.32414" lon="2.89564">
        <ele>78</ele>
        <time>2019-01-27T14:01:17Z</time>
      </trkpt>
      <trkpt lat="48.32409" lon="2.89578">
        <ele>77</ele>
        <time>2019-01-27T14:01:25Z</time>
      </trkpt>
      <trkpt lat="48.32406" lon="2.89585">
        <ele>78</ele>
        <time>2019-01-27T14:01:29Z</time>
      </trkpt>
      <trkpt lat="48.32404" lon="2.89591">
        <ele>77</ele>
        <time>2019-01-27T14:01:33Z</time>
      </trkpt>
      <trkpt lat="48.32401" lon="2.89598">
        <ele>77</ele>
        <time>2019-01-27T14:01:37Z</time>
      </trkpt>
      <trkpt lat="48.32395" lon="2.89612">
        <ele>77</ele>
        <time>2019-01-27T14:01:45Z</time>
      </trkpt>
      <trkpt lat="48.32385" lon="2.89632">
        <ele>75</ele>
        <time>2019-01-27T14:01:57Z</time>
      </trkpt>
      <trkpt lat="48.32366" lon="2.89675">
        <ele>74</ele>
        <time>2019-01-27T14:02:21Z</time>
      </trkpt>
      <trkpt lat="48.32364" lon="2.89682">
        <ele>75</ele>
        <time>2019-01-27T14:02:25Z</time>
      </trkpt>
      <trkpt lat="48.32342" lon="2.89736">
        <ele>73</ele>
        <time>2019-01-27T14:02:57Z</time>
      </trkpt>
      <trkpt lat="48.32339" lon="2.89744">
        <ele>74</ele>
        <time>2019-01-27T14:03:01Z</time>
      </trkpt>
      <trkpt lat="48.32337" lon="2.89751">
        <ele>73</ele>
        <time>2019-01-27T14:03:05Z</time>
      </trkpt>
      <trkpt lat="48.32323" lon="2.89782">
        <ele>73</ele>
        <time>2019-01-27T14:03:25Z</time>
      </trkpt>
      <trkpt lat="48.3232" lon="2.89789">
        <ele>74</ele>
        <time>2019-01-27T14:03:29Z</time>
      </trkpt>
      <trkpt lat="48.32313" lon="2.89799">
        <ele>74</ele>
        <time>2019-01-27T14:03:36Z</time>
      </trkpt>
      <trkpt lat="48.32306" lon="2.89811">
        <ele>75</ele>
        <time>2019-01-27T14:03:44Z</time>
      </trkpt>
      <trkpt lat="48.32287" lon="2.89842">
        <ele>73</ele>
        <time>2019-01-27T14:04:05Z</time>
      </trkpt>
      <trkpt lat="48.32281" lon="2.89856">
        <ele>73</ele>
        <time>2019-01-27T14:04:13Z</time>
      </trkpt>
      <trkpt lat="48.32274" lon="2.89869">
        <ele>72</ele>
        <time>2019-01-27T14:04:21Z</time>
      </trkpt>
      <trkpt lat="48.32272" lon="2.89877">
        <ele>72</ele>
        <time>2019-01-27T14:04:25Z</time>
      </trkpt>
      <trkpt lat="48.32269" lon="2.89884">
        <ele>72</ele>
        <time>2019-01-27T14:04:29Z</time>
      </trkpt>
      <trkpt lat="48.32268" lon="2.89891">
        <ele>73</ele>
        <time>2019-01-27T14:04:33Z</time>
      </trkpt>
      <trkpt lat="48.32265" lon="2.89898">
        <ele>73</ele>
        <time>2019-01-27T14:04:37Z</time>
      </trkpt>
      <trkpt lat="48.32263" lon="2.89904">
        <ele>72</ele>
        <time>2019-01-27T14:04:40Z</time>
      </trkpt>
      <trkpt lat="48.32255" lon="2.89924">
        <ele>72</ele>
        <time>2019-01-27T14:04:51Z</time>
      </trkpt>
      <trkpt lat="48.32245" lon="2.89949">
        <ele>70</ele>
        <time>2019-01-27T14:05:04Z</time>
      </trkpt>
      <trkpt lat="48.32243" lon="2.89956">
        <ele>70</ele>
        <time>2019-01-27T14:05:08Z</time>
      </trkpt>
      <trkpt lat="48.3224" lon="2.89962">
        <ele>70</ele>
        <time>2019-01-27T14:05:12Z</time>
      </trkpt>
      <trkpt lat="48.32226" lon="2.89994">
        <ele>68</ele>
        <time>2019-01-27T14:05:32Z</time>
      </trkpt>
      <trkpt lat="48.32223" lon="2.9">
        <ele>68</ele>
        <time>2019-01-27T14:05:36Z</time>
      </trkpt>
      <trkpt lat="48.32219" lon="2.90006">
        <ele>68</ele>
        <time>2019-01-27T14:05:40Z</time>
      </trkpt>
      <trkpt lat="48.32215" lon="2.90011">
        <ele>67</ele>
        <time>2019-01-27T14:05:44Z</time>
      </trkpt>
      <trkpt lat="48.3221" lon="2.90025">
        <ele>67</ele>
        <time>2019-01-27T14:05:52Z</time>
      </trkpt>
      <trkpt lat="48.32209" lon="2.90032">
        <ele>67</ele>
        <time>2019-01-27T14:05:56Z</time>
      </trkpt>
      <trkpt lat="48.32208" lon="2.9004">
        <ele>67</ele>
        <time>2019-01-27T14:06:01Z</time>
      </trkpt>
      <trkpt lat="48.32206" lon="2.90048">
        <ele>68</ele>
        <time>2019-01-27T14:06:05Z</time>
      </trkpt>
      <trkpt lat="48.32205" lon="2.90055">
        <ele>67</ele>
        <time>2019-01-27T14:06:09Z</time>
      </trkpt>
      <trkpt lat="48.322" lon="2.9011">
        <ele>66</ele>
        <time>2019-01-27T14:06:37Z</time>
      </trkpt>
      <trkpt lat="48.32197" lon="2.90127">
        <ele>67</ele>
        <time>2019-01-27T14:06:45Z</time>
      </trkpt>
      <trkpt lat="48.32189" lon="2.90182">
        <ele>67</ele>
        <time>2019-01-27T14:07:12Z</time>
      </trkpt>
      <trkpt lat="48.32189" lon="2.9019">
        <ele>68</ele>
        <time>2019-01-27T14:07:16Z</time>
      </trkpt>
      <trkpt lat="48.32188" lon="2.90198">
        <ele>68</ele>
        <time>2019-01-27T14:07:20Z</time>
      </trkpt>
      <trkpt lat="48.32187" lon="2.90206">
        <ele>67</ele>
        <time>2019-01-27T14:07:24Z</time>
      </trkpt>
      <trkpt lat="48.32188" lon="2.90222">
        <ele>67</ele>
        <time>2019-01-27T14:07:32Z</time>
      </trkpt>
      <trkpt lat="48.32186" lon="2.90246">
        <ele>68</ele>
        <time>2019-01-27T14:07:44Z</time>
      </trkpt>
      <trkpt lat="48.32187" lon="2.90253">
        <ele>68</ele>
        <time>2019-01-27T14:07:48Z</time>
      </trkpt>
      <trkpt lat="48.32189" lon="2.90261">
        <ele>68</ele>
        <time>2019-01-27T14:07:52Z</time>
      </trkpt>
      <trkpt lat="48.32189" lon="2.90269">
        <ele>68</ele>
        <time>2019-01-27T14:07:57Z</time>
      </trkpt>
      <trkpt lat="48.3219" lon="2.90275">
        <ele>68</ele>
        <time>2019-01-27T14:08:02Z</time>
      </trkpt>
      <trkpt lat="48.32194" lon="2.90289">
        <ele>69</ele>
        <time>2019-01-27T14:08:11Z</time>
      </trkpt>
      <trkpt lat="48.32196" lon="2.90295">
        <ele>69</ele>
        <time>2019-01-27T14:08:15Z</time>
      </trkpt>
      <trkpt lat="48.32198" lon="2.90302">
        <ele>69</ele>
        <time>2019-01-27T14:08:20Z</time>
      </trkpt>
      <trkpt lat="48.322" lon="2.90326">
        <ele>71</ele>
        <time>2019-01-27T14:08:33Z</time>
      </trkpt>
      <trkpt lat="48.32203" lon="2.90341">
        <ele>71</ele>
        <time>2019-01-27T14:08:41Z</time>
      </trkpt>
      <trkpt lat="48.32207" lon="2.90387">
        <ele>72</ele>
        <time>2019-01-27T14:09:03Z</time>
      </trkpt>
      <trkpt lat="48.32213" lon="2.90404">
        <ele>72</ele>
        <time>2019-01-27T14:09:14Z</time>
      </trkpt>
      <trkpt lat="48.32217" lon="2.90418">
        <ele>72</ele>
        <time>2019-01-27T14:09:20Z</time>
      </trkpt>
      <trkpt lat="48.32227" lon="2.90443">
        <ele>73</ele>
        <time>2019-01-27T14:09:35Z</time>
      </trkpt>
      <trkpt lat="48.32233" lon="2.90453">
        <ele>73</ele>
        <time>2019-01-27T14:09:42Z</time>
      </trkpt>
      <trkpt lat="48.32241" lon="2.90463">
        <ele>75</ele>
        <time>2019-01-27T14:09:50Z</time>
      </trkpt>
      <trkpt lat="48.32254" lon="2.90483">
        <ele>75</ele>
        <time>2019-01-27T14:10:04Z</time>
      </trkpt>
      <trkpt lat="48.3226" lon="2.90494">
        <ele>75</ele>
        <time>2019-01-27T14:10:12Z</time>
      </trkpt>
      <trkpt lat="48.32289" lon="2.90533">
        <ele>79</ele>
        <time>2019-01-27T14:10:45Z</time>
      </trkpt>
      <trkpt lat="48.32308" lon="2.90553">
        <ele>83</ele>
        <time>2019-01-27T14:11:07Z</time>
      </trkpt>
      <trkpt lat="48.32313" lon="2.90557">
        <ele>83</ele>
        <time>2019-01-27T14:11:12Z</time>
      </trkpt>
      <trkpt lat="48.32329" lon="2.90572">
        <ele>87</ele>
        <time>2019-01-27T14:11:29Z</time>
      </trkpt>
      <trkpt lat="48.32337" lon="2.90583">
        <ele>86</ele>
        <time>2019-01-27T14:11:38Z</time>
      </trkpt>
      <trkpt lat="48.32345" lon="2.90591">
        <ele>87</ele>
        <time>2019-01-27T14:11:46Z</time>
      </trkpt>
      <trkpt lat="48.3235" lon="2.90593">
        <ele>87</ele>
        <time>2019-01-27T14:12:00Z</time>
      </trkpt>
      <trkpt lat="48.32356" lon="2.90604">
        <ele>87</ele>
        <time>2019-01-27T14:12:12Z</time>
      </trkpt>
      <trkpt lat="48.32363" lon="2.90605">
        <ele>87</ele>
        <time>2019-01-27T14:12:27Z</time>
      </trkpt>
      <trkpt lat="48.32362" lon="2.90606">
        <ele>86</ele>
        <time>2019-01-27T14:14:52Z</time>
      </trkpt>
      <trkpt lat="48.32369" lon="2.90612">
        <ele>88</ele>
        <time>2019-01-27T14:18:28Z</time>
      </trkpt>
      <trkpt lat="48.32374" lon="2.90614">
        <ele>89</ele>
        <time>2019-01-27T14:18:32Z</time>
      </trkpt>
      <trkpt lat="48.32379" lon="2.90616">
        <ele>89</ele>
        <time>2019-01-27T14:18:37Z</time>
      </trkpt>
      <trkpt lat="48.32393" lon="2.90621">
        <ele>91</ele>
        <time>2019-01-27T14:18:50Z</time>
      </trkpt>
      <trkpt lat="48.32421" lon="2.90632">
        <ele>92</ele>
        <time>2019-01-27T14:19:16Z</time>
      </trkpt>
      <trkpt lat="48.32426" lon="2.90635">
        <ele>92</ele>
        <time>2019-01-27T14:19:21Z</time>
      </trkpt>
      <trkpt lat="48.32436" lon="2.9064">
        <ele>93</ele>
        <time>2019-01-27T14:19:31Z</time>
      </trkpt>
      <trkpt lat="48.32442" lon="2.90641">
        <ele>93</ele>
        <time>2019-01-27T14:19:36Z</time>
      </trkpt>
      <trkpt lat="48.32447" lon="2.90642">
        <ele>93</ele>
        <time>2019-01-27T14:19:40Z</time>
      </trkpt>
      <trkpt lat="48.32481" lon="2.90648">
        <ele>95</ele>
        <time>2019-01-27T14:20:11Z</time>
      </trkpt>
      <trkpt lat="48.32485" lon="2.9065">
        <ele>95</ele>
        <time>2019-01-27T14:20:15Z</time>
      </trkpt>
      <trkpt lat="48.32494" lon="2.90652">
        <ele>97</ele>
        <time>2019-01-27T14:20:24Z</time>
      </trkpt>
      <trkpt lat="48.32498" lon="2.90657">
        <ele>98</ele>
        <time>2019-01-27T14:20:28Z</time>
      </trkpt>
      <trkpt lat="48.32502" lon="2.90661">
        <ele>97</ele>
        <time>2019-01-27T14:20:32Z</time>
      </trkpt>
      <trkpt lat="48.32506" lon="2.90663">
        <ele>97</ele>
        <time>2019-01-27T14:20:36Z</time>
      </trkpt>
      <trkpt lat="48.32531" lon="2.90675">
        <ele>98</ele>
        <time>2019-01-27T14:20:59Z</time>
      </trkpt>
      <trkpt lat="48.32536" lon="2.90677">
        <ele>100</ele>
        <time>2019-01-27T14:21:04Z</time>
      </trkpt>
      <trkpt lat="48.32541" lon="2.9068">
        <ele>100</ele>
        <time>2019-01-27T14:21:09Z</time>
      </trkpt>
      <trkpt lat="48.3255" lon="2.90684">
        <ele>100</ele>
        <time>2019-01-27T14:21:18Z</time>
      </trkpt>
      <trkpt lat="48.32555" lon="2.90685">
        <ele>101</ele>
        <time>2019-01-27T14:21:22Z</time>
      </trkpt>
      <trkpt lat="48.32569" lon="2.90692">
        <ele>101</ele>
        <time>2019-01-27T14:21:35Z</time>
      </trkpt>
      <trkpt lat="48.32574" lon="2.90696">
        <ele>101</ele>
        <time>2019-01-27T14:21:40Z</time>
      </trkpt>
      <trkpt lat="48.32579" lon="2.90698">
        <ele>102</ele>
        <time>2019-01-27T14:21:45Z</time>
      </trkpt>
      <trkpt lat="48.32584" lon="2.907">
        <ele>102</ele>
        <time>2019-01-27T14:21:50Z</time>
      </trkpt>
      <trkpt lat="48.32599" lon="2.90709">
        <ele>102</ele>
        <time>2019-01-27T14:22:04Z</time>
      </trkpt>
      <trkpt lat="48.32604" lon="2.90712">
        <ele>103</ele>
        <time>2019-01-27T14:22:08Z</time>
      </trkpt>
      <trkpt lat="48.32613" lon="2.90718">
        <ele>103</ele>
        <time>2019-01-27T14:22:17Z</time>
      </trkpt>
      <trkpt lat="48.32618" lon="2.90721">
        <ele>104</ele>
        <time>2019-01-27T14:22:22Z</time>
      </trkpt>
      <trkpt lat="48.32628" lon="2.90728">
        <ele>104</ele>
        <time>2019-01-27T14:22:32Z</time>
      </trkpt>
      <trkpt lat="48.32632" lon="2.90729">
        <ele>104</ele>
        <time>2019-01-27T14:22:36Z</time>
      </trkpt>
      <trkpt lat="48.32648" lon="2.90735">
        <ele>105</ele>
        <time>2019-01-27T14:22:51Z</time>
      </trkpt>
      <trkpt lat="48.32661" lon="2.90745">
        <ele>106</ele>
        <time>2019-01-27T14:23:04Z</time>
      </trkpt>
      <trkpt lat="48.3267" lon="2.9075">
        <ele>106</ele>
        <time>2019-01-27T14:23:12Z</time>
      </trkpt>
      <trkpt lat="48.32696" lon="2.90768">
        <ele>107</ele>
        <time>2019-01-27T14:23:37Z</time>
      </trkpt>
      <trkpt lat="48.32701" lon="2.90773">
        <ele>107</ele>
        <time>2019-01-27T14:23:42Z</time>
      </trkpt>
      <trkpt lat="48.32706" lon="2.90777">
        <ele>107</ele>
        <time>2019-01-27T14:23:47Z</time>
      </trkpt>
      <trkpt lat="48.3271" lon="2.90781">
        <ele>107</ele>
        <time>2019-01-27T14:23:51Z</time>
      </trkpt>
      <trkpt lat="48.32724" lon="2.90789">
        <ele>107</ele>
        <time>2019-01-27T14:24:03Z</time>
      </trkpt>
      <trkpt lat="48.32732" lon="2.90797">
        <ele>108</ele>
        <time>2019-01-27T14:24:11Z</time>
      </trkpt>
      <trkpt lat="48.32737" lon="2.90799">
        <ele>108</ele>
        <time>2019-01-27T14:24:15Z</time>
      </trkpt>
      <trkpt lat="48.32745" lon="2.90809">
        <ele>108</ele>
        <time>2019-01-27T14:24:23Z</time>
      </trkpt>
      <trkpt lat="48.3275" lon="2.90812">
        <ele>107</ele>
        <time>2019-01-27T14:24:28Z</time>
      </trkpt>
      <trkpt lat="48.32755" lon="2.90816">
        <ele>108</ele>
        <time>2019-01-27T14:24:33Z</time>
      </trkpt>
      <trkpt lat="48.32777" lon="2.90831">
        <ele>108</ele>
        <time>2019-01-27T14:24:53Z</time>
      </trkpt>
      <trkpt lat="48.3279" lon="2.90842">
        <ele>109</ele>
        <time>2019-01-27T14:25:07Z</time>
      </trkpt>
      <trkpt lat="48.32794" lon="2.90846">
        <ele>109</ele>
        <time>2019-01-27T14:25:11Z</time>
      </trkpt>
      <trkpt lat="48.32798" lon="2.9085">
        <ele>109</ele>
        <time>2019-01-27T14:25:15Z</time>
      </trkpt>
      <trkpt lat="48.32819" lon="2.90869">
        <ele>108</ele>
        <time>2019-01-27T14:25:35Z</time>
      </trkpt>
      <trkpt lat="48.32823" lon="2.90873">
        <ele>109</ele>
        <time>2019-01-27T14:25:39Z</time>
      </trkpt>
      <trkpt lat="48.32827" lon="2.90877">
        <ele>109</ele>
        <time>2019-01-27T14:25:43Z</time>
      </trkpt>
      <trkpt lat="48.3285" lon="2.90903">
        <ele>107</ele>
        <time>2019-01-27T14:26:08Z</time>
      </trkpt>
      <trkpt lat="48.32858" lon="2.90912">
        <ele>108</ele>
        <time>2019-01-27T14:26:25Z</time>
      </trkpt>
      <trkpt lat="48.32861" lon="2.90917">
        <ele>109</ele>
        <time>2019-01-27T14:26:29Z</time>
      </trkpt>
      <trkpt lat="48.32865" lon="2.90922">
        <ele>109</ele>
        <time>2019-01-27T14:26:34Z</time>
      </trkpt>
      <trkpt lat="48.32883" lon="2.90937">
        <ele>109</ele>
        <time>2019-01-27T14:26:52Z</time>
      </trkpt>
      <trkpt lat="48.32904" lon="2.90959">
        <ele>110</ele>
        <time>2019-01-27T14:27:15Z</time>
      </trkpt>
      <trkpt lat="48.32908" lon="2.90963">
        <ele>110</ele>
        <time>2019-01-27T14:27:19Z</time>
      </trkpt>
      <trkpt lat="48.32924" lon="2.90981">
        <ele>112</ele>
        <time>2019-01-27T14:27:36Z</time>
      </trkpt>
      <trkpt lat="48.32928" lon="2.90985">
        <ele>111</ele>
        <time>2019-01-27T14:27:40Z</time>
      </trkpt>
      <trkpt lat="48.32937" lon="2.90993">
        <ele>111</ele>
        <time>2019-01-27T14:27:48Z</time>
      </trkpt>
      <trkpt lat="48.32942" lon="2.90997">
        <ele>112</ele>
        <time>2019-01-27T14:27:52Z</time>
      </trkpt>
      <trkpt lat="48.32946" lon="2.91002">
        <ele>112</ele>
        <time>2019-01-27T14:27:57Z</time>
      </trkpt>
      <trkpt lat="48.32954" lon="2.9101">
        <ele>112</ele>
        <time>2019-01-27T14:28:05Z</time>
      </trkpt>
      <trkpt lat="48.32958" lon="2.91015">
        <ele>112</ele>
        <time>2019-01-27T14:28:10Z</time>
      </trkpt>
      <trkpt lat="48.32975" lon="2.91032">
        <ele>113</ele>
        <time>2019-01-27T14:28:28Z</time>
      </trkpt>
      <trkpt lat="48.32978" lon="2.91036">
        <ele>112</ele>
        <time>2019-01-27T14:28:32Z</time>
      </trkpt>
      <trkpt lat="48.32983" lon="2.91041">
        <ele>113</ele>
        <time>2019-01-27T14:28:37Z</time>
      </trkpt>
      <trkpt lat="48.32987" lon="2.91046">
        <ele>113</ele>
        <time>2019-01-27T14:28:41Z</time>
      </trkpt>
      <trkpt lat="48.32991" lon="2.91049">
        <ele>114</ele>
        <time>2019-01-27T14:28:45Z</time>
      </trkpt>
      <trkpt lat="48.32995" lon="2.91054">
        <ele>113</ele>
        <time>2019-01-27T14:28:50Z</time>
      </trkpt>
      <trkpt lat="48.33004" lon="2.91062">
        <ele>115</ele>
        <time>2019-01-27T14:28:59Z</time>
      </trkpt>
      <trkpt lat="48.33012" lon="2.9107">
        <ele>115</ele>
        <time>2019-01-27T14:29:07Z</time>
      </trkpt>
      <trkpt lat="48.3302" lon="2.91078">
        <ele>115</ele>
        <time>2019-01-27T14:29:15Z</time>
      </trkpt>
      <trkpt lat="48.33025" lon="2.91083">
        <ele>116</ele>
        <time>2019-01-27T14:29:20Z</time>
      </trkpt>
      <trkpt lat="48.33034" lon="2.91092">
        <ele>117</ele>
        <time>2019-01-27T14:29:29Z</time>
      </trkpt>
      <trkpt lat="48.33038" lon="2.91094">
        <ele>117</ele>
        <time>2019-01-27T14:29:33Z</time>
      </trkpt>
      <trkpt lat="48.33042" lon="2.91098">
        <ele>116</ele>
        <time>2019-01-27T14:29:37Z</time>
      </trkpt>
      <trkpt lat="48.33072" lon="2.91122">
        <ele>117</ele>
        <time>2019-01-27T14:30:05Z</time>
      </trkpt>
      <trkpt lat="48.33081" lon="2.91127">
        <ele>116</ele>
        <time>2019-01-27T14:30:13Z</time>
      </trkpt>
      <trkpt lat="48.33107" lon="2.91152">
        <ele>117</ele>
        <time>2019-01-27T14:30:37Z</time>
      </trkpt>
      <trkpt lat="48.33111" lon="2.91155">
        <ele>117</ele>
        <time>2019-01-27T14:30:41Z</time>
      </trkpt>
      <trkpt lat="48.33116" lon="2.91159">
        <ele>118</ele>
        <time>2019-01-27T14:30:45Z</time>
      </trkpt>
      <trkpt lat="48.33129" lon="2.9117">
        <ele>116</ele>
        <time>2019-01-27T14:30:58Z</time>
      </trkpt>
      <trkpt lat="48.33138" lon="2.91176">
        <ele>117</ele>
        <time>2019-01-27T14:31:06Z</time>
      </trkpt>
      <trkpt lat="48.33147" lon="2.91183">
        <ele>116</ele>
        <time>2019-01-27T14:31:14Z</time>
      </trkpt>
      <trkpt lat="48.33169" lon="2.91205">
        <ele>115</ele>
        <time>2019-01-27T14:31:34Z</time>
      </trkpt>
      <trkpt lat="48.33173" lon="2.91208">
        <ele>116</ele>
        <time>2019-01-27T14:31:38Z</time>
      </trkpt>
      <trkpt lat="48.33178" lon="2.91212">
        <ele>115</ele>
        <time>2019-01-27T14:31:42Z</time>
      </trkpt>
      <trkpt lat="48.33183" lon="2.91214">
        <ele>116</ele>
        <time>2019-01-27T14:31:47Z</time>
      </trkpt>
      <trkpt lat="48.33187" lon="2.91218">
        <ele>116</ele>
        <time>2019-01-27T14:31:51Z</time>
      </trkpt>
      <trkpt lat="48.33191" lon="2.91221">
        <ele>115</ele>
        <time>2019-01-27T14:31:55Z</time>
      </trkpt>
      <trkpt lat="48.33196" lon="2.91223">
        <ele>114</ele>
        <time>2019-01-27T14:31:59Z</time>
      </trkpt>
      <trkpt lat="48.33214" lon="2.91235">
        <ele>115</ele>
        <time>2019-01-27T14:32:15Z</time>
      </trkpt>
      <trkpt lat="48.33218" lon="2.9124">
        <ele>115</ele>
        <time>2019-01-27T14:32:19Z</time>
      </trkpt>
      <trkpt lat="48.33222" lon="2.91245">
        <ele>114</ele>
        <time>2019-01-27T14:32:23Z</time>
      </trkpt>
      <trkpt lat="48.33234" lon="2.91257">
        <ele>115</ele>
        <time>2019-01-27T14:32:35Z</time>
      </trkpt>
      <trkpt lat="48.33239" lon="2.91261">
        <ele>114</ele>
        <time>2019-01-27T14:32:40Z</time>
      </trkpt>
      <trkpt lat="48.33243" lon="2.91265">
        <ele>114</ele>
        <time>2019-01-27T14:32:44Z</time>
      </trkpt>
      <trkpt lat="48.33247" lon="2.91268">
        <ele>114</ele>
        <time>2019-01-27T14:32:49Z</time>
      </trkpt>
      <trkpt lat="48.33252" lon="2.91272">
        <ele>114</ele>
        <time>2019-01-27T14:32:53Z</time>
      </trkpt>
      <trkpt lat="48.33256" lon="2.91277">
        <ele>114</ele>
        <time>2019-01-27T14:32:57Z</time>
      </trkpt>
      <trkpt lat="48.3326" lon="2.91283">
        <ele>114</ele>
        <time>2019-01-27T14:33:02Z</time>
      </trkpt>
      <trkpt lat="48.33276" lon="2.91297">
        <ele>113</ele>
        <time>2019-01-27T14:33:18Z</time>
      </trkpt>
      <trkpt lat="48.33285" lon="2.91306">
        <ele>113</ele>
        <time>2019-01-27T14:33:26Z</time>
      </trkpt>
      <trkpt lat="48.33293" lon="2.91313">
        <ele>113</ele>
        <time>2019-01-27T14:33:34Z</time>
      </trkpt>
      <trkpt lat="48.33302" lon="2.91322">
        <ele>112</ele>
        <time>2019-01-27T14:33:42Z</time>
      </trkpt>
      <trkpt lat="48.33306" lon="2.91326">
        <ele>112</ele>
        <time>2019-01-27T14:33:46Z</time>
      </trkpt>
      <trkpt lat="48.33311" lon="2.91329">
        <ele>112</ele>
        <time>2019-01-27T14:33:50Z</time>
      </trkpt>
      <trkpt lat="48.33319" lon="2.91338">
        <ele>112</ele>
        <time>2019-01-27T14:33:59Z</time>
      </trkpt>
      <trkpt lat="48.33323" lon="2.91342">
        <ele>113</ele>
        <time>2019-01-27T14:34:03Z</time>
      </trkpt>
      <trkpt lat="48.33331" lon="2.9135">
        <ele>112</ele>
        <time>2019-01-27T14:34:11Z</time>
      </trkpt>
      <trkpt lat="48.33336" lon="2.91354">
        <ele>112</ele>
        <time>2019-01-27T14:34:15Z</time>
      </trkpt>
      <trkpt lat="48.33361" lon="2.91382">
        <ele>111</ele>
        <time>2019-01-27T14:34:39Z</time>
      </trkpt>
      <trkpt lat="48.33374" lon="2.91396">
        <ele>112</ele>
        <time>2019-01-27T14:34:51Z</time>
      </trkpt>
      <trkpt lat="48.33388" lon="2.91408">
        <ele>110</ele>
        <time>2019-01-27T14:35:03Z</time>
      </trkpt>
      <trkpt lat="48.33393" lon="2.91411">
        <ele>110</ele>
        <time>2019-01-27T14:35:07Z</time>
      </trkpt>
      <trkpt lat="48.33397" lon="2.91414">
        <ele>111</ele>
        <time>2019-01-27T14:35:11Z</time>
      </trkpt>
      <trkpt lat="48.33402" lon="2.91415">
        <ele>111</ele>
        <time>2019-01-27T14:35:15Z</time>
      </trkpt>
      <trkpt lat="48.33407" lon="2.91417">
        <ele>109</ele>
        <time>2019-01-27T14:35:19Z</time>
      </trkpt>
      <trkpt lat="48.33446" lon="2.9142">
        <ele>110</ele>
        <time>2019-01-27T14:35:51Z</time>
      </trkpt>
      <trkpt lat="48.33451" lon="2.9142">
        <ele>109</ele>
        <time>2019-01-27T14:35:55Z</time>
      </trkpt>
      <trkpt lat="48.33462" lon="2.91421">
        <ele>109</ele>
        <time>2019-01-27T14:36:03Z</time>
      </trkpt>
      <trkpt lat="48.33477" lon="2.91424">
        <ele>110</ele>
        <time>2019-01-27T14:36:15Z</time>
      </trkpt>
      <trkpt lat="48.33501" lon="2.91436">
        <ele>109</ele>
        <time>2019-01-27T14:36:35Z</time>
      </trkpt>
      <trkpt lat="48.33506" lon="2.91438">
        <ele>110</ele>
        <time>2019-01-27T14:36:39Z</time>
      </trkpt>
      <trkpt lat="48.3351" lon="2.91441">
        <ele>110</ele>
        <time>2019-01-27T14:36:43Z</time>
      </trkpt>
      <trkpt lat="48.3352" lon="2.91446">
        <ele>109</ele>
        <time>2019-01-27T14:36:51Z</time>
      </trkpt>
      <trkpt lat="48.33539" lon="2.91457">
        <ele>108</ele>
        <time>2019-01-27T14:37:07Z</time>
      </trkpt>
      <trkpt lat="48.33544" lon="2.91459">
        <ele>107</ele>
        <time>2019-01-27T14:37:11Z</time>
      </trkpt>
      <trkpt lat="48.33549" lon="2.91462">
        <ele>107</ele>
        <time>2019-01-27T14:37:15Z</time>
      </trkpt>
      <trkpt lat="48.33585" lon="2.91488">
        <ele>104</ele>
        <time>2019-01-27T14:37:47Z</time>
      </trkpt>
      <trkpt lat="48.33609" lon="2.91503">
        <ele>102</ele>
        <time>2019-01-27T14:38:09Z</time>
      </trkpt>
      <trkpt lat="48.33627" lon="2.91509">
        <ele>101</ele>
        <time>2019-01-27T14:38:26Z</time>
      </trkpt>
      <trkpt lat="48.33633" lon="2.91509">
        <ele>101</ele>
        <time>2019-01-27T14:38:31Z</time>
      </trkpt>
      <trkpt lat="48.33643" lon="2.91516">
        <ele>100</ele>
        <time>2019-01-27T14:38:39Z</time>
      </trkpt>
      <trkpt lat="48.33652" lon="2.91521">
        <ele>100</ele>
        <time>2019-01-27T14:38:47Z</time>
      </trkpt>
      <trkpt lat="48.33675" lon="2.91533">
        <ele>98</ele>
        <time>2019-01-27T14:39:08Z</time>
      </trkpt>
      <trkpt lat="48.33681" lon="2.91542">
        <ele>98</ele>
        <time>2019-01-27T14:39:19Z</time>
      </trkpt>
      <trkpt lat="48.33686" lon="2.91544">
        <ele>98</ele>
        <time>2019-01-27T14:39:42Z</time>
      </trkpt>
      <trkpt lat="48.33686" lon="2.91544">
        <ele>98</ele>
        <time>2019-01-27T14:41:08Z</time>
      </trkpt>
      <trkpt lat="48.33689" lon="2.91548">
        <ele>96</ele>
        <time>2019-01-27T14:49:24Z</time>
      </trkpt>
      <trkpt lat="48.33695" lon="2.91549">
        <ele>96</ele>
        <time>2019-01-27T14:49:30Z</time>
      </trkpt>
      <trkpt lat="48.33709" lon="2.91554">
        <ele>95</ele>
        <time>2019-01-27T14:49:47Z</time>
      </trkpt>
      <trkpt lat="48.33717" lon="2.91564">
        <ele>95</ele>
        <time>2019-01-27T14:49:57Z</time>
      </trkpt>
      <trkpt lat="48.33725" lon="2.91569">
        <ele>94</ele>
        <time>2019-01-27T14:50:07Z</time>
      </trkpt>
      <trkpt lat="48.33735" lon="2.91577">
        <ele>93</ele>
        <time>2019-01-27T14:50:15Z</time>
      </trkpt>
      <trkpt lat="48.33762" lon="2.91595">
        <ele>92</ele>
        <time>2019-01-27T14:50:49Z</time>
      </trkpt>
      <trkpt lat="48.33795" lon="2.91617">
        <ele>90</ele>
        <time>2019-01-27T14:51:28Z</time>
      </trkpt>
      <trkpt lat="48.33802" lon="2.91625">
        <ele>91</ele>
        <time>2019-01-27T14:51:57Z</time>
      </trkpt>
      <trkpt lat="48.33812" lon="2.91634">
        <ele>90</ele>
        <time>2019-01-27T14:52:07Z</time>
      </trkpt>
      <trkpt lat="48.33815" lon="2.91638">
        <ele>90</ele>
        <time>2019-01-27T14:52:12Z</time>
      </trkpt>
      <trkpt lat="48.33821" lon="2.91641">
        <ele>89</ele>
        <time>2019-01-27T14:52:17Z</time>
      </trkpt>
      <trkpt lat="48.33825" lon="2.91643">
        <ele>89</ele>
        <time>2019-01-27T14:52:21Z</time>
      </trkpt>
      <trkpt lat="48.33829" lon="2.91647">
        <ele>89</ele>
        <time>2019-01-27T14:52:25Z</time>
      </trkpt>
      <trkpt lat="48.33834" lon="2.91653">
        <ele>88</ele>
        <time>2019-01-27T14:52:30Z</time>
      </trkpt>
      <trkpt lat="48.33838" lon="2.91655">
        <ele>88</ele>
        <time>2019-01-27T14:52:33Z</time>
      </trkpt>
      <trkpt lat="48.33847" lon="2.9166">
        <ele>88</ele>
        <time>2019-01-27T14:52:39Z</time>
      </trkpt>
      <trkpt lat="48.33861" lon="2.9167">
        <ele>88</ele>
        <time>2019-01-27T14:52:49Z</time>
      </trkpt>
      <trkpt lat="48.33866" lon="2.91672">
        <ele>87</ele>
        <time>2019-01-27T14:52:53Z</time>
      </trkpt>
      <trkpt lat="48.33873" lon="2.91681">
        <ele>86</ele>
        <time>2019-01-27T14:53:00Z</time>
      </trkpt>
      <trkpt lat="48.33878" lon="2.91685">
        <ele>86</ele>
        <time>2019-01-27T14:53:04Z</time>
      </trkpt>
      <trkpt lat="48.33882" lon="2.91688">
        <ele>87</ele>
        <time>2019-01-27T14:53:08Z</time>
      </trkpt>
      <trkpt lat="48.33886" lon="2.91693">
        <ele>86</ele>
        <time>2019-01-27T14:53:13Z</time>
      </trkpt>
      <trkpt lat="48.33901" lon="2.91704">
        <ele>86</ele>
        <time>2019-01-27T14:53:25Z</time>
      </trkpt>
      <trkpt lat="48.33905" lon="2.91709">
        <ele>86</ele>
        <time>2019-01-27T14:53:30Z</time>
      </trkpt>
      <trkpt lat="48.33927" lon="2.91731">
        <ele>85</ele>
        <time>2019-01-27T14:53:50Z</time>
      </trkpt>
      <trkpt lat="48.33935" lon="2.91741">
        <ele>85</ele>
        <time>2019-01-27T14:53:59Z</time>
      </trkpt>
      <trkpt lat="48.33937" lon="2.91747">
        <ele>85</ele>
        <time>2019-01-27T14:54:03Z</time>
      </trkpt>
      <trkpt lat="48.3394" lon="2.91752">
        <ele>85</ele>
        <time>2019-01-27T14:54:07Z</time>
      </trkpt>
      <trkpt lat="48.33944" lon="2.91757">
        <ele>85</ele>
        <time>2019-01-27T14:54:12Z</time>
      </trkpt>
      <trkpt lat="48.33949" lon="2.91761">
        <ele>84</ele>
        <time>2019-01-27T14:54:17Z</time>
      </trkpt>
      <trkpt lat="48.33957" lon="2.9177">
        <ele>83</ele>
        <time>2019-01-27T14:54:25Z</time>
      </trkpt>
      <trkpt lat="48.33962" lon="2.91774">
        <ele>83</ele>
        <time>2019-01-27T14:54:29Z</time>
      </trkpt>
      <trkpt lat="48.33971" lon="2.91782">
        <ele>83</ele>
        <time>2019-01-27T14:54:37Z</time>
      </trkpt>
      <trkpt lat="48.33975" lon="2.91786">
        <ele>82</ele>
        <time>2019-01-27T14:54:41Z</time>
      </trkpt>
      <trkpt lat="48.33984" lon="2.91796">
        <ele>83</ele>
        <time>2019-01-27T14:54:51Z</time>
      </trkpt>
      <trkpt lat="48.33997" lon="2.91809">
        <ele>82</ele>
        <time>2019-01-27T14:55:03Z</time>
      </trkpt>
      <trkpt lat="48.34019" lon="2.91831">
        <ele>82</ele>
        <time>2019-01-27T14:55:23Z</time>
      </trkpt>
      <trkpt lat="48.34023" lon="2.91835">
        <ele>82</ele>
        <time>2019-01-27T14:55:27Z</time>
      </trkpt>
      <trkpt lat="48.3403" lon="2.91845">
        <ele>82</ele>
        <time>2019-01-27T14:55:35Z</time>
      </trkpt>
      <trkpt lat="48.34035" lon="2.9185">
        <ele>82</ele>
        <time>2019-01-27T14:55:40Z</time>
      </trkpt>
      <trkpt lat="48.34039" lon="2.91854">
        <ele>82</ele>
        <time>2019-01-27T14:55:44Z</time>
      </trkpt>
      <trkpt lat="48.34048" lon="2.91862">
        <ele>81</ele>
        <time>2019-01-27T14:55:52Z</time>
      </trkpt>
      <trkpt lat="48.34058" lon="2.91869">
        <ele>81</ele>
        <time>2019-01-27T14:56:00Z</time>
      </trkpt>
      <trkpt lat="48.34089" lon="2.91907">
        <ele>82</ele>
        <time>2019-01-27T14:56:33Z</time>
      </trkpt>
      <trkpt lat="48.34092" lon="2.91912">
        <ele>82</ele>
        <time>2019-01-27T14:56:37Z</time>
      </trkpt>
      <trkpt lat="48.3411" lon="2.91928">
        <ele>82</ele>
        <time>2019-01-27T14:56:53Z</time>
      </trkpt>
      <trkpt lat="48.34115" lon="2.91936">
        <ele>82</ele>
        <time>2019-01-27T14:57:00Z</time>
      </trkpt>
      <trkpt lat="48.34124" lon="2.91945">
        <ele>82</ele>
        <time>2019-01-27T14:57:09Z</time>
      </trkpt>
      <trkpt lat="48.34131" lon="2.91957">
        <ele>82</ele>
        <time>2019-01-27T14:57:20Z</time>
      </trkpt>
      <trkpt lat="48.34135" lon="2.9196">
        <ele>81</ele>
        <time>2019-01-27T14:57:24Z</time>
      </trkpt>
      <trkpt lat="48.34139" lon="2.91966">
        <ele>81</ele>
        <time>2019-01-27T14:57:29Z</time>
      </trkpt>
      <trkpt lat="48.34143" lon="2.91973">
        <ele>82</ele>
        <time>2019-01-27T14:57:34Z</time>
      </trkpt>
      <trkpt lat="48.34148" lon="2.91985">
        <ele>83</ele>
        <time>2019-01-27T14:57:43Z</time>
      </trkpt>
      <trkpt lat="48.34154" lon="2.91999">
        <ele>82</ele>
        <time>2019-01-27T14:57:53Z</time>
      </trkpt>
      <trkpt lat="48.34157" lon="2.92005">
        <ele>83</ele>
        <time>2019-01-27T14:57:58Z</time>
      </trkpt>
      <trkpt lat="48.34159" lon="2.92014">
        <ele>82</ele>
        <time>2019-01-27T14:58:05Z</time>
      </trkpt>
      <trkpt lat="48.34166" lon="2.92024">
        <ele>82</ele>
        <time>2019-01-27T14:58:13Z</time>
      </trkpt>
      <trkpt lat="48.34174" lon="2.92033">
        <ele>82</ele>
        <time>2019-01-27T14:58:21Z</time>
      </trkpt>
      <trkpt lat="48.34177" lon="2.92038">
        <ele>82</ele>
        <time>2019-01-27T14:58:25Z</time>
      </trkpt>
      <trkpt lat="48.34181" lon="2.92044">
        <ele>82</ele>
        <time>2019-01-27T14:58:29Z</time>
      </trkpt>
      <trkpt lat="48.34188" lon="2.92054">
        <ele>81</ele>
        <time>2019-01-27T14:58:37Z</time>
      </trkpt>
      <trkpt lat="48.34192" lon="2.92059">
        <ele>81</ele>
        <time>2019-01-27T14:58:41Z</time>
      </trkpt>
      <trkpt lat="48.34196" lon="2.92064">
        <ele>81</ele>
        <time>2019-01-27T14:58:45Z</time>
      </trkpt>
      <trkpt lat="48.342" lon="2.92069">
        <ele>80</ele>
        <time>2019-01-27T14:58:49Z</time>
      </trkpt>
      <trkpt lat="48.34207" lon="2.92077">
        <ele>81</ele>
        <time>2019-01-27T14:58:57Z</time>
      </trkpt>
      <trkpt lat="48.34211" lon="2.9208">
        <ele>81</ele>
        <time>2019-01-27T14:59:01Z</time>
      </trkpt>
      <trkpt lat="48.34215" lon="2.92084">
        <ele>81</ele>
        <time>2019-01-27T14:59:05Z</time>
      </trkpt>
      <trkpt lat="48.34219" lon="2.92088">
        <ele>80</ele>
        <time>2019-01-27T14:59:10Z</time>
      </trkpt>
      <trkpt lat="48.34228" lon="2.92096">
        <ele>80</ele>
        <time>2019-01-27T14:59:19Z</time>
      </trkpt>
      <trkpt lat="48.34264" lon="2.92122">
        <ele>78</ele>
        <time>2019-01-27T14:59:52Z</time>
      </trkpt>
      <trkpt lat="48.34278" lon="2.9213">
        <ele>77</ele>
        <time>2019-01-27T15:00:05Z</time>
      </trkpt>
      <trkpt lat="48.34284" lon="2.92135">
        <ele>78</ele>
        <time>2019-01-27T15:00:12Z</time>
      </trkpt>
      <trkpt lat="48.34288" lon="2.92138">
        <ele>78</ele>
        <time>2019-01-27T15:00:17Z</time>
      </trkpt>
      <trkpt lat="48.34302" lon="2.92148">
        <ele>77</ele>
        <time>2019-01-27T15:00:30Z</time>
      </trkpt>
      <trkpt lat="48.3434" lon="2.92171">
        <ele>76</ele>
        <time>2019-01-27T15:01:03Z</time>
      </trkpt>
      <trkpt lat="48.34345" lon="2.92174">
        <ele>76</ele>
        <time>2019-01-27T15:01:07Z</time>
      </trkpt>
      <trkpt lat="48.34383" lon="2.92193">
        <ele>73</ele>
        <time>2019-01-27T15:01:40Z</time>
      </trkpt>
      <trkpt lat="48.34416" lon="2.92222">
        <ele>72</ele>
        <time>2019-01-27T15:02:08Z</time>
      </trkpt>
      <trkpt lat="48.34424" lon="2.92232">
        <ele>72</ele>
        <time>2019-01-27T15:02:16Z</time>
      </trkpt>
      <trkpt lat="48.34428" lon="2.92236">
        <ele>71</ele>
        <time>2019-01-27T15:02:20Z</time>
      </trkpt>
      <trkpt lat="48.3444" lon="2.92251">
        <ele>72</ele>
        <time>2019-01-27T15:02:32Z</time>
      </trkpt>
      <trkpt lat="48.34444" lon="2.92257">
        <ele>71</ele>
        <time>2019-01-27T15:02:37Z</time>
      </trkpt>
      <trkpt lat="48.34448" lon="2.92263">
        <ele>71</ele>
        <time>2019-01-27T15:02:42Z</time>
      </trkpt>
      <trkpt lat="48.34483" lon="2.92311">
        <ele>70</ele>
        <time>2019-01-27T15:03:16Z</time>
      </trkpt>
      <trkpt lat="48.34487" lon="2.92317">
        <ele>70</ele>
        <time>2019-01-27T15:03:20Z</time>
      </trkpt>
      <trkpt lat="48.3451" lon="2.92343">
        <ele>70</ele>
        <time>2019-01-27T15:03:42Z</time>
      </trkpt>
      <trkpt lat="48.34523" lon="2.92363">
        <ele>70</ele>
        <time>2019-01-27T15:03:56Z</time>
      </trkpt>
      <trkpt lat="48.34531" lon="2.92371">
        <ele>71</ele>
        <time>2019-01-27T15:04:04Z</time>
      </trkpt>
      <trkpt lat="48.34535" lon="2.92376">
        <ele>71</ele>
        <time>2019-01-27T15:04:09Z</time>
      </trkpt>
      <trkpt lat="48.34541" lon="2.92388">
        <ele>72</ele>
        <time>2019-01-27T15:04:17Z</time>
      </trkpt>
      <trkpt lat="48.34545" lon="2.92394">
        <ele>72</ele>
        <time>2019-01-27T15:04:21Z</time>
      </trkpt>
      <trkpt lat="48.34548" lon="2.924">
        <ele>72</ele>
        <time>2019-01-27T15:04:25Z</time>
      </trkpt>
      <trkpt lat="48.34584" lon="2.92443">
        <ele>70</ele>
        <time>2019-01-27T15:04:59Z</time>
      </trkpt>
      <trkpt lat="48.34588" lon="2.92449">
        <ele>70</ele>
        <time>2019-01-27T15:05:03Z</time>
      </trkpt>
      <trkpt lat="48.34592" lon="2.92453">
        <ele>70</ele>
        <time>2019-01-27T15:05:07Z</time>
      </trkpt>
      <trkpt lat="48.34628" lon="2.92488">
        <ele>67</ele>
        <time>2019-01-27T15:05:39Z</time>
      </trkpt>
      <trkpt lat="48.34632" lon="2.92492">
        <ele>66</ele>
        <time>2019-01-27T15:05:43Z</time>
      </trkpt>
      <trkpt lat="48.34641" lon="2.92499">
        <ele>67</ele>
        <time>2019-01-27T15:05:52Z</time>
      </trkpt>
      <trkpt lat="48.34677" lon="2.92526">
        <ele>65</ele>
        <time>2019-01-27T15:06:24Z</time>
      </trkpt>
      <trkpt lat="48.34682" lon="2.92529">
        <ele>65</ele>
        <time>2019-01-27T15:06:28Z</time>
      </trkpt>
      <trkpt lat="48.34686" lon="2.92533">
        <ele>65</ele>
        <time>2019-01-27T15:06:32Z</time>
      </trkpt>
      <trkpt lat="48.34691" lon="2.92537">
        <ele>65</ele>
        <time>2019-01-27T15:06:37Z</time>
      </trkpt>
      <trkpt lat="48.34695" lon="2.92539">
        <ele>65</ele>
        <time>2019-01-27T15:06:41Z</time>
      </trkpt>
      <trkpt lat="48.34699" lon="2.92543">
        <ele>65</ele>
        <time>2019-01-27T15:06:45Z</time>
      </trkpt>
      <trkpt lat="48.34704" lon="2.92548">
        <ele>65</ele>
        <time>2019-01-27T15:06:49Z</time>
      </trkpt>
      <trkpt lat="48.34709" lon="2.92551">
        <ele>65</ele>
        <time>2019-01-27T15:06:53Z</time>
      </trkpt>
      <trkpt lat="48.34741" lon="2.92575">
        <ele>66</ele>
        <time>2019-01-27T15:07:20Z</time>
      </trkpt>
      <trkpt lat="48.34753" lon="2.92592">
        <ele>66</ele>
        <time>2019-01-27T15:07:32Z</time>
      </trkpt>
      <trkpt lat="48.34756" lon="2.92598">
        <ele>66</ele>
        <time>2019-01-27T15:07:36Z</time>
      </trkpt>
      <trkpt lat="48.34763" lon="2.92609">
        <ele>66</ele>
        <time>2019-01-27T15:07:44Z</time>
      </trkpt>
      <trkpt lat="48.34788" lon="2.92636">
        <ele>66</ele>
        <time>2019-01-27T15:08:08Z</time>
      </trkpt>
      <trkpt lat="48.34794" lon="2.92646">
        <ele>66</ele>
        <time>2019-01-27T15:08:16Z</time>
      </trkpt>
      <trkpt lat="48.34801" lon="2.92657">
        <ele>67</ele>
        <time>2019-01-27T15:08:24Z</time>
      </trkpt>
      <trkpt lat="48.34808" lon="2.92669">
        <ele>66</ele>
        <time>2019-01-27T15:08:32Z</time>
      </trkpt>
      <trkpt lat="48.34828" lon="2.92693">
        <ele>67</ele>
        <time>2019-01-27T15:08:52Z</time>
      </trkpt>
      <trkpt lat="48.34831" lon="2.927">
        <ele>67</ele>
        <time>2019-01-27T15:08:56Z</time>
      </trkpt>
      <trkpt lat="48.34864" lon="2.9274">
        <ele>67</ele>
        <time>2019-01-27T15:09:28Z</time>
      </trkpt>
      <trkpt lat="48.34869" lon="2.92745">
        <ele>67</ele>
        <time>2019-01-27T15:09:32Z</time>
      </trkpt>
      <trkpt lat="48.34873" lon="2.9275">
        <ele>67</ele>
        <time>2019-01-27T15:09:36Z</time>
      </trkpt>
      <trkpt lat="48.34906" lon="2.92791">
        <ele>67</ele>
        <time>2019-01-27T15:10:08Z</time>
      </trkpt>
      <trkpt lat="48.34938" lon="2.9283">
        <ele>67</ele>
        <time>2019-01-27T15:10:40Z</time>
      </trkpt>
      <trkpt lat="48.34968" lon="2.9287">
        <ele>67</ele>
        <time>2019-01-27T15:11:11Z</time>
      </trkpt>
      <trkpt lat="48.35" lon="2.92914">
        <ele>66</ele>
        <time>2019-01-27T15:11:43Z</time>
      </trkpt>
      <trkpt lat="48.35004" lon="2.9292">
        <ele>66</ele>
        <time>2019-01-27T15:11:47Z</time>
      </trkpt>
      <trkpt lat="48.35012" lon="2.92932">
        <ele>66</ele>
        <time>2019-01-27T15:11:55Z</time>
      </trkpt>
      <trkpt lat="48.3502" lon="2.9294">
        <ele>66</ele>
        <time>2019-01-27T15:12:04Z</time>
      </trkpt>
      <trkpt lat="48.35051" lon="2.92982">
        <ele>66</ele>
        <time>2019-01-27T15:12:37Z</time>
      </trkpt>
      <trkpt lat="48.35068" lon="2.93004">
        <ele>66</ele>
        <time>2019-01-27T15:12:53Z</time>
      </trkpt>
      <trkpt lat="48.35082" lon="2.93015">
        <ele>66</ele>
        <time>2019-01-27T15:13:05Z</time>
      </trkpt>
      <trkpt lat="48.35114" lon="2.93056">
        <ele>64</ele>
        <time>2019-01-27T15:13:37Z</time>
      </trkpt>
      <trkpt lat="48.35118" lon="2.93061">
        <ele>64</ele>
        <time>2019-01-27T15:13:41Z</time>
      </trkpt>
      <trkpt lat="48.35126" lon="2.93071">
        <ele>64</ele>
        <time>2019-01-27T15:13:49Z</time>
      </trkpt>
      <trkpt lat="48.35135" lon="2.93078">
        <ele>64</ele>
        <time>2019-01-27T15:13:57Z</time>
      </trkpt>
      <trkpt lat="48.35139" lon="2.93083">
        <ele>64</ele>
        <time>2019-01-27T15:14:02Z</time>
      </trkpt>
      <trkpt lat="48.35149" lon="2.93101">
        <ele>63</ele>
        <time>2019-01-27T15:14:15Z</time>
      </trkpt>
      <trkpt lat="48.35155" lon="2.93112">
        <ele>62</ele>
        <time>2019-01-27T15:14:24Z</time>
      </trkpt>
      <trkpt lat="48.3517" lon="2.93132">
        <ele>62</ele>
        <time>2019-01-27T15:14:40Z</time>
      </trkpt>
      <trkpt lat="48.35183" lon="2.93144">
        <ele>62</ele>
        <time>2019-01-27T15:14:51Z</time>
      </trkpt>
      <trkpt lat="48.35192" lon="2.93149">
        <ele>62</ele>
        <time>2019-01-27T15:14:57Z</time>
      </trkpt>
      <trkpt lat="48.35196" lon="2.93151">
        <ele>62</ele>
        <time>2019-01-27T15:15:00Z</time>
      </trkpt>
      <trkpt lat="48.3522" lon="2.93169">
        <ele>61</ele>
        <time>2019-01-27T15:15:19Z</time>
      </trkpt>
      <trkpt lat="48.35236" lon="2.93175">
        <ele>62</ele>
        <time>2019-01-27T15:15:31Z</time>
      </trkpt>
      <trkpt lat="48.35246" lon="2.93179">
        <ele>62</ele>
        <time>2019-01-27T15:15:39Z</time>
      </trkpt>
      <trkpt lat="48.35256" lon="2.93182">
        <ele>61</ele>
        <time>2019-01-27T15:15:47Z</time>
      </trkpt>
      <trkpt lat="48.35272" lon="2.93184">
        <ele>61</ele>
        <time>2019-01-27T15:15:59Z</time>
      </trkpt>
      <trkpt lat="48.35295" lon="2.93181">
        <ele>60</ele>
        <time>2019-01-27T15:16:20Z</time>
      </trkpt>
      <trkpt lat="48.35309" lon="2.93174">
        <ele>60</ele>
        <time>2019-01-27T15:16:32Z</time>
      </trkpt>
      <trkpt lat="48.35314" lon="2.93174">
        <ele>60</ele>
        <time>2019-01-27T15:16:36Z</time>
      </trkpt>
      <trkpt lat="48.35318" lon="2.9318">
        <ele>60</ele>
        <time>2019-01-27T15:16:40Z</time>
      </trkpt>
      <trkpt lat="48.35319" lon="2.93187">
        <ele>60</ele>
        <time>2019-01-27T15:16:44Z</time>
      </trkpt>
      <trkpt lat="48.35318" lon="2.93196">
        <ele>59</ele>
        <time>2019-01-27T15:16:49Z</time>
      </trkpt>
      <trkpt lat="48.35317" lon="2.93203">
        <ele>60</ele>
        <time>2019-01-27T15:16:54Z</time>
      </trkpt>
      <trkpt lat="48.35316" lon="2.93211">
        <ele>59</ele>
        <time>2019-01-27T15:16:59Z</time>
      </trkpt>
      <trkpt lat="48.35308" lon="2.93268">
        <ele>58</ele>
        <time>2019-01-27T15:17:32Z</time>
      </trkpt>
      <trkpt lat="48.35307" lon="2.9329">
        <ele>57</ele>
        <time>2019-01-27T15:17:44Z</time>
      </trkpt>
      <trkpt lat="48.35299" lon="2.93354">
        <ele>57</ele>
        <time>2019-01-27T15:18:16Z</time>
      </trkpt>
      <trkpt lat="48.353" lon="2.93363">
        <ele>58</ele>
        <time>2019-01-27T15:19:48Z</time>
      </trkpt>
      <trkpt lat="48.35299" lon="2.93371">
        <ele>58</ele>
        <time>2019-01-27T15:19:54Z</time>
      </trkpt>
      <trkpt lat="48.35298" lon="2.93379">
        <ele>59</ele>
        <time>2019-01-27T15:20:00Z</time>
      </trkpt>
      <trkpt lat="48.353" lon="2.93395">
        <ele>59</ele>
        <time>2019-01-27T15:20:14Z</time>
      </trkpt>
      <trkpt lat="48.35301" lon="2.93402">
        <ele>59</ele>
        <time>2019-01-27T15:20:19Z</time>
      </trkpt>
      <trkpt lat="48.35303" lon="2.93409">
        <ele>59</ele>
        <time>2019-01-27T15:20:24Z</time>
      </trkpt>
      <trkpt lat="48.35307" lon="2.93414">
        <ele>59</ele>
        <time>2019-01-27T15:20:28Z</time>
      </trkpt>
      <trkpt lat="48.35313" lon="2.9342">
        <ele>59</ele>
        <time>2019-01-27T15:20:34Z</time>
      </trkpt>
      <trkpt lat="48.35346" lon="2.9346">
        <ele>59</ele>
        <time>2019-01-27T15:21:07Z</time>
      </trkpt>
      <trkpt lat="48.35352" lon="2.93471">
        <ele>59</ele>
        <time>2019-01-27T15:21:16Z</time>
      </trkpt>
      <trkpt lat="48.3538" lon="2.93513">
        <ele>57</ele>
        <time>2019-01-27T15:21:48Z</time>
      </trkpt>
      <trkpt lat="48.35384" lon="2.93518">
        <ele>57</ele>
        <time>2019-01-27T15:21:52Z</time>
      </trkpt>
      <trkpt lat="48.3539" lon="2.93528">
        <ele>57</ele>
        <time>2019-01-27T15:22:00Z</time>
      </trkpt>
      <trkpt lat="48.35397" lon="2.93537">
        <ele>57</ele>
        <time>2019-01-27T15:22:08Z</time>
      </trkpt>
      <trkpt lat="48.35401" lon="2.93542">
        <ele>57</ele>
        <time>2019-01-27T15:22:12Z</time>
      </trkpt>
      <trkpt lat="48.35411" lon="2.93557">
        <ele>56</ele>
        <time>2019-01-27T15:22:24Z</time>
      </trkpt>
      <trkpt lat="48.35415" lon="2.93562">
        <ele>56</ele>
        <time>2019-01-27T15:22:28Z</time>
      </trkpt>
      <trkpt lat="48.35422" lon="2.93571">
        <ele>56</ele>
        <time>2019-01-27T15:22:36Z</time>
      </trkpt>
      <trkpt lat="48.35449" lon="2.93612">
        <ele>56</ele>
        <time>2019-01-27T15:23:08Z</time>
      </trkpt>
      <trkpt lat="48.35452" lon="2.93617">
        <ele>56</ele>
        <time>2019-01-27T15:23:12Z</time>
      </trkpt>
      <trkpt lat="48.35455" lon="2.93622">
        <ele>56</ele>
        <time>2019-01-27T15:23:16Z</time>
      </trkpt>
      <trkpt lat="48.3546" lon="2.93631">
        <ele>56</ele>
        <time>2019-01-27T15:23:23Z</time>
      </trkpt>
      <trkpt lat="48.35471" lon="2.93646">
        <ele>55</ele>
        <time>2019-01-27T15:23:35Z</time>
      </trkpt>
      <trkpt lat="48.35475" lon="2.93652">
        <ele>56</ele>
        <time>2019-01-27T15:23:39Z</time>
      </trkpt>
      <trkpt lat="48.35504" lon="2.93693">
        <ele>56</ele>
        <time>2019-01-27T15:24:12Z</time>
      </trkpt>
      <trkpt lat="48.35514" lon="2.9371">
        <ele>56</ele>
        <time>2019-01-27T15:24:26Z</time>
      </trkpt>
      <trkpt lat="48.35522" lon="2.93721">
        <ele>56</ele>
        <time>2019-01-27T15:24:35Z</time>
      </trkpt>
      <trkpt lat="48.35533" lon="2.93736">
        <ele>56</ele>
        <time>2019-01-27T15:24:47Z</time>
      </trkpt>
      <trkpt lat="48.35537" lon="2.93741">
        <ele>56</ele>
        <time>2019-01-27T15:24:51Z</time>
      </trkpt>
      <trkpt lat="48.35545" lon="2.9375">
        <ele>56</ele>
        <time>2019-01-27T15:24:59Z</time>
      </trkpt>
      <trkpt lat="48.35549" lon="2.93754">
        <ele>56</ele>
        <time>2019-01-27T15:25:03Z</time>
      </trkpt>
      <trkpt lat="48.35556" lon="2.93762">
        <ele>57</ele>
        <time>2019-01-27T15:25:11Z</time>
      </trkpt>
      <trkpt lat="48.3556" lon="2.93767">
        <ele>57</ele>
        <time>2019-01-27T15:25:16Z</time>
      </trkpt>
      <trkpt lat="48.35591" lon="2.93797">
        <ele>58</ele>
        <time>2019-01-27T15:25:49Z</time>
      </trkpt>
      <trkpt lat="48.35594" lon="2.93803">
        <ele>59</ele>
        <time>2019-01-27T15:25:54Z</time>
      </trkpt>
      <trkpt lat="48.35599" lon="2.93808">
        <ele>59</ele>
        <time>2019-01-27T15:25:59Z</time>
      </trkpt>
      <trkpt lat="48.35627" lon="2.93833">
        <ele>61</ele>
        <time>2019-01-27T15:26:31Z</time>
      </trkpt>
      <trkpt lat="48.35621" lon="2.93838">
        <ele>61</ele>
        <time>2019-01-27T15:26:56Z</time>
      </trkpt>
      <trkpt lat="48.35623" lon="2.9384">
        <ele>62</ele>
        <time>2019-01-27T15:33:42Z</time>
      </trkpt>
      <trkpt lat="48.35628" lon="2.9384">
        <ele>61</ele>
        <time>2019-01-27T15:35:05Z</time>
      </trkpt>
      <trkpt lat="48.35633" lon="2.93844">
        <ele>62</ele>
        <time>2019-01-27T15:35:12Z</time>
      </trkpt>
      <trkpt lat="48.35637" lon="2.93847">
        <ele>62</ele>
        <time>2019-01-27T15:35:17Z</time>
      </trkpt>
      <trkpt lat="48.35656" lon="2.93856">
        <ele>63</ele>
        <time>2019-01-27T15:35:33Z</time>
      </trkpt>
      <trkpt lat="48.35684" lon="2.93877">
        <ele>61</ele>
        <time>2019-01-27T15:35:57Z</time>
      </trkpt>
      <trkpt lat="48.35688" lon="2.93881">
        <ele>61</ele>
        <time>2019-01-27T15:36:01Z</time>
      </trkpt>
      <trkpt lat="48.35724" lon="2.93909">
        <ele>59</ele>
        <time>2019-01-27T15:36:33Z</time>
      </trkpt>
      <trkpt lat="48.35764" lon="2.93931">
        <ele>59</ele>
        <time>2019-01-27T15:37:05Z</time>
      </trkpt>
      <trkpt lat="48.35769" lon="2.93933">
        <ele>58</ele>
        <time>2019-01-27T15:37:09Z</time>
      </trkpt>
      <trkpt lat="48.35774" lon="2.93936">
        <ele>58</ele>
        <time>2019-01-27T15:37:13Z</time>
      </trkpt>
      <trkpt lat="48.35785" lon="2.93942">
        <ele>57</ele>
        <time>2019-01-27T15:37:21Z</time>
      </trkpt>
      <trkpt lat="48.35826" lon="2.93962">
        <ele>57</ele>
        <time>2019-01-27T15:37:53Z</time>
      </trkpt>
      <trkpt lat="48.35866" lon="2.9398">
        <ele>56</ele>
        <time>2019-01-27T15:38:25Z</time>
      </trkpt>
      <trkpt lat="48.35871" lon="2.93982">
        <ele>56</ele>
        <time>2019-01-27T15:38:29Z</time>
      </trkpt>
      <trkpt lat="48.35876" lon="2.93984">
        <ele>56</ele>
        <time>2019-01-27T15:38:33Z</time>
      </trkpt>
      <trkpt lat="48.35886" lon="2.93988">
        <ele>55</ele>
        <time>2019-01-27T15:38:41Z</time>
      </trkpt>
      <trkpt lat="48.35915" lon="2.93997">
        <ele>55</ele>
        <time>2019-01-27T15:39:05Z</time>
      </trkpt>
      <trkpt lat="48.35919" lon="2.93998">
        <ele>55</ele>
        <time>2019-01-27T15:39:09Z</time>
      </trkpt>
      <trkpt lat="48.3593" lon="2.93999">
        <ele>55</ele>
        <time>2019-01-27T15:39:18Z</time>
      </trkpt>
      <trkpt lat="48.35935" lon="2.94">
        <ele>55</ele>
        <time>2019-01-27T15:39:22Z</time>
      </trkpt>
      <trkpt lat="48.35953" lon="2.94004">
        <ele>54</ele>
        <time>2019-01-27T15:39:38Z</time>
      </trkpt>
      <trkpt lat="48.35963" lon="2.94006">
        <ele>55</ele>
        <time>2019-01-27T15:39:46Z</time>
      </trkpt>
      <trkpt lat="48.35974" lon="2.94008">
        <ele>54</ele>
        <time>2019-01-27T15:39:55Z</time>
      </trkpt>
      <trkpt lat="48.35999" lon="2.94012">
        <ele>55</ele>
        <time>2019-01-27T15:40:16Z</time>
      </trkpt>
      <trkpt lat="48.3601" lon="2.94015">
        <ele>54</ele>
        <time>2019-01-27T15:40:24Z</time>
      </trkpt>
      <trkpt lat="48.36018" lon="2.94017">
        <ele>54</ele>
        <time>2019-01-27T15:40:33Z</time>
      </trkpt>
      <trkpt lat="48.36024" lon="2.94017">
        <ele>54</ele>
        <time>2019-01-27T15:40:37Z</time>
      </trkpt>
      <trkpt lat="48.36034" lon="2.94019">
        <ele>54</ele>
        <time>2019-01-27T15:40:45Z</time>
      </trkpt>
      <trkpt lat="48.36043" lon="2.94021">
        <ele>54</ele>
        <time>2019-01-27T15:40:54Z</time>
      </trkpt>
      <trkpt lat="48.36053" lon="2.94023">
        <ele>55</ele>
        <time>2019-01-27T15:41:03Z</time>
      </trkpt>
      <trkpt lat="48.36063" lon="2.94026">
        <ele>55</ele>
        <time>2019-01-27T15:41:12Z</time>
      </trkpt>
      <trkpt lat="48.36068" lon="2.94027">
        <ele>55</ele>
        <time>2019-01-27T15:41:16Z</time>
      </trkpt>
      <trkpt lat="48.36079" lon="2.94027">
        <ele>55</ele>
        <time>2019-01-27T15:41:30Z</time>
      </trkpt>
      <trkpt lat="48.36086" lon="2.94027">
        <ele>55</ele>
        <time>2019-01-27T15:41:39Z</time>
      </trkpt>
      <trkpt lat="48.36094" lon="2.94029">
        <ele>55</ele>
        <time>2019-01-27T15:41:51Z</time>
      </trkpt>
      <trkpt lat="48.36101" lon="2.94024">
        <ele>55</ele>
        <time>2019-01-27T15:42:02Z</time>
      </trkpt>
      <trkpt lat="48.36101" lon="2.94014">
        <ele>55</ele>
        <time>2019-01-27T15:42:09Z</time>
      </trkpt>
      <trkpt lat="48.361" lon="2.93961">
        <ele>55</ele>
        <time>2019-01-27T15:42:40Z</time>
      </trkpt>
      <trkpt lat="48.361" lon="2.93903">
        <ele>54</ele>
        <time>2019-01-27T15:43:12Z</time>
      </trkpt>
      <trkpt lat="48.361" lon="2.93894">
        <ele>55</ele>
        <time>2019-01-27T15:43:17Z</time>
      </trkpt>
      <trkpt lat="48.361" lon="2.93887">
        <ele>55</ele>
        <time>2019-01-27T15:43:21Z</time>
      </trkpt>
      <trkpt lat="48.361" lon="2.93872">
        <ele>54</ele>
        <time>2019-01-27T15:43:29Z</time>
      </trkpt>
      <trkpt lat="48.36101" lon="2.93865">
        <ele>54</ele>
        <time>2019-01-27T15:43:33Z</time>
      </trkpt>
      <trkpt lat="48.36101" lon="2.9385">
        <ele>54</ele>
        <time>2019-01-27T15:43:41Z</time>
      </trkpt>
      <trkpt lat="48.36102" lon="2.93792">
        <ele>54</ele>
        <time>2019-01-27T15:44:13Z</time>
      </trkpt>
      <trkpt lat="48.36101" lon="2.93754">
        <ele>54</ele>
        <time>2019-01-27T15:44:33Z</time>
      </trkpt>
      <trkpt lat="48.36102" lon="2.93747">
        <ele>54</ele>
        <time>2019-01-27T15:44:37Z</time>
      </trkpt>
      <trkpt lat="48.36102" lon="2.9374">
        <ele>54</ele>
        <time>2019-01-27T15:44:41Z</time>
      </trkpt>
      <trkpt lat="48.36103" lon="2.93733">
        <ele>54</ele>
        <time>2019-01-27T15:44:45Z</time>
      </trkpt>
      <trkpt lat="48.36102" lon="2.93719">
        <ele>53</ele>
        <time>2019-01-27T15:44:53Z</time>
      </trkpt>
      <trkpt lat="48.36102" lon="2.93712">
        <ele>54</ele>
        <time>2019-01-27T15:44:57Z</time>
      </trkpt>
      <trkpt lat="48.36101" lon="2.93704">
        <ele>54</ele>
        <time>2019-01-27T15:45:01Z</time>
      </trkpt>
      <trkpt lat="48.361" lon="2.93696">
        <ele>53</ele>
        <time>2019-01-27T15:45:05Z</time>
      </trkpt>
      <trkpt lat="48.36101" lon="2.93681">
        <ele>53</ele>
        <time>2019-01-27T15:45:13Z</time>
      </trkpt>
      <trkpt lat="48.36101" lon="2.93674">
        <ele>53</ele>
        <time>2019-01-27T15:45:17Z</time>
      </trkpt>
      <trkpt lat="48.36101" lon="2.93659">
        <ele>53</ele>
        <time>2019-01-27T15:45:25Z</time>
      </trkpt>
      <trkpt lat="48.36101" lon="2.93636">
        <ele>53</ele>
        <time>2019-01-27T15:45:37Z</time>
      </trkpt>
      <trkpt lat="48.361" lon="2.93621">
        <ele>53</ele>
        <time>2019-01-27T15:45:45Z</time>
      </trkpt>
      <trkpt lat="48.36102" lon="2.93564">
        <ele>53</ele>
        <time>2019-01-27T15:46:17Z</time>
      </trkpt>
      <trkpt lat="48.36102" lon="2.93557">
        <ele>53</ele>
        <time>2019-01-27T15:46:21Z</time>
      </trkpt>
      <trkpt lat="48.36102" lon="2.93542">
        <ele>53</ele>
        <time>2019-01-27T15:46:29Z</time>
      </trkpt>
      <trkpt lat="48.36102" lon="2.93535">
        <ele>53</ele>
        <time>2019-01-27T15:46:33Z</time>
      </trkpt>
      <trkpt lat="48.36103" lon="2.93506">
        <ele>52</ele>
        <time>2019-01-27T15:46:49Z</time>
      </trkpt>
      <trkpt lat="48.36103" lon="2.935">
        <ele>53</ele>
        <time>2019-01-27T15:46:53Z</time>
      </trkpt>
      <trkpt lat="48.36103" lon="2.93492">
        <ele>52</ele>
        <time>2019-01-27T15:46:57Z</time>
      </trkpt>
      <trkpt lat="48.36103" lon="2.93478">
        <ele>52</ele>
        <time>2019-01-27T15:47:05Z</time>
      </trkpt>
      <trkpt lat="48.36103" lon="2.9347">
        <ele>52</ele>
        <time>2019-01-27T15:47:09Z</time>
      </trkpt>
      <trkpt lat="48.36104" lon="2.93456">
        <ele>53</ele>
        <time>2019-01-27T15:47:17Z</time>
      </trkpt>
      <trkpt lat="48.36105" lon="2.93441">
        <ele>52</ele>
        <time>2019-01-27T15:47:25Z</time>
      </trkpt>
      <trkpt lat="48.36104" lon="2.93418">
        <ele>52</ele>
        <time>2019-01-27T15:47:38Z</time>
      </trkpt>
      <trkpt lat="48.36104" lon="2.9341">
        <ele>51</ele>
        <time>2019-01-27T15:47:42Z</time>
      </trkpt>
      <trkpt lat="48.36104" lon="2.93396">
        <ele>52</ele>
        <time>2019-01-27T15:47:50Z</time>
      </trkpt>
      <trkpt lat="48.36104" lon="2.93388">
        <ele>51</ele>
        <time>2019-01-27T15:47:54Z</time>
      </trkpt>
      <trkpt lat="48.36104" lon="2.93381">
        <ele>51</ele>
        <time>2019-01-27T15:47:58Z</time>
      </trkpt>
      <trkpt lat="48.36104" lon="2.93367">
        <ele>51</ele>
        <time>2019-01-27T15:48:06Z</time>
      </trkpt>
      <trkpt lat="48.36105" lon="2.93359">
        <ele>52</ele>
        <time>2019-01-27T15:48:11Z</time>
      </trkpt>
      <trkpt lat="48.36105" lon="2.93336">
        <ele>52</ele>
        <time>2019-01-27T15:48:24Z</time>
      </trkpt>
      <trkpt lat="48.36105" lon="2.93322">
        <ele>51</ele>
        <time>2019-01-27T15:48:33Z</time>
      </trkpt>
      <trkpt lat="48.36106" lon="2.93315">
        <ele>51</ele>
        <time>2019-01-27T15:48:37Z</time>
      </trkpt>
      <trkpt lat="48.36106" lon="2.93306">
        <ele>51</ele>
        <time>2019-01-27T15:48:42Z</time>
      </trkpt>
      <trkpt lat="48.36106" lon="2.93297">
        <ele>52</ele>
        <time>2019-01-27T15:48:47Z</time>
      </trkpt>
      <trkpt lat="48.36105" lon="2.93282">
        <ele>51</ele>
        <time>2019-01-27T15:48:57Z</time>
      </trkpt>
      <trkpt lat="48.36105" lon="2.93266">
        <ele>52</ele>
        <time>2019-01-27T15:49:06Z</time>
      </trkpt>
      <trkpt lat="48.36108" lon="2.93251">
        <ele>52</ele>
        <time>2019-01-27T15:49:16Z</time>
      </trkpt>
      <trkpt lat="48.36108" lon="2.93236">
        <ele>52</ele>
        <time>2019-01-27T15:49:24Z</time>
      </trkpt>
      <trkpt lat="48.36106" lon="2.93221">
        <ele>52</ele>
        <time>2019-01-27T15:49:32Z</time>
      </trkpt>
      <trkpt lat="48.36105" lon="2.93206">
        <ele>51</ele>
        <time>2019-01-27T15:49:40Z</time>
      </trkpt>
      <trkpt lat="48.36105" lon="2.93199">
        <ele>52</ele>
        <time>2019-01-27T15:49:44Z</time>
      </trkpt>
      <trkpt lat="48.36105" lon="2.93191">
        <ele>52</ele>
        <time>2019-01-27T15:49:48Z</time>
      </trkpt>
      <trkpt lat="48.36105" lon="2.93183">
        <ele>52</ele>
        <time>2019-01-27T15:49:52Z</time>
      </trkpt>
      <trkpt lat="48.36104" lon="2.93145">
        <ele>52</ele>
        <time>2019-01-27T15:50:12Z</time>
      </trkpt>
      <trkpt lat="48.36106" lon="2.93093">
        <ele>53</ele>
        <time>2019-01-27T15:50:40Z</time>
      </trkpt>
      <trkpt lat="48.36107" lon="2.93085">
        <ele>53</ele>
        <time>2019-01-27T15:50:45Z</time>
      </trkpt>
      <trkpt lat="48.36114" lon="2.93074">
        <ele>52</ele>
        <time>2019-01-27T15:50:54Z</time>
      </trkpt>
      <trkpt lat="48.36118" lon="2.93069">
        <ele>52</ele>
        <time>2019-01-27T15:50:59Z</time>
      </trkpt>
      <trkpt lat="48.36126" lon="2.93059">
        <ele>52</ele>
        <time>2019-01-27T15:51:07Z</time>
      </trkpt>
      <trkpt lat="48.36131" lon="2.93054">
        <ele>52</ele>
        <time>2019-01-27T15:51:15Z</time>
      </trkpt>
      <trkpt lat="48.36142" lon="2.93052">
        <ele>52</ele>
        <time>2019-01-27T15:51:23Z</time>
      </trkpt>
      <trkpt lat="48.36147" lon="2.93052">
        <ele>52</ele>
        <time>2019-01-27T15:51:28Z</time>
      </trkpt>
      <trkpt lat="48.36157" lon="2.93054">
        <ele>52</ele>
        <time>2019-01-27T15:51:36Z</time>
      </trkpt>
      <trkpt lat="48.36162" lon="2.93057">
        <ele>53</ele>
        <time>2019-01-27T15:51:40Z</time>
      </trkpt>
      <trkpt lat="48.36192" lon="2.93083">
        <ele>52</ele>
        <time>2019-01-27T15:52:08Z</time>
      </trkpt>
      <trkpt lat="48.36225" lon="2.93116">
        <ele>52</ele>
        <time>2019-01-27T15:52:40Z</time>
      </trkpt>
      <trkpt lat="48.36229" lon="2.93121">
        <ele>52</ele>
        <time>2019-01-27T15:52:44Z</time>
      </trkpt>
      <trkpt lat="48.36238" lon="2.93129">
        <ele>53</ele>
        <time>2019-01-27T15:52:53Z</time>
      </trkpt>
      <trkpt lat="48.36241" lon="2.93133">
        <ele>52</ele>
        <time>2019-01-27T15:52:57Z</time>
      </trkpt>
      <trkpt lat="48.36245" lon="2.93137">
        <ele>53</ele>
        <time>2019-01-27T15:53:01Z</time>
      </trkpt>
      <trkpt lat="48.36257" lon="2.9315">
        <ele>53</ele>
        <time>2019-01-27T15:53:14Z</time>
      </trkpt>
      <trkpt lat="48.36261" lon="2.93154">
        <ele>53</ele>
        <time>2019-01-27T15:53:18Z</time>
      </trkpt>
      <trkpt lat="48.36293" lon="2.9319">
        <ele>52</ele>
        <time>2019-01-27T15:53:51Z</time>
      </trkpt>
      <trkpt lat="48.36326" lon="2.93222">
        <ele>53</ele>
        <time>2019-01-27T15:54:24Z</time>
      </trkpt>
      <trkpt lat="48.36335" lon="2.93231">
        <ele>53</ele>
        <time>2019-01-27T15:54:34Z</time>
      </trkpt>
      <trkpt lat="48.36334" lon="2.93223">
        <ele>53</ele>
        <time>2019-01-27T15:54:47Z</time>
      </trkpt>
      <trkpt lat="48.36327" lon="2.9321">
        <ele>53</ele>
        <time>2019-01-27T15:54:57Z</time>
      </trkpt>
      <trkpt lat="48.36327" lon="2.93201">
        <ele>53</ele>
        <time>2019-01-27T15:55:04Z</time>
      </trkpt>
      <trkpt lat="48.36329" lon="2.93192">
        <ele>54</ele>
        <time>2019-01-27T15:55:14Z</time>
      </trkpt>
      <trkpt lat="48.36337" lon="2.93187">
        <ele>53</ele>
        <time>2019-01-27T15:55:26Z</time>
      </trkpt>
      <trkpt lat="48.36343" lon="2.93186">
        <ele>54</ele>
        <time>2019-01-27T15:55:39Z</time>
      </trkpt>
      <trkpt lat="48.36348" lon="2.93184">
        <ele>54</ele>
        <time>2019-01-27T15:55:43Z</time>
      </trkpt>
      <trkpt lat="48.36363" lon="2.93178">
        <ele>53</ele>
        <time>2019-01-27T15:55:55Z</time>
      </trkpt>
      <trkpt lat="48.36369" lon="2.93176">
        <ele>53</ele>
        <time>2019-01-27T15:55:59Z</time>
      </trkpt>
      <trkpt lat="48.36379" lon="2.93172">
        <ele>53</ele>
        <time>2019-01-27T15:56:07Z</time>
      </trkpt>
      <trkpt lat="48.36384" lon="2.93171">
        <ele>53</ele>
        <time>2019-01-27T15:56:11Z</time>
      </trkpt>
      <trkpt lat="48.36424" lon="2.93153">
        <ele>52</ele>
        <time>2019-01-27T15:56:43Z</time>
      </trkpt>
      <trkpt lat="48.36429" lon="2.93151">
        <ele>52</ele>
        <time>2019-01-27T15:56:47Z</time>
      </trkpt>
      <trkpt lat="48.36434" lon="2.93149">
        <ele>52</ele>
        <time>2019-01-27T15:56:51Z</time>
      </trkpt>
      <trkpt lat="48.36444" lon="2.93145">
        <ele>51</ele>
        <time>2019-01-27T15:56:58Z</time>
      </trkpt>
      <trkpt lat="48.36464" lon="2.93137">
        <ele>52</ele>
        <time>2019-01-27T15:57:13Z</time>
      </trkpt>
      <trkpt lat="48.36469" lon="2.93136">
        <ele>52</ele>
        <time>2019-01-27T15:57:17Z</time>
      </trkpt>
      <trkpt lat="48.36474" lon="2.93133">
        <ele>52</ele>
        <time>2019-01-27T15:57:21Z</time>
      </trkpt>
      <trkpt lat="48.36479" lon="2.93132">
        <ele>52</ele>
        <time>2019-01-27T15:57:25Z</time>
      </trkpt>
      <trkpt lat="48.365" lon="2.93124">
        <ele>53</ele>
        <time>2019-01-27T15:57:41Z</time>
      </trkpt>
      <trkpt lat="48.36505" lon="2.93121">
        <ele>53</ele>
        <time>2019-01-27T15:57:45Z</time>
      </trkpt>
      <trkpt lat="48.3651" lon="2.93118">
        <ele>53</ele>
        <time>2019-01-27T15:57:49Z</time>
      </trkpt>
      <trkpt lat="48.36514" lon="2.93115">
        <ele>53</ele>
        <time>2019-01-27T15:57:53Z</time>
      </trkpt>
      <trkpt lat="48.36519" lon="2.93113">
        <ele>53</ele>
        <time>2019-01-27T15:57:57Z</time>
      </trkpt>
      <trkpt lat="48.36538" lon="2.93103">
        <ele>53</ele>
        <time>2019-01-27T15:58:12Z</time>
      </trkpt>
      <trkpt lat="48.36543" lon="2.93102">
        <ele>53</ele>
        <time>2019-01-27T15:58:16Z</time>
      </trkpt>
      <trkpt lat="48.36559" lon="2.93098">
        <ele>53</ele>
        <time>2019-01-27T15:58:28Z</time>
      </trkpt>
      <trkpt lat="48.36573" lon="2.93093">
        <ele>53</ele>
        <time>2019-01-27T15:58:40Z</time>
      </trkpt>
      <trkpt lat="48.36583" lon="2.9309">
        <ele>53</ele>
        <time>2019-01-27T15:58:49Z</time>
      </trkpt>
      <trkpt lat="48.36588" lon="2.93088">
        <ele>53</ele>
        <time>2019-01-27T15:58:53Z</time>
      </trkpt>
      <trkpt lat="48.36594" lon="2.93086">
        <ele>53</ele>
        <time>2019-01-27T15:58:57Z</time>
      </trkpt>
      <trkpt lat="48.36599" lon="2.93084">
        <ele>53</ele>
        <time>2019-01-27T15:59:01Z</time>
      </trkpt>
      <trkpt lat="48.36608" lon="2.9308">
        <ele>53</ele>
        <time>2019-01-27T15:59:09Z</time>
      </trkpt>
      <trkpt lat="48.36632" lon="2.93071">
        <ele>54</ele>
        <time>2019-01-27T15:59:29Z</time>
      </trkpt>
      <trkpt lat="48.36646" lon="2.93066">
        <ele>53</ele>
        <time>2019-01-27T15:59:41Z</time>
      </trkpt>
      <trkpt lat="48.36651" lon="2.93064">
        <ele>54</ele>
        <time>2019-01-27T15:59:45Z</time>
      </trkpt>
      <trkpt lat="48.36675" lon="2.93054">
        <ele>53</ele>
        <time>2019-01-27T16:00:05Z</time>
      </trkpt>
      <trkpt lat="48.36685" lon="2.9305">
        <ele>54</ele>
        <time>2019-01-27T16:00:13Z</time>
      </trkpt>
      <trkpt lat="48.36695" lon="2.93047">
        <ele>54</ele>
        <time>2019-01-27T16:00:21Z</time>
      </trkpt>
      <trkpt lat="48.36705" lon="2.93044">
        <ele>54</ele>
        <time>2019-01-27T16:00:29Z</time>
      </trkpt>
      <trkpt lat="48.36715" lon="2.9304">
        <ele>54</ele>
        <time>2019-01-27T16:00:37Z</time>
      </trkpt>
      <trkpt lat="48.36728" lon="2.93035">
        <ele>54</ele>
        <time>2019-01-27T16:00:49Z</time>
      </trkpt>
      <trkpt lat="48.36733" lon="2.93033">
        <ele>54</ele>
        <time>2019-01-27T16:00:53Z</time>
      </trkpt>
      <trkpt lat="48.36738" lon="2.93032">
        <ele>54</ele>
        <time>2019-01-27T16:00:57Z</time>
      </trkpt>
      <trkpt lat="48.36747" lon="2.93028">
        <ele>53</ele>
        <time>2019-01-27T16:01:05Z</time>
      </trkpt>
      <trkpt lat="48.36752" lon="2.93026">
        <ele>53</ele>
        <time>2019-01-27T16:01:10Z</time>
      </trkpt>
      <trkpt lat="48.36757" lon="2.93024">
        <ele>53</ele>
        <time>2019-01-27T16:01:14Z</time>
      </trkpt>
      <trkpt lat="48.36795" lon="2.93009">
        <ele>54</ele>
        <time>2019-01-27T16:01:46Z</time>
      </trkpt>
      <trkpt lat="48.36834" lon="2.92994">
        <ele>53</ele>
        <time>2019-01-27T16:02:19Z</time>
      </trkpt>
      <trkpt lat="48.36844" lon="2.9299">
        <ele>54</ele>
        <time>2019-01-27T16:02:27Z</time>
      </trkpt>
      <trkpt lat="48.36881" lon="2.92978">
        <ele>52</ele>
        <time>2019-01-27T16:02:59Z</time>
      </trkpt>
      <trkpt lat="48.3689" lon="2.92975">
        <ele>52</ele>
        <time>2019-01-27T16:03:08Z</time>
      </trkpt>
      <trkpt lat="48.36896" lon="2.92977">
        <ele>52</ele>
        <time>2019-01-27T16:03:14Z</time>
      </trkpt>
      <trkpt lat="48.36901" lon="2.92991">
        <ele>52</ele>
        <time>2019-01-27T16:03:22Z</time>
      </trkpt>
      <trkpt lat="48.36905" lon="2.93005">
        <ele>52</ele>
        <time>2019-01-27T16:03:30Z</time>
      </trkpt>
      <trkpt lat="48.36913" lon="2.93025">
        <ele>52</ele>
        <time>2019-01-27T16:03:42Z</time>
      </trkpt>
      <trkpt lat="48.36921" lon="2.93053">
        <ele>51</ele>
        <time>2019-01-27T16:03:59Z</time>
      </trkpt>
      <trkpt lat="48.36924" lon="2.93058">
        <ele>52</ele>
        <time>2019-01-27T16:04:03Z</time>
      </trkpt>
      <trkpt lat="48.36926" lon="2.93066">
        <ele>52</ele>
        <time>2019-01-27T16:04:08Z</time>
      </trkpt>
      <trkpt lat="48.36928" lon="2.93073">
        <ele>51</ele>
        <time>2019-01-27T16:04:13Z</time>
      </trkpt>
      <trkpt lat="48.36932" lon="2.93086">
        <ele>51</ele>
        <time>2019-01-27T16:04:22Z</time>
      </trkpt>
      <trkpt lat="48.36941" lon="2.93154">
        <ele>51</ele>
        <time>2019-01-27T16:04:56Z</time>
      </trkpt>
      <trkpt lat="48.36945" lon="2.93168">
        <ele>50</ele>
        <time>2019-01-27T16:05:04Z</time>
      </trkpt>
      <trkpt lat="48.36961" lon="2.93225">
        <ele>51</ele>
        <time>2019-01-27T16:05:36Z</time>
      </trkpt>
      <trkpt lat="48.36972" lon="2.93281">
        <ele>50</ele>
        <time>2019-01-27T16:06:01Z</time>
      </trkpt>
      <trkpt lat="48.36973" lon="2.93287">
        <ele>50</ele>
        <time>2019-01-27T16:06:03Z</time>
      </trkpt>
      <trkpt lat="48.36975" lon="2.93293">
        <ele>50</ele>
        <time>2019-01-27T16:06:07Z</time>
      </trkpt>
      <trkpt lat="48.36981" lon="2.93307">
        <ele>50</ele>
        <time>2019-01-27T16:06:15Z</time>
      </trkpt>
      <trkpt lat="48.36994" lon="2.93358">
        <ele>48</ele>
        <time>2019-01-27T16:06:47Z</time>
      </trkpt>
      <trkpt lat="48.37" lon="2.93378">
        <ele>48</ele>
        <time>2019-01-27T16:07:00Z</time>
      </trkpt>
      <trkpt lat="48.37004" lon="2.93392">
        <ele>48</ele>
        <time>2019-01-27T16:07:08Z</time>
      </trkpt>
      <trkpt lat="48.37009" lon="2.93407">
        <ele>49</ele>
        <time>2019-01-27T16:07:16Z</time>
      </trkpt>
      <trkpt lat="48.37013" lon="2.93412">
        <ele>49</ele>
        <time>2019-01-27T16:07:21Z</time>
      </trkpt>
      <trkpt lat="48.37015" lon="2.9342">
        <ele>48</ele>
        <time>2019-01-27T16:07:26Z</time>
      </trkpt>
      <trkpt lat="48.37027" lon="2.93445">
        <ele>49</ele>
        <time>2019-01-27T16:07:42Z</time>
      </trkpt>
      <trkpt lat="48.37033" lon="2.93465">
        <ele>49</ele>
        <time>2019-01-27T16:07:54Z</time>
      </trkpt>
      <trkpt lat="48.37036" lon="2.93474">
        <ele>49</ele>
        <time>2019-01-27T16:08:00Z</time>
      </trkpt>
      <trkpt lat="48.37046" lon="2.935">
        <ele>50</ele>
        <time>2019-01-27T16:08:17Z</time>
      </trkpt>
      <trkpt lat="48.37052" lon="2.93506">
        <ele>50</ele>
        <time>2019-01-27T16:08:28Z</time>
      </trkpt>
      <trkpt lat="48.37056" lon="2.93508">
        <ele>50</ele>
        <time>2019-01-27T16:08:34Z</time>
      </trkpt>
      <trkpt lat="48.37062" lon="2.93502">
        <ele>50</ele>
        <time>2019-01-27T16:08:41Z</time>
      </trkpt>
      <trkpt lat="48.37068" lon="2.935">
        <ele>50</ele>
        <time>2019-01-27T16:08:45Z</time>
      </trkpt>
      <trkpt lat="48.37077" lon="2.93508">
        <ele>50</ele>
        <time>2019-01-27T16:08:53Z</time>
      </trkpt>
      <trkpt lat="48.37086" lon="2.93514">
        <ele>50</ele>
        <time>2019-01-27T16:09:01Z</time>
      </trkpt>
      <trkpt lat="48.371" lon="2.93518">
        <ele>50</ele>
        <time>2019-01-27T16:09:13Z</time>
      </trkpt>
      <trkpt lat="48.37137" lon="2.93535">
        <ele>50</ele>
        <time>2019-01-27T16:09:45Z</time>
      </trkpt>
      <trkpt lat="48.37175" lon="2.93547">
        <ele>50</ele>
        <time>2019-01-27T16:10:18Z</time>
      </trkpt>
      <trkpt lat="48.37203" lon="2.93559">
        <ele>50</ele>
        <time>2019-01-27T16:10:42Z</time>
      </trkpt>
      <trkpt lat="48.37208" lon="2.93558">
        <ele>50</ele>
        <time>2019-01-27T16:10:46Z</time>
      </trkpt>
      <trkpt lat="48.37221" lon="2.93536">
        <ele>50</ele>
        <time>2019-01-27T16:11:02Z</time>
      </trkpt>
      <trkpt lat="48.37242" lon="2.93487">
        <ele>50</ele>
        <time>2019-01-27T16:11:35Z</time>
      </trkpt>
      <trkpt lat="48.37245" lon="2.93481">
        <ele>50</ele>
        <time>2019-01-27T16:11:39Z</time>
      </trkpt>
      <trkpt lat="48.37257" lon="2.93456">
        <ele>50</ele>
        <time>2019-01-27T16:11:56Z</time>
      </trkpt>
      <trkpt lat="48.3726" lon="2.93451">
        <ele>50</ele>
        <time>2019-01-27T16:12:00Z</time>
      </trkpt>
      <trkpt lat="48.3728" lon="2.93429">
        <ele>49</ele>
        <time>2019-01-27T16:12:22Z</time>
      </trkpt>
      <trkpt lat="48.37311" lon="2.93412">
        <ele>49</ele>
        <time>2019-01-27T16:12:53Z</time>
      </trkpt>
      <trkpt lat="48.37332" lon="2.93407">
        <ele>48</ele>
        <time>2019-01-27T16:13:09Z</time>
      </trkpt>
      <trkpt lat="48.37372" lon="2.93399">
        <ele>49</ele>
        <time>2019-01-27T16:13:41Z</time>
      </trkpt>
      <trkpt lat="48.37396" lon="2.93395">
        <ele>50</ele>
        <time>2019-01-27T16:14:02Z</time>
      </trkpt>
      <trkpt lat="48.37401" lon="2.93394">
        <ele>50</ele>
        <time>2019-01-27T16:14:06Z</time>
      </trkpt>
      <trkpt lat="48.3744" lon="2.93388">
        <ele>50</ele>
        <time>2019-01-27T16:14:38Z</time>
      </trkpt>
      <trkpt lat="48.37468" lon="2.93384">
        <ele>51</ele>
        <time>2019-01-27T16:15:04Z</time>
      </trkpt>
      <trkpt lat="48.37471" lon="2.93378">
        <ele>51</ele>
        <time>2019-01-27T16:15:09Z</time>
      </trkpt>
      <trkpt lat="48.37474" lon="2.93371">
        <ele>51</ele>
        <time>2019-01-27T16:15:14Z</time>
      </trkpt>
      <trkpt lat="48.37473" lon="2.93372">
        <ele>52</ele>
        <time>2019-01-27T16:17:29Z</time>
      </trkpt>
      <trkpt lat="48.37468" lon="2.93378">
        <ele>52</ele>
        <time>2019-01-27T16:17:37Z</time>
      </trkpt>
      <trkpt lat="48.37466" lon="2.93384">
        <ele>52</ele>
        <time>2019-01-27T16:17:42Z</time>
      </trkpt>
      <trkpt lat="48.37464" lon="2.9339">
        <ele>51</ele>
        <time>2019-01-27T16:20:18Z</time>
      </trkpt>
      <trkpt lat="48.37459" lon="2.93399">
        <ele>50</ele>
        <time>2019-01-27T16:21:41Z</time>
      </trkpt>
      <trkpt lat="48.37454" lon="2.9341">
        <ele>49</ele>
        <time>2019-01-27T16:21:49Z</time>
      </trkpt>
      <trkpt lat="48.37455" lon="2.93418">
        <ele>50</ele>
        <time>2019-01-27T16:21:54Z</time>
      </trkpt>
      <trkpt lat="48.37456" lon="2.93425">
        <ele>50</ele>
        <time>2019-01-27T16:21:58Z</time>
      </trkpt>
      <trkpt lat="48.37457" lon="2.93481">
        <ele>50</ele>
        <time>2019-01-27T16:22:29Z</time>
      </trkpt>
      <trkpt lat="48.37461" lon="2.93502">
        <ele>51</ele>
        <time>2019-01-27T16:22:41Z</time>
      </trkpt>
      <trkpt lat="48.37464" lon="2.9352">
        <ele>50</ele>
        <time>2019-01-27T16:22:51Z</time>
      </trkpt>
      <trkpt lat="48.37469" lon="2.93581">
        <ele>50</ele>
        <time>2019-01-27T16:23:22Z</time>
      </trkpt>
      <trkpt lat="48.37475" lon="2.93635">
        <ele>50</ele>
        <time>2019-01-27T16:23:50Z</time>
      </trkpt>
      <trkpt lat="48.37473" lon="2.93644">
        <ele>50</ele>
        <time>2019-01-27T16:23:57Z</time>
      </trkpt>
      <trkpt lat="48.37476" lon="2.93651">
        <ele>50</ele>
        <time>2019-01-27T16:24:04Z</time>
      </trkpt>
      <trkpt lat="48.37493" lon="2.93666">
        <ele>50</ele>
        <time>2019-01-27T16:24:22Z</time>
      </trkpt>
      <trkpt lat="48.37519" lon="2.93659">
        <ele>50</ele>
        <time>2019-01-27T16:24:42Z</time>
      </trkpt>
      <trkpt lat="48.37538" lon="2.93655">
        <ele>50</ele>
        <time>2019-01-27T16:24:57Z</time>
      </trkpt>
      <trkpt lat="48.37573" lon="2.93651">
        <ele>50</ele>
        <time>2019-01-27T16:25:27Z</time>
      </trkpt>
      <trkpt lat="48.37578" lon="2.93651">
        <ele>50</ele>
        <time>2019-01-27T16:25:31Z</time>
      </trkpt>
      <trkpt lat="48.37583" lon="2.93651">
        <ele>50</ele>
        <time>2019-01-27T16:25:35Z</time>
      </trkpt>
      <trkpt lat="48.37593" lon="2.93652">
        <ele>49</ele>
        <time>2019-01-27T16:25:43Z</time>
      </trkpt>
      <trkpt lat="48.37636" lon="2.9364">
        <ele>49</ele>
        <time>2019-01-27T16:26:14Z</time>
      </trkpt>
      <trkpt lat="48.37677" lon="2.93615">
        <ele>49</ele>
        <time>2019-01-27T16:26:45Z</time>
      </trkpt>
      <trkpt lat="48.3769" lon="2.93605">
        <ele>48</ele>
        <time>2019-01-27T16:26:58Z</time>
      </trkpt>
      <trkpt lat="48.37728" lon="2.93573">
        <ele>48</ele>
        <time>2019-01-27T16:27:30Z</time>
      </trkpt>
      <trkpt lat="48.37736" lon="2.93564">
        <ele>48</ele>
        <time>2019-01-27T16:27:38Z</time>
      </trkpt>
      <trkpt lat="48.37741" lon="2.93561">
        <ele>48</ele>
        <time>2019-01-27T16:27:42Z</time>
      </trkpt>
      <trkpt lat="48.37755" lon="2.93548">
        <ele>48</ele>
        <time>2019-01-27T16:27:54Z</time>
      </trkpt>
      <trkpt lat="48.37759" lon="2.93546">
        <ele>48</ele>
        <time>2019-01-27T16:27:58Z</time>
      </trkpt>
      <trkpt lat="48.37763" lon="2.93543">
        <ele>48</ele>
        <time>2019-01-27T16:28:02Z</time>
      </trkpt>
      <trkpt lat="48.37771" lon="2.93529">
        <ele>47</ele>
        <time>2019-01-27T16:28:16Z</time>
      </trkpt>
      <trkpt lat="48.37776" lon="2.93524">
        <ele>48</ele>
        <time>2019-01-27T16:28:21Z</time>
      </trkpt>
      <trkpt lat="48.37781" lon="2.93513">
        <ele>48</ele>
        <time>2019-01-27T16:28:31Z</time>
      </trkpt>
      <trkpt lat="48.37784" lon="2.93508">
        <ele>48</ele>
        <time>2019-01-27T16:28:41Z</time>
      </trkpt>
      <trkpt lat="48.3779" lon="2.93512">
        <ele>48</ele>
        <time>2019-01-27T16:28:52Z</time>
      </trkpt>
      <trkpt lat="48.37796" lon="2.93514">
        <ele>48</ele>
        <time>2019-01-27T16:28:59Z</time>
      </trkpt>
      <trkpt lat="48.37801" lon="2.93513">
        <ele>48</ele>
        <time>2019-01-27T16:29:04Z</time>
      </trkpt>
      <trkpt lat="48.37819" lon="2.93499">
        <ele>48</ele>
        <time>2019-01-27T16:29:20Z</time>
      </trkpt>
      <trkpt lat="48.37824" lon="2.93497">
        <ele>48</ele>
        <time>2019-01-27T16:29:24Z</time>
      </trkpt>
      <trkpt lat="48.37829" lon="2.93493">
        <ele>48</ele>
        <time>2019-01-27T16:29:28Z</time>
      </trkpt>
      <trkpt lat="48.37838" lon="2.93488">
        <ele>48</ele>
        <time>2019-01-27T16:29:36Z</time>
      </trkpt>
      <trkpt lat="48.37842" lon="2.93484">
        <ele>48</ele>
        <time>2019-01-27T16:29:39Z</time>
      </trkpt>
      <trkpt lat="48.37847" lon="2.9348">
        <ele>48</ele>
        <time>2019-01-27T16:29:43Z</time>
      </trkpt>
      <trkpt lat="48.37852" lon="2.93478">
        <ele>48</ele>
        <time>2019-01-27T16:29:47Z</time>
      </trkpt>
      <trkpt lat="48.37861" lon="2.93472">
        <ele>48</ele>
        <time>2019-01-27T16:29:55Z</time>
      </trkpt>
      <trkpt lat="48.37867" lon="2.9347">
        <ele>48</ele>
        <time>2019-01-27T16:29:59Z</time>
      </trkpt>
      <trkpt lat="48.37873" lon="2.93468">
        <ele>49</ele>
        <time>2019-01-27T16:30:03Z</time>
      </trkpt>
      <trkpt lat="48.37887" lon="2.93464">
        <ele>49</ele>
        <time>2019-01-27T16:30:15Z</time>
      </trkpt>
      <trkpt lat="48.37903" lon="2.93454">
        <ele>49</ele>
        <time>2019-01-27T16:30:27Z</time>
      </trkpt>
      <trkpt lat="48.37927" lon="2.93444">
        <ele>50</ele>
        <time>2019-01-27T16:30:47Z</time>
      </trkpt>
      <trkpt lat="48.3793" lon="2.9345">
        <ele>50</ele>
        <time>2019-01-27T16:30:56Z</time>
      </trkpt>
      <trkpt lat="48.37935" lon="2.93448">
        <ele>50</ele>
        <time>2019-01-27T16:31:02Z</time>
      </trkpt>
      <trkpt lat="48.37939" lon="2.93442">
        <ele>50</ele>
        <time>2019-01-27T16:31:06Z</time>
      </trkpt>
      <trkpt lat="48.37944" lon="2.93439">
        <ele>49</ele>
        <time>2019-01-27T16:31:10Z</time>
      </trkpt>
      <trkpt lat="48.37947" lon="2.93435">
        <ele>50</ele>
        <time>2019-01-27T16:31:14Z</time>
      </trkpt>
      <trkpt lat="48.37949" lon="2.93428">
        <ele>50</ele>
        <time>2019-01-27T16:31:18Z</time>
      </trkpt>
      <trkpt lat="48.3795" lon="2.93421">
        <ele>50</ele>
        <time>2019-01-27T16:31:22Z</time>
      </trkpt>
      <trkpt lat="48.37951" lon="2.93413">
        <ele>50</ele>
        <time>2019-01-27T16:31:26Z</time>
      </trkpt>
      <trkpt lat="48.37953" lon="2.934">
        <ele>50</ele>
        <time>2019-01-27T16:31:34Z</time>
      </trkpt>
      <trkpt lat="48.37953" lon="2.93393">
        <ele>50</ele>
        <time>2019-01-27T16:31:38Z</time>
      </trkpt>
      <trkpt lat="48.37955" lon="2.93386">
        <ele>50</ele>
        <time>2019-01-27T16:31:42Z</time>
      </trkpt>
      <trkpt lat="48.37958" lon="2.9338">
        <ele>49</ele>
        <time>2019-01-27T16:31:46Z</time>
      </trkpt>
      <trkpt lat="48.37962" lon="2.93375">
        <ele>50</ele>
        <time>2019-01-27T16:31:50Z</time>
      </trkpt>
      <trkpt lat="48.38024" lon="2.93336">
        <ele>50</ele>
        <time>2019-01-27T16:32:18Z</time>
      </trkpt>
      <trkpt lat="48.38018" lon="2.93348">
        <ele>50</ele>
        <time>2019-01-27T16:32:22Z</time>
      </trkpt>
      <trkpt lat="48.38022" lon="2.93356">
        <ele>50</ele>
        <time>2019-01-27T16:32:27Z</time>
      </trkpt>
      <trkpt lat="48.3803" lon="2.93422">
        <ele>50</ele>
        <time>2019-01-27T16:33:00Z</time>
      </trkpt>
      <trkpt lat="48.3803" lon="2.93429">
        <ele>50</ele>
        <time>2019-01-27T16:33:05Z</time>
      </trkpt>
      <trkpt lat="48.38033" lon="2.93436">
        <ele>49</ele>
        <time>2019-01-27T16:33:09Z</time>
      </trkpt>
      <trkpt lat="48.38038" lon="2.93449">
        <ele>49</ele>
        <time>2019-01-27T16:33:17Z</time>
      </trkpt>
      <trkpt lat="48.38042" lon="2.93454">
        <ele>49</ele>
        <time>2019-01-27T16:33:22Z</time>
      </trkpt>
      <trkpt lat="48.38046" lon="2.93457">
        <ele>48</ele>
        <time>2019-01-27T16:33:27Z</time>
      </trkpt>
      <trkpt lat="48.38051" lon="2.9346">
        <ele>48</ele>
        <time>2019-01-27T16:33:32Z</time>
      </trkpt>
      <trkpt lat="48.38061" lon="2.93461">
        <ele>49</ele>
        <time>2019-01-27T16:33:40Z</time>
      </trkpt>
      <trkpt lat="48.38065" lon="2.93464">
        <ele>49</ele>
        <time>2019-01-27T16:33:44Z</time>
      </trkpt>
      <trkpt lat="48.38079" lon="2.93477">
        <ele>49</ele>
        <time>2019-01-27T16:33:56Z</time>
      </trkpt>
      <trkpt lat="48.38092" lon="2.93501">
        <ele>51</ele>
        <time>2019-01-27T16:34:12Z</time>
      </trkpt>
      <trkpt lat="48.38098" lon="2.93515">
        <ele>51</ele>
        <time>2019-01-27T16:34:20Z</time>
      </trkpt>
      <trkpt lat="48.38112" lon="2.93575">
        <ele>52</ele>
        <time>2019-01-27T16:34:52Z</time>
      </trkpt>
      <trkpt lat="48.38113" lon="2.93597">
        <ele>51</ele>
        <time>2019-01-27T16:35:02Z</time>
      </trkpt>
      <trkpt lat="48.38109" lon="2.93634">
        <ele>52</ele>
        <time>2019-01-27T16:35:18Z</time>
      </trkpt>
      <trkpt lat="48.38107" lon="2.93642">
        <ele>51</ele>
        <time>2019-01-27T16:35:22Z</time>
      </trkpt>
      <trkpt lat="48.38104" lon="2.93659">
        <ele>52</ele>
        <time>2019-01-27T16:35:30Z</time>
      </trkpt>
      <trkpt lat="48.38104" lon="2.93668">
        <ele>52</ele>
        <time>2019-01-27T16:35:34Z</time>
      </trkpt>
      <trkpt lat="48.38098" lon="2.9369">
        <ele>52</ele>
        <time>2019-01-27T16:35:46Z</time>
      </trkpt>
      <trkpt lat="48.38095" lon="2.93696">
        <ele>53</ele>
        <time>2019-01-27T16:35:50Z</time>
      </trkpt>
      <trkpt lat="48.38082" lon="2.93759">
        <ele>54</ele>
        <time>2019-01-27T16:36:22Z</time>
      </trkpt>
      <trkpt lat="48.38077" lon="2.93804">
        <ele>55</ele>
        <time>2019-01-27T16:36:48Z</time>
      </trkpt>
      <trkpt lat="48.38077" lon="2.93811">
        <ele>55</ele>
        <time>2019-01-27T16:36:52Z</time>
      </trkpt>
      <trkpt lat="48.38078" lon="2.93819">
        <ele>55</ele>
        <time>2019-01-27T16:36:56Z</time>
      </trkpt>
      <trkpt lat="48.3808" lon="2.93826">
        <ele>55</ele>
        <time>2019-01-27T16:37:00Z</time>
      </trkpt>
      <trkpt lat="48.3808" lon="2.93845">
        <ele>55</ele>
        <time>2019-01-27T16:37:13Z</time>
      </trkpt>
      <trkpt lat="48.38079" lon="2.93854">
        <ele>55</ele>
        <time>2019-01-27T16:37:18Z</time>
      </trkpt>
      <trkpt lat="48.38074" lon="2.93859">
        <ele>55</ele>
        <time>2019-01-27T16:37:22Z</time>
      </trkpt>
      <trkpt lat="48.38071" lon="2.93865">
        <ele>54</ele>
        <time>2019-01-27T16:37:26Z</time>
      </trkpt>
      <trkpt lat="48.38073" lon="2.93874">
        <ele>54</ele>
        <time>2019-01-27T16:37:30Z</time>
      </trkpt>
      <trkpt lat="48.38076" lon="2.93889">
        <ele>54</ele>
        <time>2019-01-27T16:37:38Z</time>
      </trkpt>
      <trkpt lat="48.38079" lon="2.93896">
        <ele>54</ele>
        <time>2019-01-27T16:37:43Z</time>
      </trkpt>
      <trkpt lat="48.38081" lon="2.93904">
        <ele>53</ele>
        <time>2019-01-27T16:37:50Z</time>
      </trkpt>
      <trkpt lat="48.38085" lon="2.93911">
        <ele>53</ele>
        <time>2019-01-27T16:37:55Z</time>
      </trkpt>
      <trkpt lat="48.38089" lon="2.93943">
        <ele>53</ele>
        <time>2019-01-27T16:38:13Z</time>
      </trkpt>
      <trkpt lat="48.38088" lon="2.93951">
        <ele>53</ele>
        <time>2019-01-27T16:38:18Z</time>
      </trkpt>
      <trkpt lat="48.38092" lon="2.93984">
        <ele>53</ele>
        <time>2019-01-27T16:38:39Z</time>
      </trkpt>
      <trkpt lat="48.38094" lon="2.93997">
        <ele>53</ele>
        <time>2019-01-27T16:38:48Z</time>
      </trkpt>
      <trkpt lat="48.38098" lon="2.94002">
        <ele>53</ele>
        <time>2019-01-27T16:38:52Z</time>
      </trkpt>
      <trkpt lat="48.38097" lon="2.94026">
        <ele>52</ele>
        <time>2019-01-27T16:39:05Z</time>
      </trkpt>
      <trkpt lat="48.38096" lon="2.94034">
        <ele>52</ele>
        <time>2019-01-27T16:39:09Z</time>
      </trkpt>
      <trkpt lat="48.38092" lon="2.94066">
        <ele>52</ele>
        <time>2019-01-27T16:39:25Z</time>
      </trkpt>
      <trkpt lat="48.38089" lon="2.94073">
        <ele>52</ele>
        <time>2019-01-27T16:39:29Z</time>
      </trkpt>
      <trkpt lat="48.38083" lon="2.94087">
        <ele>52</ele>
        <time>2019-01-27T16:39:37Z</time>
      </trkpt>
      <trkpt lat="48.38081" lon="2.94094">
        <ele>52</ele>
        <time>2019-01-27T16:39:41Z</time>
      </trkpt>
      <trkpt lat="48.38074" lon="2.94108">
        <ele>53</ele>
        <time>2019-01-27T16:39:52Z</time>
      </trkpt>
      <trkpt lat="48.38069" lon="2.94123">
        <ele>52</ele>
        <time>2019-01-27T16:40:00Z</time>
      </trkpt>
      <trkpt lat="48.38059" lon="2.94165">
        <ele>52</ele>
        <time>2019-01-27T16:40:26Z</time>
      </trkpt>
      <trkpt lat="48.38057" lon="2.94181">
        <ele>52</ele>
        <time>2019-01-27T16:40:34Z</time>
      </trkpt>
      <trkpt lat="48.38049" lon="2.94226">
        <ele>52</ele>
        <time>2019-01-27T16:40:59Z</time>
      </trkpt>
      <trkpt lat="48.38039" lon="2.94247">
        <ele>52</ele>
        <time>2019-01-27T16:41:13Z</time>
      </trkpt>
      <trkpt lat="48.38031" lon="2.94265">
        <ele>52</ele>
        <time>2019-01-27T16:41:25Z</time>
      </trkpt>
      <trkpt lat="48.38026" lon="2.94268">
        <ele>52</ele>
        <time>2019-01-27T16:41:30Z</time>
      </trkpt>
      <trkpt lat="48.3802" lon="2.94269">
        <ele>52</ele>
        <time>2019-01-27T16:41:34Z</time>
      </trkpt>
      <trkpt lat="48.38016" lon="2.94274">
        <ele>52</ele>
        <time>2019-01-27T16:41:38Z</time>
      </trkpt>
      <trkpt lat="48.38014" lon="2.9428">
        <ele>53</ele>
        <time>2019-01-27T16:41:42Z</time>
      </trkpt>
      <trkpt lat="48.38013" lon="2.94288">
        <ele>53</ele>
        <time>2019-01-27T16:41:46Z</time>
      </trkpt>
      <trkpt lat="48.38009" lon="2.94319">
        <ele>53</ele>
        <time>2019-01-27T16:42:01Z</time>
      </trkpt>
      <trkpt lat="48.38006" lon="2.94326">
        <ele>53</ele>
        <time>2019-01-27T16:42:05Z</time>
      </trkpt>
      <trkpt lat="48.37997" lon="2.94334">
        <ele>53</ele>
        <time>2019-01-27T16:42:13Z</time>
      </trkpt>
      <trkpt lat="48.37999" lon="2.94336">
        <ele>52</ele>
        <time>2019-01-27T16:42:56Z</time>
      </trkpt>
    </trkseg>
  </trk>
</gpx>